Detalle de ayer:

25/4/18
Time         Wind Dir  Wind Gust   Humidity       Temp   Tot Rain Wind Chill Heat Index  Dew Point   Barom SL Temp Out H Temp Out L  DailyRain   HourRain   24HrRain   RainRate   Wind Run   Deg Heat   Deg Cool  MonthRain
                          km/hr          %         C         mm         C         C         C         mb         C         C         mm         mm         mm      mm/hr         km         C         C         mm
0:00              216       11.3         79       16.8      424.2       14.7       19.1       13.1     1012.9       16.8       16.8        0.0        0.0        0.6       0.00      218.6       0.30       0.70       85.8
0:02              218        9.7         79       16.8      424.2       15.9       19.1       13.1     1012.8       16.8       16.8        0.0        0.0        0.6       0.00        0.3       0.01       0.00       85.8
0:04              220       14.5         79       16.7      424.2       15.2       19.0       13.1     1012.9       16.8       16.7        0.0        0.0        0.6       0.00        0.6       0.01       0.00       85.8
0:06              221        9.7         79       16.7      424.2       16.7       18.9       13.0     1012.9       16.8       16.7        0.0        0.0        0.6       0.00        0.9       0.01       0.00       85.8
0:08              223        9.7         80       16.6      424.2       16.6       19.0       13.2     1012.9       16.8       16.6        0.0        0.0        0.6       0.00        1.2       0.01       0.00       85.8
0:10              223        6.4         80       16.6      424.2       16.6       19.0       13.2     1012.8       16.8       16.6        0.0        0.0        0.6       0.00        1.4       0.01       0.00       85.8
0:12              224        8.0         80       16.6      424.2       16.6       18.9       13.1     1012.9       16.8       16.6        0.0        0.0        0.6       0.00        1.6       0.01       0.00       85.8
0:14              225       11.3         80       16.6      424.2       15.7       18.9       13.1     1012.8       16.8       16.6        0.0        0.0        0.6       0.00        1.9       0.01       0.00       85.8
0:16              225        8.0         80       16.6      424.2       16.6       18.9       13.1     1012.9       16.8       16.5        0.0        0.0        0.6       0.00        2.1       0.03       0.00       85.8
0:18              225        4.8         80       16.5      424.2       16.5       18.8       13.0     1012.8       16.8       16.5        0.0        0.0        0.6       0.00        2.2       0.03       0.00       85.8
0:20              225        9.7         80       16.5      424.2       16.5       18.8       13.0     1012.9       16.8       16.5        0.0        0.0        0.6       0.00        2.4       0.03       0.00       85.8
0:21              225        9.7         80       16.5      424.2       15.6       18.8       13.0     1012.8       16.8       16.5        0.0        0.0        0.6       0.00        2.6       0.03       0.00       85.8
0:24              225        8.0         80       16.4      424.2       16.4       18.8       13.0     1012.9       16.8       16.4        0.0        0.0        0.6       0.00        2.8       0.03       0.00       85.8
0:26              225       11.3         81       16.4      424.2       15.5       18.9       13.2     1012.8       16.8       16.4        0.0        0.0        0.6       0.00        3.1       0.03       0.00       85.8
0:28              225        8.0         81       16.4      424.2       16.4       18.8       13.1     1012.8       16.8       16.4        0.0        0.0        0.6       0.00        3.3       0.03       0.00       85.8
0:29              225        8.0         81       16.4      424.2       15.5       18.8       13.1     1012.8       16.8       16.4        0.0        0.0        0.6       0.00        3.6       0.03       0.00       85.8
0:32              226        9.7         81       16.4      424.2       14.9       18.8       13.1     1012.8       16.8       16.4        0.0        0.0        0.6       0.00        3.8       0.04       0.00       85.8
0:33              227        8.0         81       16.4      424.2       16.4       18.8       13.1     1012.8       16.8       16.3        0.0        0.0        0.6       0.00        4.1       0.04       0.00       85.8
0:36              228       16.1         81       16.3      424.2       12.4       18.8       13.1     1012.8       16.8       16.3        0.0        0.0        0.6       0.00        4.3       0.04       0.00       85.8
0:38              229       11.3         81       16.4      424.2       15.5       18.8       13.1     1012.6       16.8       16.3        0.0        0.0        0.6       0.00        4.6       0.04       0.00       85.8
0:39              232       11.3         81       16.4      424.2       14.2       18.8       13.1     1012.6       16.8       16.3        0.0        0.0        0.6       0.00        4.9       0.04       0.00       85.8
0:42              233       16.1         81       16.4      424.2       13.7       18.9       13.2     1012.5       16.8       16.3        0.0        0.0        0.6       0.00        5.2       0.04       0.00       85.8
0:44              234       17.7         80       16.4      424.2       12.5       18.8       13.0     1012.5       16.8       16.3        0.0        0.0        0.6       0.00        5.7       0.04       0.00       85.8
0:45              236       24.1         80       16.5      424.2       12.6       18.8       13.0     1012.5       16.8       16.3        0.0        0.0        0.6       0.00        6.1       0.06       0.00       85.8
0:48              237       11.3         80       16.5      424.2       14.4       18.8       13.0     1012.4       16.8       16.3        0.0        0.0        0.6       0.00        6.4       0.06       0.00       85.8
0:50              237        9.7         80       16.5      424.2       15.0       18.8       13.0     1012.3       16.8       16.3        0.0        0.0        0.6       0.00        6.8       0.06       0.00       85.8
0:52              238        9.7         81       16.5      424.2       15.0       18.9       13.2     1012.3       16.8       16.3        0.0        0.0        0.6       0.00        7.1       0.06       0.00       85.8
0:54              232       22.5         81       16.5      424.2       11.2       18.9       13.2     1012.4       16.8       16.3        0.0        0.0        0.6       0.00        7.6       0.06       0.00       85.8
0:56              232       12.9         81       16.5      424.2       16.5       18.9       13.2     1012.3       16.8       16.3        0.0        0.0        0.6       0.00        7.9       0.06       0.00       85.8
0:58              231       17.7         81       16.5      424.2       15.0       18.9       13.2     1012.3       16.8       16.3        0.0        0.0        0.6       0.00        8.3       0.06       0.00       85.8
1:00              233       19.3         81       16.5      424.2       11.9       18.9       13.2     1012.4       16.8       16.3        0.0        0.0        0.6       0.00        8.8       0.06       0.00       85.8
1:02              238       16.1         81       16.4      424.2       13.1       18.9       13.2     1012.4       16.8       16.3        0.0        0.0        0.6       0.00        9.3       0.08       0.00       85.8
1:03              238       17.7         81       16.4      424.2       14.9       18.9       13.2     1012.4       16.8       16.3        0.0        0.0        0.6       0.00        9.6       0.08       0.00       85.8
1:05              238       16.1         81       16.4      424.2       14.9       18.8       13.1     1012.4       16.8       16.3        0.0        0.0        0.6       0.00        9.9       0.08       0.00       85.8
1:08              239        9.7         81       16.4      424.2       16.4       18.8       13.1     1012.4       16.8       16.3        0.0        0.0        0.6       0.00       10.2       0.08       0.00       85.8
1:10              239        9.7         81       16.3      424.2       14.8       18.8       13.1     1012.4       16.8       16.3        0.0        0.0        0.6       0.00       10.5       0.08       0.00       85.8
1:11              240        6.4         81       16.3      424.2       16.3       18.8       13.1     1012.4       16.8       16.3        0.0        0.0        0.6       0.00       10.7       0.08       0.00       85.8
1:14              239        9.7         82       16.3      424.2       16.3       18.8       13.2     1012.4       16.8       16.3        0.0        0.0        0.6       0.00       10.9       0.08       0.00       85.8
1:16              237       11.3         82       16.3      424.2       16.3       18.8       13.2     1012.6       16.8       16.3        0.0        0.0        0.6       0.00       11.2       0.09       0.00       85.8
1:17              236        6.4         82       16.3      424.2       16.3       18.8       13.2     1012.6       16.8       16.3        0.0        0.0        0.6       0.00       11.4       0.09       0.00       85.8
1:20              235       11.3         82       16.2      424.2       14.1       18.7       13.1     1012.7       16.8       16.2        0.0        0.0        0.6       0.00       11.6       0.09       0.00       85.8
1:22              235        9.7         82       16.2      424.2       16.2       18.7       13.1     1012.6       16.8       16.2        0.0        0.0        0.6       0.00       11.8       0.09       0.00       85.8
1:23              235        9.7         82       16.2      424.2       16.2       18.7       13.1     1012.6       16.8       16.2        0.0        0.0        0.6       0.00       12.0       0.09       0.00       85.8
1:26              234       14.5         82       16.1      424.2       14.6       18.6       13.0     1012.5       16.8       16.1        0.0        0.0        0.6       0.00       12.2       0.09       0.00       85.8
1:28              233        9.7         83       16.1      424.2       14.5       18.6       13.2     1012.5       16.8       16.1        0.0        0.0        0.6       0.00       12.5       0.09       0.00       85.8
1:30              233       14.5         83       16.0      424.2       13.8       18.6       13.1     1012.5       16.8       16.0        0.0        0.0        0.6       0.00       12.8       0.09       0.00       85.8
1:32              234       11.3         83       15.9      424.2       14.4       18.5       13.1     1012.5       16.8       15.9        0.0        0.0        0.6       0.00       13.1       0.11       0.00       85.8
1:34              236       11.3         84       15.9      424.2       15.9       18.5       13.2     1012.4       16.8       15.9        0.0        0.0        0.6       0.00       13.4       0.11       0.00       85.8
1:36              237       16.1         84       15.9      424.2       15.9       18.5       13.2     1012.3       16.8       15.9        0.0        0.0        0.6       0.00       13.7       0.11       0.00       85.8
1:38              238       19.3         84       15.9      424.2       11.8       18.5       13.2     1012.4       16.8       15.8        0.0        0.0        0.6       0.00       14.1       0.11       0.00       85.8
1:40              238       14.5         84       15.9      424.2       14.3       18.5       13.2     1012.3       16.8       15.8        0.0        0.0        0.6       0.00       14.4       0.11       0.00       85.8
1:42              238       14.5         85       15.9      424.2       15.9       18.6       13.4     1012.5       16.8       15.8        0.0        0.0        0.6       0.00       14.8       0.11       0.00       85.8
1:43              238       14.5         85       15.9      424.2       12.4       18.6       13.4     1012.5       16.8       15.8        0.0        0.0        0.6       0.00       15.1       0.11       0.00       85.8
1:46              238       14.5         85       15.9      424.2       13.0       18.6       13.4     1012.5       16.8       15.8        0.0        0.0        0.6       0.00       15.5       0.14       0.00       85.8
1:48              238       14.5         85       15.8      424.2       14.9       18.6       13.3     1012.5       16.8       15.8        0.0        0.0        0.6       0.00       15.9       0.14       0.00       85.8
1:49              238       14.5         85       15.8      424.2       15.8       18.6       13.3     1012.4       16.8       15.8        0.0        0.0        0.6       0.00       16.2       0.14       0.00       85.8
1:52              238        9.7         85       15.8      424.2       15.8       18.6       13.3     1012.4       16.8       15.8        0.0        0.0        0.6       0.00       16.6       0.14       0.00       85.8
1:54              238       16.1         85       15.8      424.2       15.8       18.6       13.3     1012.4       16.8       15.8        0.0        0.0        0.6       0.00       16.9       0.14       0.00       85.8
1:55              238       16.1         85       15.8      424.2       14.3       18.6       13.3     1012.4       16.8       15.8        0.0        0.0        0.6       0.00       17.2       0.14       0.00       85.8
1:58              238       17.7         85       15.8      424.2       11.7       18.6       13.3     1012.4       16.8       15.8        0.0        0.0        0.6       0.00       17.5       0.14       0.00       85.8
2:00              238       16.1         85       15.8      424.2       12.3       18.6       13.3     1012.4       16.8       15.8        0.0        0.0        0.6       0.00       17.9       0.14       0.00       85.8
2:02              238       17.7         86       15.8      424.2       11.4       18.6       13.5     1012.4       16.8       15.8        0.0        0.0        0.6       0.00       18.3       0.16       0.00       85.8
2:04              238       16.1         86       15.8      424.2       15.8       18.6       13.4     1012.3       16.8       15.8        0.0        0.0        0.6       0.00       18.7       0.16       0.00       85.8
2:06              238        8.0         86       15.8      424.2       15.8       18.6       13.4     1012.4       16.8       15.8        0.0        0.0        0.6       0.00       19.0       0.16       0.00       85.8
2:07              238        3.2         86       15.8      424.2       15.8       18.6       13.4     1012.3       16.8       15.8        0.0        0.0        0.6       0.00       19.1       0.16       0.00       85.8
2:10              238        6.4         86       15.8      424.2       15.8       18.6       13.4     1012.4       16.8       15.8        0.0        0.0        0.6       0.00       19.2       0.16       0.00       85.8
2:12              238        6.4         86       15.8      424.2       15.8       18.6       13.4     1012.4       16.8       15.8        0.0        0.0        0.6       0.00       19.3       0.16       0.00       85.8
2:13              238        3.2         86       15.8      424.2       15.8       18.6       13.4     1012.5       16.8       15.7        0.0        0.0        0.6       0.00       19.4       0.16       0.00       85.8
2:16              238        6.4         86       15.8      424.2       15.8       18.6       13.4     1012.5       16.8       15.7        0.0        0.0        0.6       0.00       19.6       0.18       0.00       85.8
2:18              238       12.9         86       15.7      424.2       15.7       18.5       13.4     1012.5       16.8       15.7        0.0        0.0        0.6       0.00       19.7       0.18       0.00       85.8
2:20              238        8.0         86       15.7      424.2       15.7       18.5       13.4     1012.5       16.8       15.7        0.0        0.0        0.6       0.00       19.9       0.18       0.00       85.8
2:22              238       12.9         86       15.7      424.2       12.9       18.5       13.4     1012.5       16.8       15.7        0.0        0.0        0.6       0.00       20.1       0.18       0.00       85.8
2:24              238        9.7         86       15.7      424.2       15.7       18.5       13.4     1012.6       16.8       15.7        0.0        0.0        0.6       0.00       20.5       0.18       0.00       85.8
2:26              238        4.8         86       15.7      424.2       15.7       18.5       13.3     1012.7       16.8       15.7        0.0        0.0        0.6       0.00       20.6       0.18       0.00       85.8
2:28              238        0.0         86       15.7      424.2       15.7       18.5       13.3     1012.6       16.8       15.7        0.0        0.0        0.6       0.00       20.6       0.18       0.00       85.8
2:30              238        6.4         86       15.6      424.2       15.6       18.4       13.3     1012.5       16.8       15.6        0.0        0.0        0.6       0.00       20.6       0.18       0.00       85.8
2:32              238        0.0         86       15.6      424.2       15.6       18.4       13.3     1012.5       16.8       15.6        0.0        0.0        0.6       0.00       20.7       0.21       0.00       85.8
2:33              238       14.5         86       15.6      424.2       15.6       18.4       13.2     1012.6       16.8       15.6        0.0        0.0        0.6       0.00       20.7       0.21       0.00       85.8
2:36              238        4.8         86       15.6      424.2       15.6       18.4       13.2     1012.6       16.8       15.6        0.0        0.0        0.6       0.00       20.9       0.21       0.00       85.8
2:38              238        3.2         86       15.5      424.2       15.5       18.3       13.2     1012.6       16.8       15.5        0.0        0.0        0.6       0.00       21.0       0.21       0.00       85.8
2:40              238        0.0         86       15.5      424.2       15.5       18.3       13.2     1012.7       16.8       15.5        0.0        0.0        0.6       0.00       21.0       0.21       0.00       85.8
2:42              238        0.0         86       15.4      424.2       15.4       18.3       13.1     1012.8       16.8       15.4        0.0        0.0        0.6       0.00       21.0       0.21       0.00       85.8
2:44              238        0.0         87       15.4      424.2       15.4       18.3       13.3     1012.8       16.8       15.4        0.0        0.0        0.6       0.00       21.0       0.21       0.00       85.8
2:46              238        0.0         87       15.4      424.2       15.4       18.3       13.2     1012.8       16.8       15.4        0.0        0.0        0.6       0.00       21.0       0.23       0.00       85.8
2:48              238        0.0         87       15.4      424.2       15.4       18.3       13.2     1012.7       16.8       15.4        0.0        0.0        0.6       0.00       21.0       0.23       0.00       85.8
2:50              238        0.0         87       15.4      424.2       15.4       18.3       13.2     1012.7       16.8       15.4        0.0        0.0        0.6       0.00       21.0       0.23       0.00       85.8
2:51              238        0.0         87       15.4      424.2       15.4       18.3       13.2     1012.8       16.8       15.4        0.0        0.0        0.6       0.00       21.0       0.23       0.00       85.8
2:54              238        0.0         87       15.4      424.2       15.4       18.3       13.2     1012.7       16.8       15.3        0.0        0.0        0.6       0.00       21.0       0.23       0.00       85.8
2:56              238        0.0         87       15.3      424.2       15.3       18.2       13.2     1012.7       16.8       15.3        0.0        0.0        0.6       0.00       21.0       0.23       0.00       85.8
2:58              238        0.0         87       15.3      424.2       15.3       18.2       13.2     1012.7       16.8       15.3        0.0        0.0        0.6       0.00       21.0       0.23       0.00       85.8
3:00              238        0.0         87       15.3      424.2       15.3       18.2       13.2     1012.7       16.8       15.3        0.0        0.0        0.6       0.00       21.0       0.23       0.00       85.8
3:01              238        0.0         87       15.3      424.2       15.3       18.2       13.2     1012.8       16.8       15.3        0.0        0.0        0.6       0.00       21.0       0.26       0.00       85.8
3:03              238        0.0         87       15.3      424.2       15.3       18.2       13.1     1012.8       16.8       15.3        0.0        0.0        0.6       0.00       21.0       0.26       0.00       85.8
3:06              238        0.0         87       15.3      424.2       15.3       18.2       13.1     1012.8       16.8       15.3        0.0        0.0        0.6       0.00       21.0       0.26       0.00       85.8
3:08              238        0.0         87       15.3      424.2       15.3       18.2       13.1     1012.8       16.8       15.3        0.0        0.0        0.6       0.00       21.0       0.26       0.00       85.8
3:10              238        0.0         87       15.2      424.2       15.2       18.1       13.1     1012.8       16.8       15.2        0.0        0.0        0.6       0.00       21.0       0.26       0.00       85.8
3:12              238        0.0         88       15.2      424.2       15.2       18.2       13.3     1012.8       16.8       15.2        0.0        0.0        0.6       0.00       21.0       0.26       0.00       85.8
3:14              238        0.0         88       15.2      424.2       15.2       18.2       13.3     1012.8       16.8       15.2        0.0        0.0        0.6       0.00       21.0       0.26       0.00       85.8
3:16              238        0.0         88       15.2      424.2       15.2       18.2       13.3     1012.8       16.8       15.2        0.0        0.0        0.6       0.00       21.0       0.29       0.00       85.8
3:18              238        0.0         88       15.2      424.2       15.2       18.1       13.2     1012.8       16.8       15.2        0.0        0.0        0.6       0.00       21.0       0.29       0.00       85.8
3:20              238        0.0         88       15.2      424.2       15.2       18.1       13.2     1012.8       16.8       15.2        0.0        0.0        0.6       0.00       21.0       0.29       0.00       85.8
3:22              238        0.0         88       15.2      424.2       15.2       18.1       13.2     1012.8       16.8       15.2        0.0        0.0        0.6       0.00       21.0       0.29       0.00       85.8
3:24              238        0.0         88       15.1      424.2       15.1       18.1       13.1     1012.8       16.8       15.1        0.0        0.0        0.6       0.00       21.0       0.29       0.00       85.8
3:26              238        0.0         88       15.1      424.2       15.1       18.1       13.1     1012.8       16.8       15.1        0.0        0.0        0.6       0.00       21.0       0.29       0.00       85.8
3:27              238        0.0         88       15.1      424.2       15.1       18.1       13.1     1012.9       16.8       15.1        0.0        0.0        0.6       0.00       21.0       0.29       0.00       85.8
3:30              238        0.0         88       15.1      424.2       15.1       18.1       13.1     1012.9       16.8       15.1        0.0        0.0        0.6       0.00       21.0       0.29       0.00       85.8
3:32              238        0.0         88       15.1      424.2       15.1       18.1       13.1     1012.9       16.8       15.1        0.0        0.0        0.6       0.00       21.0       0.32       0.00       85.8
3:34              238        0.0         88       15.1      424.2       15.1       18.1       13.1     1012.8       16.8       15.1        0.0        0.0        0.6       0.00       21.0       0.32       0.00       85.8
3:36              238        0.0         88       15.2      424.2       15.2       18.1       13.2     1012.9       16.8       15.1        0.0        0.0        0.6       0.00       21.0       0.32       0.00       85.8
3:38              238        0.0         88       15.2      424.2       15.2       18.1       13.2     1012.8       16.8       15.1        0.0        0.0        0.6       0.00       21.0       0.32       0.00       85.8
3:40              238        0.0         88       15.1      424.2       15.1       18.1       13.1     1012.9       16.8       15.1        0.0        0.0        0.6       0.00       21.0       0.32       0.00       85.8
3:42              238        0.0         88       15.2      424.2       15.2       18.1       13.2     1012.9       16.8       15.1        0.0        0.0        0.6       0.00       21.0       0.32       0.00       85.8
3:44              238        0.0         88       15.2      424.2       15.2       18.1       13.2     1012.8       16.8       15.1        0.0        0.0        0.6       0.00       21.0       0.32       0.00       85.8
3:46              238        0.0         88       15.2      424.2       15.2       18.1       13.2     1012.8       16.8       15.1        0.0        0.0        0.6       0.00       21.0       0.35       0.00       85.8
3:47              238        0.0         89       15.2      424.2       15.2       18.2       13.4     1012.8       16.8       15.1        0.0        0.0        0.6       0.00       21.0       0.35       0.00       85.8
3:50              238        0.0         89       15.2      424.2       15.2       18.2       13.4     1012.9       16.8       15.1        0.0        0.0        0.6       0.00       21.0       0.35       0.00       85.8
3:52              238        0.0         89       15.1      424.2       15.1       18.2       13.3     1012.9       16.8       15.1        0.0        0.0        0.6       0.00       21.0       0.35       0.00       85.8
3:54              238        0.0         89       15.1      424.2       15.1       18.2       13.3     1012.9       16.8       15.1        0.0        0.0        0.6       0.00       21.0       0.35       0.00       85.8
3:56              238        0.0         89       15.1      424.2       15.1       18.2       13.3     1012.9       16.8       15.1        0.0        0.0        0.6       0.00       21.0       0.35       0.00       85.8
3:57              238        0.0         89       15.1      424.2       15.1       18.2       13.3     1012.9       16.8       15.1        0.0        0.0        0.6       0.00       21.0       0.35       0.00       85.8
4:00              238        0.0         89       15.1      424.2       15.1       18.2       13.3     1012.9       16.8       15.1        0.0        0.0        0.6       0.00       21.0       0.35       0.00       85.8
4:02              238        0.0         89       15.1      424.2       15.1       18.2       13.3     1012.8       16.8       15.1        0.0        0.0        0.6       0.00       21.0       0.38       0.00       85.8
4:04              238        0.0         89       15.1      424.2       15.1       18.2       13.3     1012.8       16.8       15.1        0.0        0.0        0.6       0.00       21.0       0.38       0.00       85.8
4:06              238        0.0         89       15.2      424.2       15.2       18.2       13.4     1012.7       16.8       15.1        0.0        0.0        0.6       0.00       21.0       0.38       0.00       85.8
4:08              238        0.0         89       15.2      424.2       15.2       18.2       13.4     1012.7       16.8       15.1        0.0        0.0        0.6       0.00       21.0       0.38       0.00       85.8
4:10              238        0.0         89       15.2      424.2       15.2       18.2       13.4     1012.8       16.8       15.1        0.0        0.0        0.6       0.00       21.0       0.38       0.00       85.8
4:11              238        0.0         89       15.2      424.2       15.2       18.2       13.4     1012.7       16.8       15.1        0.0        0.0        0.6       0.00       21.0       0.38       0.00       85.8
4:14              238        0.0         89       15.1      424.2       15.1       18.2       13.3     1012.8       16.8       15.1        0.0        0.0        0.6       0.00       21.0       0.38       0.00       85.8
4:16              238        0.0         89       15.1      424.2       15.1       18.2       13.3     1012.8       16.8       15.1        0.0        0.0        0.6       0.00       21.0       0.41       0.00       85.8
4:18              238        0.0         89       15.1      424.2       15.1       18.2       13.3     1012.8       16.8       15.1        0.0        0.0        0.6       0.00       21.0       0.41       0.00       85.8
4:20              238        0.0         89       15.1      424.2       15.1       18.2       13.3     1012.9       16.8       15.1        0.0        0.0        0.6       0.00       21.0       0.41       0.00       85.8
4:22              238        0.0         89       15.1      424.2       15.1       18.2       13.3     1012.9       16.8       15.1        0.0        0.0        0.6       0.00       21.0       0.41       0.00       85.8
4:24              238        0.0         89       15.1      424.2       15.1       18.2       13.3     1012.9       16.8       15.1        0.0        0.0        0.6       0.00       21.0       0.41       0.00       85.8
4:26              238        0.0         90       15.1      424.2       15.1       18.2       13.5     1012.9       16.8       15.1        0.0        0.0        0.6       0.00       21.0       0.41       0.00       85.8
4:28              238        0.0         90       15.1      424.2       15.1       18.2       13.5     1013.0       16.8       15.1        0.0        0.0        0.6       0.00       21.0       0.41       0.00       85.8
4:30              238        0.0         90       15.1      424.2       15.1       18.2       13.5     1013.0       16.8       15.1        0.0        0.0        0.6       0.00       21.0       0.41       0.00       85.8
4:31              238        0.0         90       15.1      424.2       15.1       18.2       13.5     1013.0       16.8       15.1        0.0        0.0        0.6       0.00       21.0       0.44       0.00       85.8
4:34              238        0.0         90       15.1      424.2       15.1       18.2       13.4     1013.1       16.8       15.1        0.0        0.0        0.6       0.00       21.0       0.44       0.00       85.8
4:36              238        0.0         90       15.1      424.2       15.1       18.2       13.4     1013.1       16.8       15.1        0.0        0.0        0.6       0.00       21.0       0.44       0.00       85.8
4:37              238        0.0         90       15.1      424.2       15.1       18.2       13.5     1013.1       16.8       15.1        0.0        0.0        0.6       0.00       21.0       0.44       0.00       85.8
4:40              238        0.0         90       15.1      424.2       15.1       18.2       13.4     1013.1       16.8       15.1        0.0        0.0        0.6       0.00       21.0       0.44       0.00       85.8
4:42              238        0.0         90       15.1      424.2       15.1       18.2       13.4     1013.0       16.8       15.1        0.0        0.0        0.6       0.00       21.0       0.44       0.00       85.8
4:44              238        0.0         90       15.1      424.2       15.1       18.2       13.4     1013.0       16.8       15.1        0.0        0.0        0.6       0.00       21.0       0.44       0.00       85.8
4:46              238        0.0         90       15.1      424.2       15.1       18.2       13.4     1013.0       16.8       15.1        0.0        0.0        0.6       0.00       21.0       0.47       0.00       85.8
4:48              238        0.0         90       15.0      424.2       15.0       18.1       13.4     1013.0       16.8       15.0        0.0        0.0        0.6       0.00       21.0       0.47       0.00       85.8
4:49              238        0.0         90       15.0      424.2       15.0       18.1       13.4     1013.1       16.8       15.0        0.0        0.0        0.6       0.00       21.0       0.47       0.00       85.8
4:52              238        0.0         90       15.0      424.2       15.0       18.1       13.4     1013.0       16.8       15.0        0.0        0.0        0.6       0.00       21.0       0.47       0.00       85.8
4:54              238        0.0         90       15.0      424.2       15.0       18.1       13.4     1013.1       16.8       15.0        0.0        0.0        0.6       0.00       21.0       0.47       0.00       85.8
4:56              238        0.0         90       14.9      424.2       14.9       18.1       13.3     1013.2       16.8       14.9        0.0        0.0        0.6       0.00       21.0       0.47       0.00       85.8
4:58              238        0.0         90       14.9      424.2       14.9       18.1       13.3     1013.2       16.8       14.9        0.0        0.0        0.6       0.00       21.0       0.47       0.00       85.8
5:00              238        0.0         90       14.9      424.2       14.9       18.1       13.3     1013.2       16.8       14.9        0.0        0.0        0.6       0.00       21.0       0.47       0.00       85.8
5:02              238        0.0         90       14.9      424.2       14.9       18.1       13.3     1013.1       16.8       14.9        0.0        0.0        0.6       0.00       21.0       0.50       0.00       85.8
5:04              238        0.0         90       14.9      424.2       14.9       18.1       13.3     1013.0       16.8       14.9        0.0        0.0        0.6       0.00       21.0       0.50       0.00       85.8
5:06              238        0.0         90       14.9      424.2       14.9       18.1       13.3     1013.1       16.8       14.9        0.0        0.0        0.6       0.00       21.0       0.50       0.00       85.8
5:07              238        0.0         90       14.9      424.2       14.9       18.1       13.3     1013.0       16.8       14.9        0.0        0.0        0.6       0.00       21.0       0.50       0.00       85.8
5:10              238        0.0         90       14.9      424.2       14.9       18.1       13.3     1013.1       16.8       14.9        0.0        0.0        0.6       0.00       21.0       0.50       0.00       85.8
5:12              238        0.0         90       14.9      424.2       14.9       18.0       13.3     1013.2       16.8       14.9        0.0        0.0        0.6       0.00       21.0       0.50       0.00       85.8
5:14              238        0.0         90       14.9      424.2       14.9       18.0       13.3     1013.2       16.8       14.9        0.0        0.0        0.6       0.00       21.0       0.50       0.00       85.8
5:16              238        0.0         90       14.9      424.2       14.9       18.0       13.3     1013.2       16.8       14.9        0.0        0.0        0.6       0.00       21.0       0.54       0.00       85.8
5:18              238        0.0         90       14.9      424.2       14.9       18.0       13.3     1013.2       16.8       14.8        0.0        0.0        0.6       0.00       21.0       0.54       0.00       85.8
5:20              238        0.0         90       14.9      424.2       14.9       18.0       13.3     1013.3       16.8       14.8        0.0        0.0        0.6       0.00       21.0       0.54       0.00       85.8
5:22              238        0.0         90       14.9      424.2       14.9       18.0       13.3     1013.4       16.8       14.8        0.0        0.0        0.6       0.00       21.0       0.54       0.00       85.8
5:24              238        0.0         90       14.9      424.2       14.9       18.0       13.3     1013.4       16.8       14.8        0.0        0.0        0.6       0.00       21.0       0.54       0.00       85.8
5:26              238        0.0         90       14.8      424.2       14.8       18.0       13.2     1013.3       16.8       14.8        0.0        0.0        0.6       0.00       21.0       0.54       0.00       85.8
5:27              238        0.0         90       14.8      424.2       14.8       18.0       13.2     1013.4       16.8       14.8        0.0        0.0        0.6       0.00       21.0       0.54       0.00       85.8
5:30              238        0.0         90       14.8      424.2       14.8       18.0       13.2     1013.5       16.8       14.8        0.0        0.0        0.6       0.00       21.0       0.54       0.00       85.8
5:32              238        0.0         91       14.8      424.2       14.8       18.0       13.4     1013.4       16.8       14.8        0.0        0.0        0.6       0.00       21.0       0.57       0.00       85.8
5:34              238        0.0         91       14.8      424.2       14.8       18.0       13.3     1013.5       16.8       14.8        0.0        0.0        0.6       0.00       21.0       0.57       0.00       85.8
5:35              238        0.0         91       14.8      424.2       14.8       18.0       13.4     1013.6       16.8       14.8        0.0        0.0        0.6       0.00       21.0       0.57       0.00       85.8
5:38              238        0.0         91       14.8      424.2       14.8       18.0       13.4     1013.6       16.8       14.8        0.0        0.0        0.6       0.00       21.0       0.57       0.00       85.8
5:40              238        0.0         91       14.8      424.2       14.8       18.0       13.3     1013.6       16.8       14.8        0.0        0.0        0.6       0.00       21.0       0.57       0.00       85.8
5:41              238        0.0         91       14.8      424.2       14.8       18.0       13.3     1013.7       16.8       14.8        0.0        0.0        0.6       0.00       21.0       0.57       0.00       85.8
5:44              238        0.0         91       14.8      424.2       14.8       18.0       13.3     1013.7       16.8       14.8        0.0        0.0        0.6       0.00       21.0       0.57       0.00       85.8
5:46              238        0.0         91       14.8      424.2       14.8       18.0       13.4     1013.7       16.8       14.8        0.0        0.0        0.6       0.00       21.0       0.60       0.00       85.8
5:48              238       12.9         91       14.8      424.2       11.8       18.0       13.4     1013.6       16.8       14.8        0.0        0.0        0.6       0.00       21.0       0.60       0.00       85.8
5:50              238        0.0         91       14.8      424.2       14.8       18.0       13.4     1013.6       16.8       14.8        0.0        0.0        0.6       0.00       21.1       0.60       0.00       85.8
5:52              238        0.0         91       14.8      424.2       14.8       18.0       13.4     1013.5       16.8       14.8        0.0        0.0        0.6       0.00       21.1       0.60       0.00       85.8
5:54              238        0.0         91       14.8      424.2       14.8       18.0       13.4     1013.5       16.8       14.8        0.0        0.0        0.6       0.00       21.1       0.60       0.00       85.8
5:56              238        0.0         91       14.8      424.2       14.8       18.0       13.4     1013.5       16.8       14.8        0.0        0.0        0.6       0.00       21.1       0.60       0.00       85.8
5:58              238        0.0         91       14.8      424.2       14.8       18.0       13.3     1013.5       16.8       14.8        0.0        0.0        0.6       0.00       21.1       0.60       0.00       85.8
6:00              238        0.0         91       14.8      424.2       14.8       18.0       13.3     1013.4       16.8       14.8        0.0        0.0        0.6       0.00       21.1       0.60       0.00       85.8
6:02              238        0.0         91       14.7      424.2       14.7       17.9       13.3     1013.5       16.8       14.7        0.0        0.0        0.6       0.00       21.1       0.63       0.00       85.8
6:04              238        0.0         91       14.8      424.2       14.8       18.0       13.3     1013.4       16.8       14.7        0.0        0.0        0.6       0.00       21.1       0.63       0.00       85.8
6:05              238        0.0         91       14.7      424.2       14.7       17.9       13.3     1013.4       16.8       14.7        0.0        0.0        0.6       0.00       21.1       0.63       0.00       85.8
6:08              238        0.0         91       14.7      424.2       14.7       17.9       13.3     1013.3       16.8       14.7        0.0        0.0        0.6       0.00       21.1       0.63       0.00       85.8
6:10              238        0.0         91       14.7      424.2       14.7       17.9       13.3     1013.2       16.8       14.7        0.0        0.0        0.6       0.00       21.1       0.63       0.00       85.8
6:12              238        0.0         91       14.7      424.2       14.7       17.9       13.3     1013.3       16.8       14.7        0.0        0.0        0.6       0.00       21.1       0.63       0.00       85.8
6:13              238        0.0         91       14.8      424.2       14.8       18.0       13.3     1013.2       16.8       14.7        0.0        0.0        0.6       0.00       21.1       0.63       0.00       85.8
6:16              238        0.0         91       14.8      424.2       14.8       18.0       13.3     1013.2       16.8       14.7        0.0        0.0        0.6       0.00       21.1       0.67       0.00       85.8
6:18              238        0.0         91       14.8      424.2       14.8       18.0       13.3     1013.3       16.8       14.7        0.0        0.0        0.6       0.00       21.1       0.67       0.00       85.8
6:20              238        0.0         91       14.8      424.2       14.8       18.0       13.3     1013.4       16.8       14.7        0.0        0.0        0.6       0.00       21.1       0.67       0.00       85.8
6:22              238        0.0         91       14.8      424.2       14.8       18.0       13.3     1013.4       16.8       14.7        0.0        0.0        0.6       0.00       21.1       0.67       0.00       85.8
6:23              238        0.0         91       14.8      424.2       14.8       18.0       13.3     1013.5       16.8       14.7        0.0        0.0        0.6       0.00       21.1       0.67       0.00       85.8
6:26              238        0.0         91       14.8      424.2       14.8       18.0       13.3     1013.5       16.8       14.7        0.0        0.0        0.6       0.00       21.1       0.67       0.00       85.8
6:28              238        0.0         91       14.8      424.2       14.8       18.0       13.3     1013.5       16.8       14.7        0.0        0.0        0.6       0.00       21.1       0.67       0.00       85.8
6:30              238        0.0         91       14.8      424.2       14.8       18.0       13.4     1013.5       16.8       14.7        0.0        0.0        0.6       0.00       21.1       0.67       0.00       85.8
6:31              238        0.0         91       14.9      424.2       14.9       18.1       13.4     1013.6       16.8       14.7        0.0        0.0        0.6       0.00       21.1       0.70       0.00       85.8
6:34              238        0.0         91       14.9      424.2       14.9       18.1       13.4     1013.6       16.8       14.7        0.0        0.0        0.6       0.00       21.1       0.70       0.00       85.8
6:36              238        0.0         91       14.9      424.2       14.9       18.1       13.4     1013.5       16.8       14.7        0.0        0.0        0.6       0.00       21.1       0.70       0.00       85.8
6:38              238        0.0         91       14.9      424.2       14.9       18.2       13.5     1013.5       16.8       14.7        0.0        0.0        0.6       0.00       21.1       0.70       0.00       85.8
6:40              238        0.0         91       14.9      424.2       14.9       18.2       13.5     1013.5       16.8       14.7        0.0        0.0        0.6       0.00       21.1       0.70       0.00       85.8
6:42              238        0.0         91       15.0      424.2       15.0       18.2       13.5     1013.6       16.8       14.7        0.0        0.0        0.6       0.00       21.1       0.70       0.00       85.8
6:44              238        0.0         91       15.0      424.2       15.0       18.2       13.5     1013.7       16.8       14.7        0.0        0.0        0.6       0.00       21.1       0.70       0.00       85.8
6:46              238        0.0         91       15.1      424.2       15.1       18.3       13.6     1013.6       16.8       14.7        0.0        0.0        0.6       0.00       21.1       0.73       0.00       85.8
6:48              238        0.0         91       15.1      424.2       15.1       18.3       13.7     1013.6       16.8       14.7        0.0        0.0        0.6       0.00       21.1       0.73       0.00       85.8
6:50              238        0.0         91       15.1      424.2       15.1       18.3       13.7     1013.6       16.8       14.7        0.0        0.0        0.6       0.00       21.1       0.73       0.00       85.8
6:52              238        0.0         91       15.2      424.2       15.2       18.4       13.7     1013.7       16.8       14.7        0.0        0.0        0.6       0.00       21.1       0.73       0.00       85.8
6:54              238        0.0         91       15.2      424.2       15.2       18.4       13.8     1013.7       16.8       14.7        0.0        0.0        0.6       0.00       21.1       0.73       0.00       85.8
6:55              238        0.0         91       15.3      424.2       15.3       18.5       13.8     1013.7       16.8       14.7        0.0        0.0        0.6       0.00       21.1       0.73       0.00       85.8
6:58              238        0.0         91       15.4      424.2       15.4       18.6       13.9     1013.8       16.8       14.7        0.0        0.0        0.6       0.00       21.1       0.73       0.00       85.8
7:00              238        0.0         91       15.5      424.2       15.5       18.7       14.0     1013.8       16.8       14.7        0.0        0.0        0.6       0.00       21.1       0.73       0.00       85.8
7:02              238        0.0         91       15.6      424.2       15.6       18.8       14.1     1013.9       16.8       14.7        0.0        0.0        0.6       0.00       21.1       0.76       0.00       85.8
7:04              238        0.0         91       15.7      424.2       15.7       18.9       14.3     1013.9       16.8       14.7        0.0        0.0        0.6       0.00       21.1       0.76       0.00       85.8
7:06              238        0.0         91       15.8      424.2       15.8       19.0       14.3     1014.0       16.8       14.7        0.0        0.0        0.6       0.00       21.1       0.76       0.00       85.8
7:07              238        1.6         91       15.9      424.2       15.9       19.1       14.4     1013.9       16.8       14.7        0.0        0.0        0.6       0.00       21.2       0.76       0.00       85.8
7:09              238        0.0         91       15.9      424.2       15.9       19.2       14.5     1014.0       16.8       14.7        0.0        0.0        0.6       0.00       21.2       0.76       0.00       85.8
7:12              238        0.0         90       16.1      424.2       16.1       19.2       14.4     1014.0       16.8       14.7        0.0        0.0        0.6       0.00       21.2       0.76       0.00       85.8
7:14              238        0.0         90       16.1      424.2       16.1       19.2       14.5     1014.1       16.8       14.7        0.0        0.0        0.6       0.00       21.2       0.76       0.00       85.8
7:16              238        0.0         90       16.2      424.2       16.2       19.3       14.5     1014.0       16.8       14.7        0.0        0.0        0.6       0.00       21.2       0.78       0.00       85.8
7:18              238        0.0         90       16.2      424.2       16.2       19.4       14.6     1014.0       16.8       14.7        0.0        0.0        0.6       0.00       21.2       0.78       0.00       85.8
7:20              238        0.0         89       16.3      424.2       16.3       19.3       14.5     1014.0       16.8       14.7        0.0        0.0        0.6       0.00       21.2       0.78       0.00       85.8
7:22              238        0.0         89       16.3      424.2       16.3       19.4       14.5     1014.0       16.8       14.7        0.0        0.0        0.6       0.00       21.2       0.78       0.00       85.8
7:24              238        0.0         89       16.4      424.2       16.4       19.4       14.6     1014.1       16.8       14.7        0.0        0.0        0.6       0.00       21.2       0.78       0.00       85.8
7:26              238        0.0         89       16.4      424.2       16.4       19.4       14.6     1014.2       16.8       14.7        0.0        0.0        0.6       0.00       21.2       0.78       0.00       85.8
7:28              238        0.0         88       16.5      424.2       16.5       19.5       14.5     1014.2       16.8       14.7        0.0        0.0        0.6       0.00       21.2       0.78       0.00       85.8
7:30              238        0.0         88       16.6      424.2       16.6       19.5       14.6     1014.2       16.8       14.7        0.0        0.0        0.6       0.00       21.2       0.78       0.00       85.8
7:32              238        0.0         88       16.6      424.2       16.6       19.6       14.6     1014.3       16.8       14.7        0.0        0.0        0.6       0.00       21.2       0.79       0.00       85.8
7:34              238        8.0         88       16.7      424.2       16.7       19.6       14.7     1014.4       16.8       14.7        0.0        0.0        0.6       0.00       21.3       0.79       0.00       85.8
7:36              238        0.0         88       16.7      424.2       16.7       19.7       14.7     1014.5       16.8       14.7        0.0        0.0        0.6       0.00       21.3       0.79       0.00       85.8
7:38              238        8.0         87       16.7      424.2       15.8       19.6       14.6     1014.6       16.8       14.7        0.0        0.0        0.6       0.00       21.3       0.79       0.00       85.8
7:40              227        9.7         87       16.8      424.2       16.8       19.7       14.6     1014.7       16.8       14.7        0.0        0.0        0.6       0.00       21.5       0.79       0.00       85.8
7:41              207        8.0         87       16.8      424.2       16.8       19.7       14.6     1014.9       16.8       14.7        0.0        0.0        0.6       0.00       21.6       0.79       0.00       85.8
7:44              206        6.4         87       16.8      424.2       16.8       19.7       14.6     1014.8       16.8       14.7        0.0        0.0        0.6       0.00       21.8       0.79       0.00       85.8
7:45              178        4.8         87       16.8      424.2       16.8       19.7       14.6     1014.8       16.8       14.7        0.0        0.0        0.6       0.00       22.0       0.81       0.00       85.8
7:47              172        9.7         87       16.8      424.2       16.8       19.7       14.6     1014.8       16.8       14.7        0.0        0.0        0.6       0.00       22.1       0.81       0.00       85.8
7:50              163        8.0         87       16.8      424.2       16.8       19.7       14.6     1014.9       16.8       14.7        0.0        0.0        0.6       0.00       22.2       0.81       0.00       85.8
7:51              157        1.6         86       16.8      424.2       16.8       19.6       14.4     1014.9       16.8       14.7        0.0        0.0        0.6       0.00       22.3       0.81       0.00       85.8
7:54              157        0.0         86       16.8      424.2       16.8       19.6       14.4     1014.9       16.8       14.7        0.0        0.0        0.6       0.00       22.3       0.81       0.00       85.8
7:56              157        0.0         86       16.8      424.2       16.8       19.6       14.4     1014.8       16.8       14.7        0.0        0.0        0.6       0.00       22.3       0.81       0.00       85.8
7:58              157        0.0         86       16.8      424.2       16.8       19.6       14.5     1014.8       16.8       14.7        0.0        0.0        0.6       0.00       22.3       0.81       0.00       85.8
8:00              157        0.0         86       16.8      424.2       16.8       19.6       14.5     1014.6       16.8       14.7        0.0        0.0        0.6       0.00       22.3       0.81       0.00       85.8
8:02              157        0.0         86       16.8      424.2       16.8       19.6       14.5     1014.7       16.8       14.7        0.0        0.0        0.6       0.00       22.3       0.82       0.00       85.8
8:03              156        4.8         86       16.9      424.2       16.9       19.7       14.5     1014.8       16.9       14.7        0.0        0.0        0.6       0.00       22.4       0.82       0.00       85.8
8:05              156        0.0         86       16.9      424.2       16.9       19.7       14.5     1014.8       16.9       14.7        0.0        0.0        0.6       0.00       22.4       0.82       0.00       85.8
8:07              156        0.0         86       16.9      424.2       16.9       19.8       14.6     1014.8       16.9       14.7        0.0        0.0        0.6       0.00       22.4       0.82       0.00       85.8
8:10              156        0.0         86       16.9      424.2       16.9       19.8       14.6     1014.8       16.9       14.7        0.0        0.0        0.6       0.00       22.4       0.82       0.00       85.8
8:12              156        4.8         86       17.1      424.2       17.1       19.9       14.7     1014.7       17.1       14.7        0.0        0.0        0.6       0.00       22.4       0.82       0.00       85.8
8:14              155        6.4         86       17.1      424.2       17.1       19.9       14.7     1014.8       17.1       14.7        0.0        0.0        0.6       0.00       22.5       0.82       0.00       85.8
8:16              155        0.0         85       17.1      424.2       17.1       19.8       14.6     1014.7       17.1       14.7        0.0        0.0        0.6       0.00       22.6       0.83       0.00       85.8
8:17              155        0.0         85       17.2      424.2       17.2       19.9       14.6     1014.6       17.2       14.7        0.0        0.0        0.6       0.00       22.6       0.83       0.00       85.8
8:19              155        3.2         85       17.2      424.2       17.2       20.0       14.7     1014.7       17.2       14.7        0.0        0.0        0.6       0.00       22.6       0.83       0.00       85.8
8:22              155        3.2         85       17.2      424.2       17.2       20.0       14.7     1014.7       17.2       14.7        0.0        0.0        0.6       0.00       22.7       0.83       0.00       85.8
8:24              155        0.0         85       17.3      424.2       17.3       20.0       14.7     1014.7       17.3       14.7        0.0        0.0        0.6       0.00       22.7       0.83       0.00       85.8
8:26              155        0.0         85       17.3      424.2       17.3       20.0       14.7     1014.6       17.3       14.7        0.0        0.0        0.6       0.00       22.7       0.83       0.00       85.8
8:28              155        0.0         85       17.3      424.2       17.3       20.1       14.8     1014.7       17.3       14.7        0.0        0.0        0.6       0.00       22.7       0.83       0.00       85.8
8:30              155        0.0         84       17.4      424.2       17.4       20.0       14.7     1014.5       17.4       14.7        0.0        0.0        0.6       0.00       22.7       0.83       0.00       85.8
8:31              155        0.0         84       17.3      424.2       17.3       20.0       14.6     1014.5       17.4       14.7        0.0        0.0        0.6       0.00       22.7       0.83       0.00       85.8
8:34              155        0.0         84       17.3      424.2       17.3       20.0       14.6     1014.5       17.4       14.7        0.0        0.0        0.6       0.00       22.7       0.83       0.00       85.8
8:35              155        0.0         84       17.3      424.2       17.3       20.0       14.6     1014.3       17.4       14.7        0.0        0.0        0.6       0.00       22.7       0.83       0.00       85.8
8:38              155        0.0         84       17.3      424.2       17.3       20.0       14.6     1014.3       17.4       14.7        0.0        0.0        0.6       0.00       22.7       0.83       0.00       85.8
8:40              155        0.0         84       17.3      424.2       17.3       20.0       14.6     1014.3       17.4       14.7        0.0        0.0        0.6       0.00       22.7       0.83       0.00       85.8
8:42              155        0.0         85       17.4      424.2       17.4       20.1       14.8     1014.3       17.4       14.7        0.0        0.0        0.6       0.00       22.7       0.83       0.00       85.8
8:44              155        0.0         85       17.4      424.2       17.4       20.2       14.9     1014.3       17.4       14.7        0.0        0.0        0.6       0.00       22.7       0.83       0.00       85.8
8:46              155        0.0         84       17.5      424.2       17.5       20.2       14.8     1014.2       17.5       14.7        0.0        0.0        0.6       0.00       22.7       0.84       0.00       85.8
8:48              155        0.0         84       17.5      424.2       17.5       20.2       14.8     1014.0       17.5       14.7        0.0        0.0        0.6       0.00       22.8       0.84       0.00       85.8
8:50              155        0.0         84       17.6      424.2       17.6       20.2       14.8     1013.9       17.6       14.7        0.0        0.0        0.6       0.00       22.8       0.84       0.00       85.8
8:52              155        0.0         84       17.6      424.2       17.6       20.2       14.8     1014.0       17.6       14.7        0.0        0.0        0.6       0.00       22.8       0.84       0.00       85.8
8:54              155        0.0         84       17.6      424.2       17.6       20.3       14.9     1014.1       17.6       14.7        0.0        0.0        0.6       0.00       22.9       0.84       0.00       85.8
8:56              155        0.0         84       17.6      424.2       17.6       20.3       14.9     1014.2       17.6       14.7        0.0        0.0        0.6       0.00       22.9       0.84       0.00       85.8
8:58              155        0.0         84       17.7      424.2       17.7       20.3       14.9     1014.2       17.7       14.7        0.0        0.0        0.6       0.00       22.9       0.84       0.00       85.8
9:00              155        0.0         84       17.7      424.2       17.7       20.4       15.0     1014.2       17.7       14.7        0.0        0.0        0.6       0.00       22.9       0.84       0.00       85.8
9:02              155        0.0         84       17.8      424.2       17.8       20.4       15.0     1014.1       17.8       14.7        0.0        0.0        0.6       0.00       22.9       0.84       0.00       85.8
9:03              155        9.7         84       17.8      424.2       17.8       20.5       15.1     1014.2       17.8       14.7        0.0        0.0        0.6       0.00       23.0       0.84       0.00       85.8
9:06              156        9.7         83       17.9      424.2       16.5       20.5       15.0     1014.1       17.9       14.7        0.0        0.0        0.6       0.00       23.2       0.84       0.00       85.8
9:08              156        1.6         83       17.9      424.2       17.9       20.5       15.0     1014.2       17.9       14.7        0.0        0.0        0.6       0.00       23.4       0.84       0.00       85.8
9:09              156        4.8         83       17.9      424.2       17.9       20.5       15.0     1014.3       17.9       14.7        0.0        0.0        0.6       0.00       23.5       0.84       0.00       85.8
9:12              156        8.0         84       18.1      424.2       17.2       20.7       15.3     1014.4       18.1       14.7        0.0        0.0        0.6       0.00       23.6       0.84       0.00       85.8
9:14              156        0.0         84       18.2      424.2       18.2       20.9       15.5     1014.5       18.2       14.7        0.0        0.0        0.6       0.00       23.7       0.84       0.00       85.8
9:15              156        8.0         83       18.3      424.2       18.3       20.9       15.4     1014.5       18.3       14.7        0.0        0.0        0.6       0.00       23.8       0.84       0.00       85.8
9:18              156        3.2         83       18.5      424.2       18.5       21.1       15.6     1014.6       18.5       14.7        0.0        0.0        0.6       0.00       24.0       0.84       0.00       85.8
9:20              156        0.0         82       18.6      424.2       18.6       21.1       15.4     1014.6       18.6       14.7        0.0        0.0        0.6       0.00       24.0       0.84       0.00       85.8
9:22              156        4.8         82       18.6      424.2       18.6       21.1       15.5     1014.4       18.6       14.7        0.0        0.0        0.6       0.00       24.1       0.84       0.00       85.8
9:24              156       11.3         81       18.7      424.2       16.8       21.1       15.3     1014.5       18.7       14.7        0.0        0.0        0.6       0.00       24.2       0.84       0.00       85.8
9:26              156        8.0         81       18.7      424.2       18.7       21.1       15.3     1014.6       18.7       14.7        0.0        0.0        0.6       0.00       24.5       0.84       0.00       85.8
9:28              156       12.9         80       18.7      424.2       18.7       21.0       15.2     1014.7       18.7       14.7        0.0        0.0        0.6       0.00       24.8       0.84       0.00       85.8
9:30              156       17.7         80       18.7      424.2       15.0       21.1       15.2     1014.8       18.7       14.7        0.0        0.0        0.6       0.00       25.0       0.84       0.00       85.8
9:32              156        0.0         80       18.7      424.2       18.7       21.1       15.2     1014.8       18.7       14.7        0.0        0.0        0.6       0.00       25.1       0.84       0.00       85.8
9:33              156        0.0         80       18.8      424.2       18.8       21.1       15.3     1014.8       18.8       14.7        0.0        0.0        0.6       0.00       25.1       0.84       0.00       85.8
9:36              156        9.7         80       18.8      424.2       18.8       21.2       15.3     1014.7       18.8       14.7        0.0        0.0        0.6       0.00       25.1       0.84       0.00       85.8
9:38              156        0.0         80       18.9      424.2       18.9       21.2       15.4     1014.6       18.9       14.7        0.0        0.0        0.6       0.00       25.1       0.84       0.00       85.8
9:40              156       14.5         80       18.9      424.2       17.1       21.3       15.4     1014.7       18.9       14.7        0.0        0.0        0.6       0.00       25.3       0.84       0.00       85.8
9:42              156       12.9         80       19.1      424.2       19.1       21.4       15.5     1014.7       19.1       14.7        0.0        0.0        0.6       0.00       25.5       0.84       0.00       85.8
9:44              156       11.3         80       19.1      424.2       18.4       21.5       15.6     1014.7       19.1       14.7        0.0        0.0        0.6       0.00       25.7       0.84       0.00       85.8
9:46              154       12.9         79       19.2      424.2       18.0       21.5       15.5     1014.6       19.2       14.7        0.0        0.0        0.6       0.00       26.0       0.84       0.00       85.8
9:48              154        9.7         79       19.3      424.2       19.3       21.6       15.6     1014.6       19.3       14.7        0.0        0.0        0.6       0.00       26.2       0.84       0.00       85.8
9:50              154        4.8         79       19.4      424.2       19.4       21.7       15.7     1014.6       19.4       14.7        0.0        0.0        0.6       0.00       26.3       0.84       0.00       85.8
9:52              154        0.0         78       19.4      424.2       19.4       21.6       15.5     1014.7       19.4       14.7        0.0        0.0        0.6       0.00       26.4       0.84       0.00       85.8
9:54              153        8.0         78       19.5      424.2       18.8       21.7       15.6     1014.7       19.6       14.7        0.0        0.0        0.6       0.00       26.4       0.84       0.00       85.8
9:56              153        0.0         77       19.6      424.2       19.6       21.7       15.4     1014.8       19.6       14.7        0.0        0.0        0.6       0.00       26.5       0.84       0.00       85.8
9:58              153        6.4         77       19.6      424.2       19.6       21.7       15.5     1014.8       19.6       14.7        0.0        0.0        0.6       0.00       26.7       0.84       0.00       85.8
10:00             153        8.0         77       19.6      424.2       19.6       21.7       15.5     1014.8       19.6       14.7        0.0        0.0        0.6       0.00       26.8       0.84       0.00       85.8
10:02             153        0.0         76       19.6      424.2       19.6       21.7       15.3     1014.8       19.6       14.7        0.0        0.0        0.6       0.00       26.8       0.84       0.00       85.8
10:04             153       20.9         77       19.7      424.2       17.9       21.8       15.5     1014.7       19.7       14.7        0.0        0.0        0.6       0.00       27.0       0.84       0.00       85.8
10:06             153        0.0         76       19.7      424.2       19.7       21.7       15.3     1014.7       19.7       14.7        0.0        0.0        0.6       0.00       27.2       0.84       0.00       85.8
10:08             153        3.2         76       19.7      424.2       19.7       21.7       15.3     1014.7       19.7       14.7        0.0        0.0        0.6       0.00       27.4       0.84       0.00       85.8
10:10             153        3.2         76       19.7      424.2       19.7       21.8       15.4     1014.7       19.7       14.7        0.0        0.0        0.6       0.00       27.5       0.84       0.00       85.8
10:11             153        0.0         77       19.7      424.2       19.7       21.9       15.6     1014.8       19.7       14.7        0.0        0.0        0.6       0.00       27.5       0.84       0.00       85.8
10:14             153       14.5         77       19.8      424.2       19.1       21.9       15.6     1014.7       19.8       14.7        0.0        0.0        0.6       0.00       27.6       0.84       0.00       85.8
10:16             153        4.8         76       19.7      424.2       19.7       21.8       15.4     1014.7       19.8       14.7        0.0        0.0        0.6       0.00       27.7       0.84       0.00       85.8
10:18             153        3.2         76       19.8      424.2       19.8       21.8       15.4     1014.6       19.8       14.7        0.0        0.0        0.6       0.00       27.9       0.84       0.00       85.8
10:20             153        6.4         76       19.8      424.2       19.8       21.8       15.4     1014.6       19.8       14.7        0.0        0.0        0.6       0.00       27.9       0.84       0.00       85.8
10:22             153       17.7         76       19.8      424.2       19.1       21.9       15.5     1014.6       19.8       14.7        0.0        0.0        0.6       0.00       28.3       0.84       0.00       85.8
10:24             153        4.8         76       19.8      424.2       19.8       21.9       15.5     1014.5       19.8       14.7        0.0        0.0        0.6       0.00       28.5       0.84       0.00       85.8
10:26             153        0.0         76       19.8      424.2       19.8       21.9       15.5     1014.5       19.8       14.7        0.0        0.0        0.6       0.00       28.5       0.84       0.00       85.8
10:28             153        0.0         76       19.8      424.2       19.8       21.8       15.4     1014.5       19.8       14.7        0.0        0.0        0.6       0.00       28.5       0.84       0.00       85.8
10:30             153        0.0         76       19.8      424.2       19.8       21.9       15.5     1014.4       19.8       14.7        0.0        0.0        0.6       0.00       28.5       0.84       0.00       85.8
10:32             153        0.0         76       19.9      424.2       19.9       21.9       15.5     1014.4       19.9       14.7        0.0        0.0        0.6       0.00       28.5       0.84       0.00       85.8
10:34             153       11.3         75       19.9      424.2       19.9       21.9       15.4     1014.4       19.9       14.7        0.0        0.0        0.6       0.00       28.6       0.84       0.00       85.8
10:36             153       11.3         75       20.1      424.2       20.1       22.0       15.5     1014.4       20.1       14.7        0.0        0.0        0.6       0.00       28.8       0.84       0.00       85.8
10:38             153        0.0         75       20.1      424.2       20.1       22.1       15.5     1014.3       20.1       14.7        0.0        0.0        0.6       0.00       28.8       0.84       0.00       85.8
10:40             153        8.0         75       20.1      424.2       20.1       22.1       15.5     1014.3       20.1       14.7        0.0        0.0        0.6       0.00       28.9       0.84       0.00       85.8
10:42             153        0.0         76       20.2      424.2       20.2       22.3       15.9     1014.3       20.2       14.7        0.0        0.0        0.6       0.00       29.0       0.84       0.00       85.8
10:43             153       11.3         75       20.3      424.2       20.3       22.3       15.8     1014.3       20.3       14.7        0.0        0.0        0.6       0.00       29.1       0.84       0.00       85.8
10:46             153        0.0         76       20.4      424.2       20.4       22.4       16.0     1014.2       20.4       14.7        0.0        0.0        0.6       0.00       29.2       0.84       0.00       85.8
10:48             153        0.0         75       20.5      424.2       20.5       22.5       15.9     1014.3       20.5       14.7        0.0        0.0        0.6       0.00       29.3       0.84       0.00       85.8
10:49             153       11.3         74       20.6      424.2       20.6       22.5       15.8     1014.3       20.6       14.7        0.0        0.0        0.6       0.00       29.5       0.84       0.00       85.8
10:52             153        8.0         74       20.6      424.2       20.6       22.5       15.8     1014.3       20.6       14.7        0.0        0.0        0.6       0.00       29.6       0.84       0.00       85.8
10:53             153        0.0         74       20.6      424.2       20.6       22.5       15.8     1014.2       20.6       14.7        0.0        0.0        0.6       0.00       29.7       0.84       0.00       85.8
10:56             153        0.0         73       20.7      424.2       20.7       22.5       15.7     1014.3       20.7       14.7        0.0        0.0        0.6       0.00       29.7       0.84       0.00       85.8
10:58             153        8.0         73       20.7      424.2       20.7       22.5       15.7     1014.3       20.7       14.7        0.0        0.0        0.6       0.00       29.7       0.84       0.00       85.8
11:00             153        8.0         73       20.7      424.2       20.7       22.5       15.7     1014.3       20.7       14.7        0.0        0.0        0.6       0.00       29.9       0.84       0.00       85.8
11:02             153        0.0         73       20.6      424.2       20.6       22.4       15.6     1014.1       20.7       14.7        0.0        0.0        0.6       0.00       29.9       0.84       0.00       85.8
11:04             153        0.0         74       20.6      424.2       20.6       22.5       15.8     1014.0       20.7       14.7        0.0        0.0        0.6       0.00       29.9       0.84       0.00       85.8
11:06             153        0.0         74       20.6      424.2       20.6       22.5       15.8     1014.0       20.7       14.7        0.0        0.0        0.6       0.00       29.9       0.84       0.00       85.8
11:08             153        6.4         74       20.6      424.2       20.6       22.5       15.8     1014.0       20.7       14.7        0.0        0.0        0.6       0.00       30.0       0.84       0.00       85.8
11:10             153        0.0         74       20.6      424.2       20.6       22.5       15.8     1013.9       20.7       14.7        0.0        0.0        0.6       0.00       30.1       0.84       0.00       85.8
11:12             153        8.0         75       20.7      424.2       20.0       22.7       16.1     1014.0       20.7       14.7        0.0        0.0        0.6       0.00       30.2       0.84       0.00       85.8
11:14             153        4.8         74       20.6      424.2       20.6       22.5       15.8     1014.1       20.7       14.7        0.0        0.0        0.6       0.00       30.3       0.84       0.00       85.8
11:16             153        6.4         74       20.7      424.2       20.7       22.6       15.9     1014.0       20.7       14.7        0.0        0.0        0.6       0.00       30.5       0.84       0.00       85.8
11:18             153        0.0         75       20.7      424.2       20.7       22.7       16.1     1014.0       20.7       14.7        0.0        0.0        0.6       0.00       30.5       0.84       0.00       85.8
11:20             153        8.0         74       20.8      424.2       20.2       22.7       16.0     1014.0       20.8       14.7        0.0        0.0        0.6       0.00       30.6       0.84       0.00       85.8
11:22             153        3.2         74       20.9      424.2       20.9       22.8       16.1     1014.0       20.9       14.7        0.0        0.0        0.6       0.00       30.7       0.84       0.00       85.8
11:24             153       11.3         74       20.9      424.2       20.9       22.9       16.1     1014.0       20.9       14.7        0.0        0.0        0.6       0.00       30.9       0.84       0.00       85.8
11:25             153        6.4         73       20.9      424.2       20.9       22.7       15.9     1014.0       20.9       14.7        0.0        0.0        0.6       0.00       31.0       0.84       0.00       85.8
11:28             153        0.0         73       20.8      424.2       20.8       22.6       15.8     1014.0       20.9       14.7        0.0        0.0        0.6       0.00       31.1       0.84       0.00       85.8
11:30             153        3.2         73       20.8      424.2       20.8       22.7       15.8     1014.0       20.9       14.7        0.0        0.0        0.6       0.00       31.2       0.84       0.00       85.8
11:32             153       16.1         73       20.8      424.2       19.3       22.7       15.8     1013.9       20.9       14.7        0.0        0.0        0.6       0.00       31.3       0.84       0.00       85.8
11:33             154        9.7         73       20.8      424.2       19.7       22.7       15.8     1013.9       20.9       14.7        0.0        0.0        0.6       0.00       31.5       0.84       0.00       85.8
11:36             154        0.0         73       20.8      424.2       20.8       22.7       15.8     1013.8       20.9       14.7        0.0        0.0        0.6       0.00       31.6       0.84       0.00       85.8
11:38             154        3.2         73       20.8      424.2       20.8       22.7       15.8     1013.8       20.9       14.7        0.0        0.0        0.6       0.00       31.6       0.84       0.00       85.8
11:40             154        0.0         73       20.8      424.2       20.8       22.7       15.8     1014.0       20.9       14.7        0.0        0.0        0.6       0.00       31.6       0.84       0.00       85.8
11:42             154        0.0         74       20.9      424.2       20.9       22.9       16.1     1014.0       20.9       14.7        0.0        0.0        0.6       0.00       31.6       0.84       0.00       85.8
11:43             154        0.0         73       21.1      424.2       21.1       23.0       16.1     1013.9       21.1       14.7        0.0        0.0        0.6       0.00       31.6       0.84       0.00       85.8
11:45             154        0.0         73       21.3      424.2       21.3       23.1       16.2     1014.0       21.3       14.7        0.0        0.0        0.6       0.00       31.6       0.84       0.00       85.8
11:48             154        9.7         73       21.4      424.2       20.4       23.3       16.4     1014.0       21.4       14.7        0.0        0.0        0.6       0.00       31.6       0.84       0.00       85.8
11:50             152        8.0         72       21.7      424.2       21.7       23.4       16.4     1013.9       21.7       14.7        0.0        0.0        0.6       0.00       31.8       0.84       0.00       85.8
11:52             124        8.0         71       21.9      424.2       21.9       23.6       16.4     1014.0       21.9       14.7        0.0        0.0        0.6       0.00       32.0       0.84       0.00       85.8
11:54             129       12.9         71       22.0      424.2       20.6       23.7       16.5     1013.9       22.0       14.7        0.0        0.0        0.6       0.00       32.3       0.84       0.00       85.8
11:56             129        0.0         71       22.2      424.2       22.2       23.9       16.7     1013.9       22.2       14.7        0.0        0.0        0.6       0.00       32.4       0.84       0.00       85.8
11:57             129       11.3         71       22.3      424.2       22.3       24.0       16.8     1013.8       22.3       14.7        0.0        0.0        0.6       0.00       32.6       0.84       0.00       85.8
12:00             129        6.4         70       22.4      424.2       22.4       24.0       16.7     1013.8       22.4       14.7        0.0        0.0        0.6       0.00       32.8       0.84       0.00       85.8
12:02             130        8.0         70       22.5      424.2       21.9       24.1       16.8     1013.8       22.5       14.7        0.0        0.0        0.6       0.00       33.0       0.84       0.00       85.8
12:04             130        8.0         70       22.6      424.2       22.6       24.3       16.9     1013.8       22.6       14.7        0.0        0.0        0.6       0.00       33.2       0.84       0.00       85.8
12:06             130        6.4         69       22.7      424.2       22.7       24.3       16.7     1013.7       22.7       14.7        0.0        0.0        0.6       0.00       33.3       0.84       0.00       85.8
12:08             130       12.9         69       22.8      424.2       22.8       24.4       16.9     1013.8       22.8       14.7        0.0        0.0        0.6       0.00       33.4       0.84       0.00       85.8
12:10             130        6.4         69       22.9      424.2       22.9       24.5       17.0     1013.7       22.9       14.7        0.0        0.0        0.6       0.00       33.5       0.84       0.00       85.8
12:12             130        4.8         68       23.1      424.2       23.1       24.6       16.8     1013.7       23.1       14.7        0.0        0.0        0.6       0.00       33.7       0.84       0.00       85.8
12:14             128       14.5         68       23.1      424.2       23.1       24.6       16.9     1013.7       23.1       14.7        0.0        0.0        0.6       0.00       33.7       0.84       0.00       85.8
12:16             124        6.4         68       23.3      424.2       23.3       24.8       17.0     1013.7       23.3       14.7        0.0        0.0        0.6       0.00       33.9       0.84       0.02       85.8
12:17             124       11.3         67       23.4      424.2       23.4       24.8       16.9     1013.7       23.4       14.7        0.0        0.0        0.6       0.00       34.0       0.84       0.02       85.8
12:20             125       14.5         67       23.6      424.2       21.6       25.0       17.1     1013.7       23.6       14.7        0.0        0.0        0.6       0.00       34.2       0.84       0.02       85.8
12:22             120       12.9         66       23.7      424.2       23.2       25.1       17.0     1013.6       23.7       14.7        0.0        0.0        0.6       0.00       34.4       0.84       0.02       85.8
12:23             116       11.3         65       23.8      424.2       23.0       25.1       16.9     1013.7       23.8       14.7        0.0        0.0        0.6       0.00       34.6       0.84       0.02       85.8
12:26             116        1.6         65       23.9      424.2       23.9       25.3       17.0     1013.8       23.9       14.7        0.0        0.0        0.6       0.00       34.8       0.84       0.02       85.8
12:28             116        4.8         64       24.0      424.2       24.0       25.3       16.8     1013.7       24.0       14.7        0.0        0.0        0.6       0.00       34.9       0.84       0.02       85.8
12:30             115        9.7         64       24.0      424.2       24.0       25.3       16.8     1013.8       24.0       14.7        0.0        0.0        0.6       0.00       35.1       0.84       0.02       85.8
12:32             115        1.6         64       24.1      424.2       24.1       25.3       16.8     1013.8       24.1       14.7        0.0        0.0        0.6       0.00       35.2       0.84       0.04       85.8
12:34             120       14.5         64       24.1      424.2       22.9       25.3       16.8     1013.7       24.1       14.7        0.0        0.0        0.6       0.00       35.4       0.84       0.04       85.8
12:36             120        4.8         64       24.0      424.2       24.0       25.3       16.8     1013.7       24.1       14.7        0.0        0.0        0.6       0.00       35.5       0.84       0.04       85.8
12:38             120       12.9         64       24.0      424.2       22.5       25.3       16.8     1013.6       24.1       14.7        0.0        0.0        0.6       0.00       35.7       0.84       0.04       85.8
12:40             145       12.9         64       24.0      424.2       22.5       25.3       16.8     1013.7       24.1       14.7        0.0        0.0        0.6       0.00       36.0       0.84       0.04       85.8
12:42             155        9.7         64       23.9      424.2       23.9       25.2       16.7     1013.7       24.1       14.7        0.0        0.0        0.6       0.00       36.3       0.84       0.04       85.8
12:44             149        4.8         64       23.9      424.2       23.9       25.1       16.7     1013.7       24.1       14.7        0.0        0.0        0.6       0.00       36.5       0.84       0.04       85.8
12:46             153       17.7         64       23.8      424.2       22.3       25.1       16.6     1013.7       24.1       14.7        0.0        0.0        0.6       0.00       36.8       0.84       0.06       85.8
12:48             145        9.7         64       23.8      424.2       23.8       25.0       16.6     1013.7       24.1       14.7        0.0        0.0        0.6       0.00       37.0       0.84       0.06       85.8
12:50             148       12.9         64       23.7      424.2       23.7       25.0       16.5     1013.7       24.1       14.7        0.0        0.0        0.6       0.00       37.2       0.84       0.06       85.8
12:52             154       14.5         64       23.7      424.2       22.5       25.0       16.5     1013.7       24.1       14.7        0.0        0.0        0.6       0.00       37.4       0.84       0.06       85.8
12:54             142        4.8         64       23.7      424.2       23.7       25.0       16.5     1013.6       24.1       14.7        0.0        0.0        0.6       0.00       37.7       0.84       0.06       85.8
12:56             133       12.9         64       23.7      424.2       22.5       25.0       16.5     1013.7       24.1       14.7        0.0        0.0        0.6       0.00       38.0       0.84       0.06       85.8
12:58             136        8.0         64       23.7      424.2       23.7       25.0       16.5     1013.7       24.1       14.7        0.0        0.0        0.6       0.00       38.2       0.84       0.06       85.8
13:00             142        9.7         64       23.8      424.2       23.8       25.0       16.6     1013.7       24.1       14.7        0.0        0.0        0.6       0.00       38.5       0.84       0.06       85.8
13:01             148       12.9         64       23.8      424.2       23.0       25.1       16.6     1013.6       24.1       14.7        0.0        0.0        0.6       0.00       38.8       0.84       0.07       85.8
13:04             148       16.1         63       23.9      424.2       21.8       25.1       16.5     1013.7       24.1       14.7        0.0        0.0        0.6       0.00       39.1       0.84       0.07       85.8
13:06             152       14.5         62       24.0      424.2       24.0       25.1       16.3     1013.6       24.1       14.7        0.0        0.0        0.6       0.00       39.4       0.84       0.07       85.8
13:08             153        4.8         62       24.1      424.2       24.1       25.2       16.3     1013.5       24.1       14.7        0.0        0.0        0.6       0.00       39.6       0.84       0.07       85.8
13:10             171       17.7         63       24.1      424.2       22.3       25.3       16.6     1013.6       24.1       14.7        0.0        0.0        0.6       0.00       39.9       0.84       0.07       85.8
13:12             175        9.7         64       24.1      424.2       24.1       25.4       16.9     1013.6       24.1       14.7        0.0        0.0        0.6       0.00       40.2       0.84       0.07       85.8
13:14             182       16.1         64       24.1      424.2       22.0       25.4       16.9     1013.6       24.2       14.7        0.0        0.0        0.6       0.00       40.6       0.84       0.07       85.8
13:16             183       12.9         64       24.1      424.2       22.6       25.4       16.9     1013.6       24.2       14.7        0.0        0.0        0.6       0.00       41.0       0.84       0.10       85.8
13:18             192       12.9         64       24.0      424.2       23.2       25.3       16.8     1013.7       24.2       14.7        0.0        0.0        0.6       0.00       41.4       0.84       0.10       85.8
13:20             179       11.3         64       23.9      424.2       22.8       25.2       16.7     1013.6       24.2       14.7        0.0        0.0        0.6       0.00       41.7       0.84       0.10       85.8
13:22             178        9.7         65       23.9      424.2       23.9       25.2       16.9     1013.6       24.2       14.7        0.0        0.0        0.6       0.00       41.9       0.84       0.10       85.8
13:24             200       11.3         65       23.9      424.2       23.4       25.2       16.9     1013.6       24.2       14.7        0.0        0.0        0.6       0.00       42.2       0.84       0.10       85.8
13:26             194        6.4         66       23.8      424.2       23.8       25.2       17.1     1013.6       24.2       14.7        0.0        0.0        0.6       0.00       42.5       0.84       0.10       85.8
13:28             196       11.3         66       23.8      424.2       23.0       25.2       17.1     1013.6       24.2       14.7        0.0        0.0        0.6       0.00       42.8       0.84       0.10       85.8
13:30             198        3.2         65       23.8      424.2       23.8       25.1       16.8     1013.6       24.2       14.7        0.0        0.0        0.6       0.00       43.0       0.84       0.10       85.8
13:32             198       11.3         66       23.7      424.2       23.7       25.1       17.0     1013.6       24.2       14.7        0.0        0.0        0.6       0.00       43.2       0.84       0.12       85.8
13:34             198        9.7         66       23.7      424.2       23.7       25.1       17.0     1013.5       24.2       14.7        0.0        0.0        0.6       0.00       43.4       0.84       0.12       85.8
13:36             192        9.7         66       23.7      424.2       22.8       25.0       16.9     1013.5       24.2       14.7        0.0        0.0        0.6       0.00       43.7       0.84       0.12       85.8
13:38             189       11.3         67       23.7      424.2       22.5       25.1       17.2     1013.4       24.2       14.7        0.0        0.0        0.6       0.00       44.0       0.84       0.12       85.8
13:39             189        6.4         66       23.7      424.2       23.7       25.0       16.9     1013.5       24.2       14.7        0.0        0.0        0.6       0.00       44.1       0.84       0.12       85.8
13:42             188        4.8         66       23.7      424.2       23.7       25.1       17.0     1013.3       24.2       14.7        0.0        0.0        0.6       0.00       44.3       0.84       0.12       85.8
13:44             180       16.1         66       23.7      424.2       22.5       25.1       17.0     1013.4       24.2       14.7        0.0        0.0        0.6       0.00       44.6       0.84       0.12       85.8
13:45             171       20.9         66       23.8      424.2       22.2       25.2       17.1     1013.5       24.2       14.7        0.0        0.0        0.6       0.00       45.0       0.84       0.13       85.8
13:48             180       16.1         66       23.8      424.2       22.7       25.2       17.1     1013.4       24.2       14.7        0.0        0.0        0.6       0.00       45.3       0.84       0.13       85.8
13:50             194       12.9         66       23.8      424.2       23.3       25.2       17.1     1013.4       24.2       14.7        0.0        0.0        0.6       0.00       45.7       0.84       0.13       85.8
13:52             195        8.0         66       23.8      424.2       23.3       25.2       17.1     1013.2       24.2       14.7        0.0        0.0        0.6       0.00       46.0       0.84       0.13       85.8
13:54             178       20.9         67       23.7      424.2       22.9       25.2       17.2     1013.2       24.2       14.7        0.0        0.0        0.6       0.00       46.4       0.84       0.13       85.8
13:56             178       12.9         67       23.8      424.2       23.8       25.2       17.3     1013.1       24.2       14.7        0.0        0.0        0.6       0.00       46.7       0.84       0.13       85.8
13:58             173       16.1         67       23.8      424.2       22.0       25.3       17.3     1013.1       24.2       14.7        0.0        0.0        0.6       0.00       47.0       0.84       0.13       85.8
14:00             176       16.1         66       23.9      424.2       21.7       25.3       17.2     1013.1       24.2       14.7        0.0        0.0        0.6       0.00       47.4       0.84       0.13       85.8
14:02             174       14.5         66       23.9      424.2       22.8       25.3       17.2     1013.1       24.2       14.7        0.0        0.0        0.6       0.00       47.7       0.84       0.15       85.8
14:04             173       12.9         66       24.0      424.2       23.2       25.4       17.3     1013.0       24.2       14.7        0.0        0.0        0.6       0.00       48.2       0.84       0.15       85.8
14:06             180       16.1         66       24.1      424.2       23.0       25.5       17.4     1013.1       24.2       14.7        0.0        0.0        0.6       0.00       48.6       0.84       0.15       85.8
14:08             196        9.7         66       24.1      424.2       23.6       25.5       17.4     1013.0       24.2       14.7        0.0        0.0        0.6       0.00       49.0       0.84       0.15       85.8
14:10             183       19.3         66       24.1      424.2       21.6       25.5       17.4     1013.0       24.2       14.7        0.0        0.0        0.6       0.00       49.3       0.84       0.15       85.8
14:12             175       17.7         66       24.1      424.2       22.0       25.5       17.4     1013.0       24.2       14.7        0.0        0.0        0.6       0.00       49.9       0.84       0.15       85.8
14:14             174       22.5         66       24.2      424.2       21.7       25.5       17.4     1013.0       24.2       14.7        0.0        0.0        0.6       0.00       50.5       0.84       0.15       85.8
14:16             178       30.6         65       24.1      424.2       21.8       25.4       17.1     1013.0       24.2       14.7        0.0        0.0        0.6       0.00       51.1       0.84       0.18       85.8
14:18             173       14.5         65       23.9      424.2       22.4       25.3       17.0     1013.0       24.2       14.7        0.0        0.0        0.6       0.00       51.6       0.84       0.18       85.8
14:20             193        9.7         66       23.9      424.2       23.4       25.3       17.2     1013.0       24.2       14.7        0.0        0.0        0.6       0.00       52.0       0.84       0.18       85.8
14:22             179       25.7         67       23.8      424.2       20.9       25.3       17.3     1013.0       24.2       14.7        0.0        0.0        0.6       0.00       52.3       0.84       0.18       85.8
14:24             173       27.4         67       23.9      424.2       22.7       25.3       17.4     1013.0       24.2       14.7        0.0        0.0        0.6       0.00       52.8       0.84       0.18       85.8
14:26             182       16.1         66       23.9      424.2       23.4       25.3       17.2     1012.9       24.2       14.7        0.0        0.0        0.6       0.00       53.2       0.84       0.18       85.8
14:28             190        9.7         66       23.9      424.2       23.9       25.3       17.2     1013.0       24.2       14.7        0.0        0.0        0.6       0.00       53.5       0.84       0.18       85.8
14:30             187        9.7         66       24.1      424.2       23.6       25.4       17.3     1012.9       24.2       14.7        0.0        0.0        0.6       0.00       53.8       0.84       0.18       85.8
14:32             188       17.7         66       24.1      424.2       22.3       25.5       17.4     1012.8       24.2       14.7        0.0        0.0        0.6       0.00       54.1       0.84       0.20       85.8
14:34             184       17.7         66       24.2      424.2       23.1       25.6       17.5     1012.8       24.2       14.7        0.0        0.0        0.6       0.00       54.5       0.84       0.20       85.8
14:35             198       19.3         64       24.2      424.2       23.7       25.5       17.0     1012.8       24.2       14.7        0.0        0.0        0.6       0.00       54.9       0.84       0.20       85.8
14:38             197       16.1         65       24.2      424.2       22.8       25.5       17.2     1012.8       24.2       14.7        0.0        0.0        0.6       0.00       55.2       0.84       0.20       85.8
14:40             177       11.3         65       24.3      424.2       23.5       25.6       17.3     1012.7       24.3       14.7        0.0        0.0        0.6       0.00       55.5       0.84       0.20       85.8
14:41             178       14.5         64       24.4      424.2       23.3       25.6       17.1     1012.7       24.4       14.7        0.0        0.0        0.6       0.00       55.9       0.84       0.20       85.8
14:44             187       12.9         64       24.5      424.2       23.4       25.8       17.3     1012.7       24.5       14.7        0.0        0.0        0.6       0.00       56.2       0.84       0.20       85.8
14:46             183       16.1         64       24.6      424.2       22.6       25.9       17.4     1012.6       24.6       14.7        0.0        0.0        0.6       0.00       56.5       0.84       0.22       85.8
14:48             178       11.3         64       24.7      424.2       24.7       25.9       17.4     1012.6       24.7       14.7        0.0        0.0        0.6       0.00       57.0       0.84       0.22       85.8
14:50             175       16.1         64       24.8      424.2       22.8       26.0       17.5     1012.7       24.8       14.7        0.0        0.0        0.6       0.00       57.4       0.84       0.22       85.8
14:52             180       20.9         64       24.8      424.2       22.9       26.1       17.6     1012.5       24.8       14.7        0.0        0.0        0.6       0.00       57.9       0.84       0.22       85.8
14:54             178       17.7         63       24.9      424.2       24.4       26.1       17.4     1012.5       24.9       14.7        0.0        0.0        0.6       0.00       58.2       0.84       0.22       85.8
14:56             191       16.1         64       24.9      424.2       23.2       26.1       17.6     1012.6       24.9       14.7        0.0        0.0        0.6       0.00       58.6       0.84       0.22       85.8
14:58             188       14.5         63       24.9      424.2       24.1       26.1       17.4     1012.6       24.9       14.7        0.0        0.0        0.6       0.00       59.0       0.84       0.22       85.8
15:00             192        9.7         64       24.9      424.2       24.4       26.1       17.6     1012.5       24.9       14.7        0.0        0.0        0.6       0.00       59.3       0.84       0.22       85.8
15:02             196       16.1         63       24.9      424.2       23.8       26.1       17.4     1012.4       24.9       14.7        0.0        0.0        0.6       0.00       59.7       0.84       0.25       85.8
15:04             198       14.5         63       24.9      424.2       23.2       26.1       17.4     1012.4       24.9       14.7        0.0        0.0        0.6       0.00       60.0       0.84       0.25       85.8
15:06             200        9.7         63       24.9      424.2       24.1       26.1       17.4     1012.5       24.9       14.7        0.0        0.0        0.6       0.00       60.3       0.84       0.25       85.8
15:08             220        9.7         63       24.8      424.2       24.8       26.0       17.3     1012.4       24.9       14.7        0.0        0.0        0.6       0.00       60.6       0.84       0.25       85.8
15:10             225       16.1         64       24.8      424.2       23.4       26.0       17.5     1012.4       24.9       14.7        0.0        0.0        0.6       0.00       60.9       0.84       0.25       85.8
15:12             227        9.7         64       24.7      424.2       24.7       25.9       17.4     1012.3       24.9       14.7        0.0        0.0        0.6       0.00       61.2       0.84       0.25       85.8
15:14             200       12.9         64       24.6      424.2       23.5       25.8       17.3     1012.4       24.9       14.7        0.0        0.0        0.6       0.00       61.5       0.84       0.25       85.8
15:16             205        9.7         63       24.5      424.2       24.5       25.7       17.0     1012.4       24.9       14.7        0.0        0.0        0.6       0.00       61.8       0.84       0.28       85.8
15:18             207        9.7         64       24.5      424.2       23.7       25.8       17.3     1012.5       24.9       14.7        0.0        0.0        0.6       0.00       62.0       0.84       0.28       85.8
15:20             207       16.1         64       24.6      424.2       22.5       25.8       17.3     1012.4       24.9       14.7        0.0        0.0        0.6       0.00       62.2       0.84       0.28       85.8
15:22             238        9.7         63       24.6      424.2       23.8       25.8       17.1     1012.4       24.9       14.7        0.0        0.0        0.6       0.00       62.6       0.84       0.28       85.8
15:24             229        8.0         62       24.6      424.2       24.6       25.7       16.9     1012.4       24.9       14.7        0.0        0.0        0.6       0.00       62.8       0.84       0.28       85.8
15:25             241        9.7         62       24.6      424.2       24.6       25.7       16.8     1012.4       24.9       14.7        0.0        0.0        0.6       0.00       63.1       0.84       0.28       85.8
15:28             221       14.5         63       24.6      424.2       22.9       25.8       17.1     1012.4       24.9       14.7        0.0        0.0        0.6       0.00       63.3       0.84       0.28       85.8
15:30             219       12.9         63       24.7      424.2       24.7       25.9       17.2     1012.4       24.9       14.7        0.0        0.0        0.6       0.00       63.7       0.84       0.28       85.8
15:31             212        9.7         62       24.7      424.2       24.0       25.8       17.0     1012.4       24.9       14.7        0.0        0.0        0.6       0.00       64.1       0.84       0.31       85.8
15:34             179       19.3         61       24.8      424.2       22.7       25.9       16.8     1012.4       24.9       14.7        0.0        0.0        0.6       0.00       64.5       0.84       0.31       85.8
15:36             189        8.0         60       24.9      424.2       24.5       25.9       16.7     1012.3       24.9       14.7        0.0        0.0        0.6       0.00       64.8       0.84       0.31       85.8
15:38             195       11.3         61       25.1      424.2       24.4       26.2       17.1     1012.4       25.1       14.7        0.0        0.0        0.6       0.00       65.2       0.84       0.31       85.8
15:40             180       12.9         59       25.2      424.2       24.5       26.2       16.6     1012.4       25.2       14.7        0.0        0.0        0.6       0.00       65.5       0.84       0.31       85.8
15:42             190       16.1         59       25.3      424.2       24.3       26.2       16.7     1012.4       25.3       14.7        0.0        0.0        0.6       0.00       65.9       0.84       0.31       85.8
15:44             192       12.9         57       25.3      424.2       24.6       26.2       16.2     1012.4       25.3       14.7        0.0        0.0        0.6       0.00       66.3       0.84       0.31       85.8
15:46             192        8.0         57       25.4      424.2       25.4       26.2       16.3     1012.3       25.4       14.7        0.0        0.0        0.6       0.00       66.6       0.84       0.34       85.8
15:48             190        9.7         57       25.4      424.2       25.4       26.3       16.3     1012.4       25.4       14.7        0.0        0.0        0.6       0.00       66.9       0.84       0.34       85.8
15:50             180       16.1         59       25.6      424.2       25.1       26.5       17.0     1012.4       25.6       14.7        0.0        0.0        0.6       0.00       67.3       0.84       0.34       85.8
15:52             181        8.0         60       25.6      424.2       25.6       26.6       17.3     1012.4       25.6       14.7        0.0        0.0        0.6       0.00       67.6       0.84       0.34       85.8
15:53             182        8.0         59       25.7      424.2       25.3       26.6       17.1     1012.4       25.7       14.7        0.0        0.0        0.6       0.00       67.9       0.84       0.34       85.8
15:56             207       16.1         58       25.7      424.2       24.0       26.6       16.8     1012.5       25.7       14.7        0.0        0.0        0.6       0.00       68.2       0.84       0.34       85.8
15:58             211       11.3         57       25.7      424.2       25.3       26.6       16.6     1012.5       25.8       14.7        0.0        0.0        0.6       0.00       68.6       0.84       0.34       85.8
16:00             213       12.9         58       25.7      424.2       25.3       26.6       16.8     1012.5       25.8       14.7        0.0        0.0        0.6       0.00       68.8       0.84       0.34       85.8
16:02             202       14.5         58       25.6      424.2       25.2       26.5       16.7     1012.5       25.8       14.7        0.0        0.0        0.6       0.00       69.2       0.84       0.38       85.8
16:04             183       16.1         58       25.6      424.2       24.6       26.4       16.7     1012.5       25.8       14.7        0.0        0.0        0.6       0.00       69.5       0.84       0.38       85.8
16:06             196        9.7         58       25.5      424.2       24.8       26.4       16.6     1012.6       25.8       14.7        0.0        0.0        0.6       0.00       69.9       0.84       0.38       85.8
16:08             207        8.0         58       25.5      424.2       25.5       26.4       16.6     1012.5       25.8       14.7        0.0        0.0        0.6       0.00       70.1       0.84       0.38       85.8
16:09             173       19.3         59       25.6      424.2       24.3       26.5       17.0     1012.5       25.8       14.7        0.0        0.0        0.6       0.00       70.5       0.84       0.38       85.8
16:12             194        9.7         59       25.6      424.2       25.6       26.6       17.0     1012.5       25.8       14.7        0.0        0.0        0.6       0.00       70.9       0.84       0.38       85.8
16:14             237       16.1         59       25.6      424.2       24.7       26.6       17.0     1012.5       25.8       14.7        0.0        0.0        0.6       0.00       71.2       0.84       0.38       85.8
16:15             221       14.5         59       25.5      424.2       24.8       26.4       16.9     1012.5       25.8       14.7        0.0        0.0        0.6       0.00       71.6       0.84       0.42       85.8
16:18             217        8.0         60       25.4      424.2       25.4       26.4       17.1     1012.4       25.8       14.7        0.0        0.0        0.6       0.00       71.9       0.84       0.42       85.8
16:20             208       11.3         60       25.4      424.2       25.0       26.4       17.1     1012.4       25.8       14.7        0.0        0.0        0.6       0.00       72.1       0.84       0.42       85.8
16:22             195       12.9         59       25.4      424.2       25.4       26.3       16.8     1012.5       25.8       14.7        0.0        0.0        0.6       0.00       72.4       0.84       0.42       85.8
16:24             213       11.3         59       25.4      424.2       24.5       26.4       16.9     1012.5       25.8       14.7        0.0        0.0        0.6       0.00       72.7       0.84       0.42       85.8
16:26             215       14.5         59       25.4      424.2       25.4       26.4       16.9     1012.4       25.8       14.7        0.0        0.0        0.6       0.00       73.0       0.84       0.42       85.8
16:28             214       16.1         59       25.5      424.2       25.1       26.4       16.9     1012.5       25.8       14.7        0.0        0.0        0.6       0.00       73.4       0.84       0.42       85.8
16:30             210       16.1         59       25.5      424.2       23.7       26.4       16.9     1012.5       25.8       14.7        0.0        0.0        0.6       0.00       73.7       0.84       0.42       85.8
16:32             200       14.5         58       25.5      424.2       24.5       26.4       16.6     1012.5       25.8       14.7        0.0        0.0        0.6       0.00       74.1       0.84       0.45       85.8
16:34             202       12.9         57       25.5      424.2       24.5       26.3       16.4     1012.5       25.8       14.7        0.0        0.0        0.6       0.00       74.5       0.84       0.45       85.8
16:36             209       22.5         60       25.5      424.2       23.6       26.5       17.2     1012.5       25.8       14.7        0.0        0.0        0.6       0.00       75.0       0.84       0.45       85.8
16:38             240       19.3         62       25.4      424.2       23.6       26.6       17.6     1012.5       25.8       14.7        0.0        0.0        0.6       0.00       75.4       0.84       0.45       85.8
16:40             248       12.9         62       25.3      424.2       25.3       26.4       17.5     1012.5       25.8       14.7        0.0        0.0        0.6       0.00       75.7       0.84       0.45       85.8
16:42             214       16.1         63       25.1      424.2       23.2       26.3       17.6     1012.5       25.8       14.7        0.0        0.0        0.6       0.00       76.2       0.84       0.45       85.8
16:44             234       14.5         64       25.0      424.2       24.3       26.3       17.7     1012.5       25.8       14.7        0.0        0.0        0.6       0.00       76.6       0.84       0.45       85.8
16:46             215       14.5         64       24.9      424.2       24.1       26.1       17.6     1012.6       25.8       14.7        0.0        0.0        0.6       0.00       77.0       0.84       0.48       85.8
16:48             205       11.3         64       24.8      424.2       23.8       26.1       17.6     1012.4       25.8       14.7        0.0        0.0        0.6       0.00       77.3       0.84       0.48       85.8
16:50             211        8.0         64       24.8      424.2       24.8       26.1       17.6     1012.4       25.8       14.7        0.0        0.0        0.6       0.00       77.6       0.84       0.48       85.8
16:52             248       16.1         65       24.7      424.2       24.7       26.0       17.7     1012.5       25.8       14.7        0.0        0.0        0.6       0.00       78.1       0.84       0.48       85.8
16:53             218       16.1         66       24.7      424.2       23.9       26.0       17.9     1012.5       25.8       14.7        0.0        0.0        0.6       0.00       78.4       0.84       0.48       85.8
16:56             220       12.9         67       24.7      424.2       23.6       26.1       18.1     1012.4       25.8       14.7        0.0        0.0        0.6       0.00       78.7       0.84       0.48       85.8
16:58             209       14.5         67       24.7      424.2       23.9       26.1       18.1     1012.4       25.8       14.7        0.0        0.0        0.6       0.00       79.1       0.84       0.48       85.8
17:00             226       16.1         67       24.6      424.2       23.2       26.0       18.0     1012.5       25.8       14.7        0.0        0.0        0.6       0.00       79.6       0.84       0.48       85.8
17:02             202       17.7         67       24.4      424.2       22.2       25.9       17.9     1012.5       25.8       14.7        0.0        0.0        0.6       0.00       80.1       0.84       0.51       85.8
17:04             189       16.1         67       24.3      424.2       22.3       25.8       17.8     1012.5       25.8       14.7        0.0        0.0        0.6       0.00       80.6       0.84       0.51       85.8
17:06             214       16.1         68       24.3      424.2       23.5       25.8       18.0     1012.5       25.8       14.7        0.0        0.0        0.6       0.00       81.0       0.84       0.51       85.8
17:08             221       20.9         68       24.2      424.2       22.1       25.7       17.9     1012.6       25.8       14.7        0.0        0.0        0.6       0.00       81.5       0.84       0.51       85.8
17:10             227       25.7         69       24.0      424.2       23.2       25.6       18.0     1012.5       25.8       14.7        0.0        0.0        0.6       0.00       82.0       0.84       0.51       85.8
17:12             196       12.9         69       23.9      424.2       22.8       25.5       17.9     1012.5       25.8       14.7        0.0        0.0        0.6       0.00       82.5       0.84       0.51       85.8
17:14             210       11.3         70       23.9      424.2       22.7       25.5       18.1     1012.6       25.8       14.7        0.0        0.0        0.6       0.00       82.8       0.84       0.51       85.8
17:16             250       20.9         70       23.8      424.2       21.6       25.5       18.0     1012.6       25.8       14.7        0.0        0.0        0.6       0.00       83.2       0.84       0.53       85.8
17:18             225        9.7         71       23.7      424.2       22.9       25.4       18.2     1012.5       25.8       14.7        0.0        0.0        0.6       0.00       83.5       0.84       0.53       85.8
17:20             213       12.9         70       23.7      424.2       22.9       25.4       17.9     1012.5       25.8       14.7        0.0        0.0        0.6       0.00       83.9       0.84       0.53       85.8
17:22             259       22.5         70       23.7      424.2       21.1       25.4       17.9     1012.6       25.8       14.7        0.0        0.0        0.6       0.00       84.4       0.84       0.53       85.8
17:23             230       12.9         70       23.6      424.2       22.7       25.3       17.8     1012.6       25.8       14.7        0.0        0.0        0.6       0.00       84.9       0.84       0.53       85.8
17:26             234       20.9         70       23.6      424.2       23.0       25.2       17.8     1012.6       25.8       14.7        0.0        0.0        0.6       0.00       85.4       0.84       0.53       85.8
17:28             222       14.5         70       23.5      424.2       21.6       25.1       17.7     1012.5       25.8       14.7        0.0        0.0        0.6       0.00       85.8       0.84       0.53       85.8
17:30             244       17.7         69       23.5      424.2       21.6       25.1       17.5     1012.5       25.8       14.7        0.0        0.0        0.6       0.00       86.3       0.84       0.53       85.8
17:32             237       24.1         70       23.4      424.2       20.9       25.0       17.6     1012.4       25.8       14.7        0.0        0.0        0.6       0.00       86.8       0.84       0.55       85.8
17:34             211       17.7         70       23.3      424.2       21.7       24.9       17.5     1012.5       25.8       14.7        0.0        0.0        0.6       0.00       87.3       0.84       0.55       85.8
17:36             217       14.5         70       23.3      424.2       22.0       24.9       17.5     1012.4       25.8       14.7        0.0        0.0        0.6       0.00       87.7       0.84       0.55       85.8
17:38             212       20.9         70       23.2      424.2       20.5       24.9       17.5     1012.5       25.8       14.7        0.0        0.0        0.6       0.00       88.1       0.84       0.55       85.8
17:40             235       19.3         71       23.2      424.2       20.5       24.9       17.7     1012.6       25.8       14.7        0.0        0.0        0.6       0.00       88.5       0.84       0.55       85.8
17:42             233       20.9         71       23.1      424.2       21.5       24.8       17.6     1012.5       25.8       14.7        0.0        0.0        0.6       0.00       89.0       0.84       0.55       85.8
17:43             225       19.3         71       23.1      424.2       21.8       24.8       17.5     1012.5       25.8       14.7        0.0        0.0        0.6       0.00       89.5       0.84       0.55       85.8
17:46             221       20.9         72       22.9      424.2       20.8       24.7       17.6     1012.5       25.8       14.7        0.0        0.0        0.6       0.00       89.9       0.84       0.56       85.8
17:48             217       17.7         72       22.8      424.2       21.1       24.6       17.5     1012.5       25.8       14.7        0.0        0.0        0.6       0.00       90.3       0.84       0.56       85.8
17:50             215       17.7         73       22.8      424.2       20.1       24.6       17.7     1012.6       25.8       14.7        0.0        0.0        0.6       0.00       90.7       0.84       0.56       85.8
17:52             208       22.5         73       22.7      424.2       20.6       24.6       17.6     1012.6       25.8       14.7        0.0        0.0        0.6       0.00       91.4       0.84       0.56       85.8
17:54             213       17.7         73       22.7      424.2       21.0       24.5       17.6     1012.6       25.8       14.7        0.0        0.0        0.6       0.00       91.8       0.84       0.56       85.8
17:55             222       20.9         73       22.6      424.2       20.8       24.4       17.5     1012.5       25.8       14.7        0.0        0.0        0.6       0.00       92.3       0.84       0.56       85.8
17:58             209       12.9         74       22.5      424.2       20.8       24.4       17.6     1012.6       25.8       14.7        0.0        0.0        0.6       0.00       92.7       0.84       0.56       85.8
18:00             209       12.9         74       22.4      424.2       21.4       24.3       17.5     1012.6       25.8       14.7        0.0        0.0        0.6       0.00       93.0       0.84       0.56       85.8
18:02             214       20.9         74       22.3      424.2       19.2       24.2       17.5     1012.6       25.8       14.7        0.0        0.0        0.6       0.00       93.4       0.84       0.56       85.8
18:04             222       20.9         74       22.2      424.2       20.4       24.1       17.4     1012.6       25.8       14.7        0.0        0.0        0.6       0.00       93.9       0.84       0.56       85.8
18:06             221       19.3         75       22.1      424.2       20.7       24.1       17.5     1012.6       25.8       14.7        0.0        0.0        0.6       0.00       94.3       0.84       0.56       85.8
18:08             217       17.7         75       22.0      424.2       21.4       24.0       17.4     1012.7       25.8       14.7        0.0        0.0        0.6       0.00       94.7       0.84       0.56       85.8
18:10             217       14.5         76       21.9      424.2       20.0       23.9       17.5     1012.8       25.8       14.7        0.0        0.0        0.6       0.00       95.1       0.84       0.56       85.8
18:12             231       20.9         76       21.8      424.2       18.4       23.8       17.4     1012.8       25.8       14.7        0.0        0.0        0.6       0.00       95.4       0.84       0.56       85.8
18:14             218       16.1         77       21.6      424.2       20.1       23.7       17.4     1012.9       25.8       14.7        0.0        0.0        0.6       0.00       95.8       0.84       0.56       85.8
18:16             227       17.7         76       21.5      424.2       19.6       23.6       17.1     1013.0       25.8       14.7        0.0        0.0        0.6       0.00       96.3       0.84       0.56       85.8
18:18             229       20.9         77       21.3      424.2       18.9       23.4       17.1     1013.0       25.8       14.7        0.0        0.0        0.6       0.00       96.8       0.84       0.56       85.8
18:20             227       14.5         77       21.1      424.2       20.0       23.2       16.9     1013.1       25.8       14.7        0.0        0.0        0.6       0.00       97.2       0.84       0.56       85.8
18:22             223        8.0         78       20.9      424.2       20.9       23.1       16.9     1013.0       25.8       14.7        0.0        0.0        0.6       0.00       97.6       0.84       0.56       85.8
18:24             227       12.9         79       20.8      424.2       20.8       23.1       17.1     1013.0       25.8       14.7        0.0        0.0        0.6       0.00       97.9       0.84       0.56       85.8
18:26             227       12.9         79       20.8      424.2       19.7       23.1       17.0     1013.1       25.8       14.7        0.0        0.0        0.6       0.00       98.2       0.84       0.56       85.8
18:28             230       24.1         79       20.7      424.2       17.0       22.9       16.9     1013.0       25.8       14.7        0.0        0.0        0.6       0.00       98.6       0.84       0.56       85.8
18:30             217       17.7         79       20.6      424.2       18.6       22.9       16.8     1013.1       25.8       14.7        0.0        0.0        0.6       0.00       99.0       0.84       0.56       85.8
18:32             221       11.3         79       20.6      424.2       19.0       22.8       16.8     1013.1       25.8       14.7        0.0        0.0        0.6       0.00       99.3       0.84       0.56       85.8
18:34             223       12.9         79       20.4      424.2       18.4       22.7       16.7     1013.0       25.8       14.7        0.0        0.0        0.6       0.00       99.7       0.84       0.56       85.8
18:36             227       12.9         79       20.4      424.2       19.2       22.7       16.6     1013.1       25.8       14.7        0.0        0.0        0.6       0.00      100.0       0.84       0.56       85.8
18:38             223       14.5         80       20.3      424.2       19.2       22.7       16.8     1013.2       25.8       14.7        0.0        0.0        0.6       0.00      100.4       0.84       0.56       85.8
18:40             213       14.5         80       20.3      424.2       18.6       22.6       16.7     1013.2       25.8       14.7        0.0        0.0        0.6       0.00      100.7       0.84       0.56       85.8
18:42             222       12.9         80       20.3      424.2       18.2       22.6       16.7     1013.3       25.8       14.7        0.0        0.0        0.6       0.00      101.1       0.84       0.56       85.8
18:44             222       11.3         80       20.2      424.2       18.6       22.6       16.7     1013.4       25.8       14.7        0.0        0.0        0.6       0.00      101.4       0.84       0.56       85.8
18:46             238       14.5         80       20.1      424.2       18.0       22.5       16.6     1013.4       25.8       14.7        0.0        0.0        0.6       0.00      101.9       0.84       0.56       85.8
18:48             225       19.3         80       20.1      424.2       17.0       22.4       16.5     1013.4       25.8       14.7        0.0        0.0        0.6       0.00      102.3       0.84       0.56       85.8
18:50             225       14.5         81       19.9      424.2       17.3       22.4       16.6     1013.4       25.8       14.7        0.0        0.0        0.6       0.00      102.7       0.84       0.56       85.8
18:52             220       14.5         81       19.8      424.2       17.6       22.3       16.5     1013.4       25.8       14.7        0.0        0.0        0.6       0.00      103.0       0.84       0.56       85.8
18:54             222       12.9         81       19.7      424.2       17.5       22.1       16.4     1013.5       25.8       14.7        0.0        0.0        0.6       0.00      103.4       0.84       0.56       85.8
18:56             223       14.5         81       19.7      424.2       19.7       22.1       16.3     1013.5       25.8       14.7        0.0        0.0        0.6       0.00      103.7       0.84       0.56       85.8
18:58             222       19.3         81       19.6      424.2       16.8       22.0       16.2     1013.5       25.8       14.7        0.0        0.0        0.6       0.00      104.1       0.84       0.56       85.8
19:00             223       14.5         81       19.4      424.2       16.7       21.9       16.1     1013.6       25.8       14.7        0.0        0.0        0.6       0.00      104.4       0.84       0.56       85.8
19:02             213       11.3         81       19.3      424.2       17.5       21.7       15.9     1013.6       25.8       14.7        0.0        0.0        0.6       0.00      104.8       0.84       0.56       85.8
19:04             219       12.9         82       19.2      424.2       17.4       21.7       16.0     1013.7       25.8       14.7        0.0        0.0        0.6       0.00      105.2       0.84       0.56       85.8
19:06             218       16.1         82       19.1      424.2       17.8       21.6       16.0     1013.7       25.8       14.7        0.0        0.0        0.6       0.00      105.6       0.84       0.56       85.8
19:08             214       17.7         82       19.0      424.2       18.2       21.5       15.9     1013.8       25.8       14.7        0.0        0.0        0.6       0.00      105.9       0.84       0.56       85.8
19:10             236       16.1         82       18.9      424.2       17.1       21.4       15.8     1013.7       25.8       14.7        0.0        0.0        0.6       0.00      106.4       0.84       0.56       85.8
19:12             226       11.3         82       18.8      424.2       18.1       21.3       15.7     1013.7       25.8       14.7        0.0        0.0        0.6       0.00      106.8       0.84       0.56       85.8
19:14             224       12.9         82       18.8      424.2       18.0       21.3       15.6     1013.8       25.8       14.7        0.0        0.0        0.6       0.00      107.1       0.84       0.56       85.8
19:16             227       12.9         82       18.7      424.2       17.4       21.2       15.5     1013.8       25.8       14.7        0.0        0.0        0.6       0.00      107.4       0.84       0.56       85.8
19:18             221       19.3         82       18.6      424.2       14.6       21.1       15.5     1013.9       25.8       14.7        0.0        0.0        0.6       0.00      107.8       0.84       0.56       85.8
19:20             225       14.5         82       18.6      424.2       18.6       21.1       15.4     1013.9       25.8       14.7        0.0        0.0        0.6       0.00      108.2       0.84       0.56       85.8
19:22             226       11.3         83       18.4      424.2       18.4       21.0       15.5     1014.0       25.8       14.7        0.0        0.0        0.6       0.00      108.5       0.84       0.56       85.8
19:24             227       12.9         83       18.4      424.2       17.6       21.0       15.5     1014.0       25.8       14.7        0.0        0.0        0.6       0.00      108.9       0.84       0.56       85.8
19:26             227       11.3         83       18.3      424.2       17.5       20.9       15.4     1014.0       25.8       14.7        0.0        0.0        0.6       0.00      109.2       0.84       0.56       85.8
19:28             225        8.0         83       18.3      424.2       18.3       20.9       15.4     1014.0       25.8       14.7        0.0        0.0        0.6       0.00      109.5       0.84       0.56       85.8
19:30             221       16.1         83       18.3      424.2       18.3       20.9       15.3     1014.0       25.8       14.7        0.0        0.0        0.6       0.00      109.8       0.84       0.56       85.8
19:32             221       14.5         83       18.3      424.2       16.4       20.9       15.3     1014.1       25.8       14.7        0.0        0.0        0.6       0.00      110.2       0.84       0.56       85.8
19:34             217        9.7         83       18.2      424.2       18.2       20.8       15.3     1014.1       25.8       14.7        0.0        0.0        0.6       0.00      110.5       0.84       0.56       85.8
19:36             221       12.9         84       18.2      424.2       15.7       20.8       15.4     1014.1       25.8       14.7        0.0        0.0        0.6       0.00      110.8       0.84       0.56       85.8
19:38             223        8.0         84       18.1      424.2       18.1       20.8       15.4     1014.2       25.8       14.7        0.0        0.0        0.6       0.00      111.1       0.84       0.56       85.8
19:40             220       17.7         84       18.1      424.2       15.6       20.8       15.4     1014.1       25.8       14.7        0.0        0.0        0.6       0.00      111.5       0.84       0.56       85.8
19:42             223       16.1         84       18.1      424.2       16.1       20.7       15.3     1014.2       25.8       14.7        0.0        0.0        0.6       0.00      111.8       0.84       0.56       85.8
19:44             227       14.5         84       18.0      424.2       15.5       20.7       15.3     1014.2       25.8       14.7        0.0        0.0        0.6       0.00      112.2       0.84       0.56       85.8
19:46             227       11.3         85       18.0      424.2       16.1       20.7       15.4     1014.2       25.8       14.7        0.0        0.0        0.6       0.00      112.5       0.84       0.56       85.8
19:48             221       12.9         85       17.9      424.2       16.0       20.7       15.4     1014.3       25.8       14.7        0.0        0.0        0.6       0.00      112.8       0.84       0.56       85.8
19:50             214       16.1         85       17.9      424.2       17.1       20.6       15.3     1014.3       25.8       14.7        0.0        0.0        0.6       0.00      113.3       0.84       0.56       85.8
19:52             217       12.9         85       17.9      424.2       15.4       20.6       15.3     1014.3       25.8       14.7        0.0        0.0        0.6       0.00      113.6       0.84       0.56       85.8
19:54             221        9.7         85       17.8      424.2       17.0       20.6       15.3     1014.3       25.8       14.7        0.0        0.0        0.6       0.00      114.0       0.84       0.56       85.8
19:56             219       14.5         86       17.8      424.2       16.4       20.6       15.5     1014.4       25.8       14.7        0.0        0.0        0.6       0.00      114.4       0.84       0.56       85.8
19:58             221       12.9         86       17.8      424.2       15.3       20.6       15.4     1014.4       25.8       14.7        0.0        0.0        0.6       0.00      114.8       0.84       0.56       85.8
20:00             217       12.9         86       17.7      424.2       15.2       20.5       15.4     1014.4       25.8       14.7        0.0        0.0        0.6       0.00      115.1       0.84       0.56       85.8
20:02             223        8.0         86       17.7      424.2       17.7       20.5       15.3     1014.5       25.8       14.7        0.0        0.0        0.6       0.00      115.4       0.84       0.56       85.8
20:04             221       19.3         86       17.6      424.2       15.6       20.4       15.2     1014.5       25.8       14.7        0.0        0.0        0.6       0.00      115.8       0.84       0.56       85.8
20:05             235       20.9         87       17.6      424.2       15.6       20.4       15.4     1014.5       25.8       14.7        0.0        0.0        0.6       0.00      116.2       0.84       0.56       85.8
20:07             229       20.9         87       17.6      424.2       13.3       20.4       15.4     1014.5       25.8       14.7        0.0        0.0        0.6       0.00      116.5       0.84       0.56       85.8
20:10             227       11.3         87       17.5      424.2       17.5       20.4       15.3     1014.5       25.8       14.7        0.0        0.0        0.6       0.00      116.9       0.84       0.56       85.8
20:12             221       12.9         87       17.4      424.2       16.6       20.3       15.3     1014.5       25.8       14.7        0.0        0.0        0.6       0.00      117.2       0.84       0.56       85.8
20:14             221       14.5         87       17.4      424.2       15.4       20.3       15.3     1014.5       25.8       14.7        0.0        0.0        0.6       0.00      117.6       0.84       0.56       85.8
20:16             233       12.9         87       17.4      424.2       16.5       20.3       15.2     1014.6       25.8       14.7        0.0        0.0        0.6       0.00      117.9       0.85       0.56       85.8
20:18             229       11.3         87       17.3      424.2       15.9       20.2       15.2     1014.7       25.8       14.7        0.0        0.0        0.6       0.00      118.3       0.85       0.56       85.8
20:20             231       12.9         88       17.3      424.2       15.9       20.3       15.3     1014.7       25.8       14.7        0.0        0.0        0.6       0.00      118.6       0.85       0.56       85.8
20:22             232       12.9         88       17.3      424.2       17.3       20.3       15.3     1014.7       25.8       14.7        0.0        0.0        0.6       0.00      119.0       0.85       0.56       85.8
20:24             233        8.0         88       17.3      424.2       17.3       20.2       15.3     1014.7       25.8       14.7        0.0        0.0        0.6       0.00      119.3       0.85       0.56       85.8
20:26             237       19.3         88       17.3      424.2       14.1       20.2       15.3     1014.7       25.8       14.7        0.0        0.0        0.6       0.00      119.6       0.85       0.56       85.8
20:28             232       20.9         88       17.2      424.2       12.5       20.2       15.2     1014.6       25.8       14.7        0.0        0.0        0.6       0.00      120.0       0.85       0.56       85.8
20:30             238       16.1         88       17.2      424.2       14.0       20.2       15.2     1014.6       25.8       14.7        0.0        0.0        0.6       0.00      120.7       0.85       0.56       85.8
20:32             243       17.7         88       17.2      424.2       15.7       20.1       15.2     1014.6       25.8       14.7        0.0        0.0        0.4       0.00      121.1       0.86       0.56       85.8
20:34             244       12.9         88       17.2      424.2       14.5       20.1       15.2     1014.5       25.8       14.7        0.0        0.0        0.4       0.00      121.4       0.86       0.56       85.8
20:36             242       17.7         88       17.1      424.2       13.0       20.1       15.1     1014.6       25.8       14.7        0.0        0.0        0.4       0.00      121.8       0.86       0.56       85.8
20:38             242       22.5         89       17.1      424.2       12.1       20.2       15.3     1014.5       25.8       14.7        0.0        0.0        0.4       0.00      122.3       0.86       0.56       85.8
20:40             248       19.3         89       17.1      424.2       15.0       20.1       15.2     1014.6       25.8       14.7        0.0        0.0        0.4       0.00      122.8       0.86       0.56       85.8
20:42             250       19.3         89       17.0      424.2       13.8       20.1       15.2     1014.6       25.8       14.7        0.0        0.0        0.4       0.00      123.2       0.86       0.56       85.8
20:44             238       29.0         89       17.0      424.2       12.2       20.1       15.2     1014.6       25.8       14.7        0.0        0.0        0.4       0.00      123.7       0.86       0.56       85.8
20:46             234       25.7         89       16.9      424.2       12.2       20.0       15.1     1014.7       25.8       14.7        0.0        0.0        0.0       0.00      124.3       0.87       0.56       85.8
20:48             229       12.9         89       16.9      424.2       15.5       20.0       15.1     1014.7       25.8       14.7        0.0        0.0        0.0       0.00      124.8       0.87       0.56       85.8
20:50             219       14.5         89       16.9      424.2       13.6       19.9       15.1     1014.7       25.8       14.7        0.0        0.0        0.0       0.00      125.2       0.87       0.56       85.8
20:52             223       16.1         89       16.8      424.2       14.7       19.9       15.0     1014.7       25.8       14.7        0.0        0.0        0.0       0.00      125.6       0.87       0.56       85.8
20:54             227       19.3         89       16.8      424.2       15.3       19.9       15.0     1014.7       25.8       14.7        0.0        0.0        0.0       0.00      126.1       0.87       0.56       85.8
20:56             223       14.5         89       16.7      424.2       14.6       19.8       14.9     1014.8       25.8       14.7        0.0        0.0        0.0       0.00      126.4       0.87       0.56       85.8
20:58             220       16.1         89       16.7      424.2       13.3       19.7       14.8     1014.7       25.8       14.7        0.0        0.0        0.0       0.00      126.9       0.87       0.56       85.8
21:00             234       16.1         89       16.6      424.2       14.5       19.7       14.8     1014.8       25.8       14.7        0.0        0.0        0.0       0.00      127.4       0.87       0.56       85.8
21:02             221       25.7         90       16.6      424.2       15.1       19.7       15.0     1014.8       25.8       14.7        0.0        0.0        0.0       0.00      127.8       0.88       0.56       85.8
21:04             219       24.1         90       16.6      424.2       15.0       19.7       14.9     1014.7       25.8       14.7        0.0        0.0        0.0       0.00      128.3       0.88       0.56       85.8
21:06             229       22.5         89       16.5      424.2       12.2       19.6       14.7     1014.8       25.8       14.7        0.0        0.0        0.0       0.00      128.8       0.88       0.56       85.8
21:08             225       12.9         90       16.5      424.2       14.4       19.6       14.9     1014.8       25.8       14.7        0.0        0.0        0.0       0.00      129.2       0.88       0.56       85.8
21:10             223       24.1         90       16.4      424.2       10.8       19.6       14.8     1014.9       25.8       14.7        0.0        0.0        0.0       0.00      129.7       0.88       0.56       85.8
21:12             221       19.3         90       16.4      424.2       12.5       19.6       14.8     1014.9       25.8       14.7        0.0        0.0        0.0       0.00      130.2       0.88       0.56       85.8
21:14             223       16.1         90       16.4      424.2       14.9       19.5       14.7     1015.0       25.8       14.7        0.0        0.0        0.0       0.00      130.6       0.88       0.56       85.8
21:16             215       17.7         90       16.4      424.2       12.1       19.5       14.7     1015.0       25.8       14.7        0.0        0.0        0.0       0.00      131.1       0.90       0.56       85.8
21:18             232       17.7         90       16.4      424.2       12.4       19.5       14.7     1015.0       25.8       14.7        0.0        0.0        0.0       0.00      131.6       0.90       0.56       85.8
21:20             217       24.1         90       16.3      424.2       10.7       19.5       14.7     1015.0       25.8       14.7        0.0        0.0        0.0       0.00      132.1       0.90       0.56       85.8
21:22             222       17.7         90       16.3      424.2       12.3       19.4       14.6     1015.1       25.8       14.7        0.0        0.0        0.0       0.00      132.6       0.90       0.56       85.8
21:24             234       20.9         90       16.3      424.2       11.3       19.4       14.6     1015.0       25.8       14.7        0.0        0.0        0.0       0.00      133.2       0.90       0.56       85.8
21:26             213       22.5         90       16.2      424.2       11.2       19.4       14.6     1015.1       25.8       14.7        0.0        0.0        0.0       0.00      133.8       0.90       0.56       85.8
21:28             224       20.9         90       16.2      424.2       12.2       19.4       14.6     1014.9       25.8       14.7        0.0        0.0        0.0       0.00      134.3       0.90       0.56       85.8
21:30             219       22.5         90       16.2      424.2       11.5       19.3       14.5     1014.8       25.8       14.7        0.0        0.0        0.0       0.00      134.8       0.90       0.56       85.8
21:32             233       35.4         90       16.2      424.2       15.2       19.3       14.5     1014.6       25.8       14.7        0.0        0.0        0.0       0.00      135.6       0.92       0.56       85.8
21:34             232       19.3         90       16.2      424.2       14.7       19.4       14.6     1014.5       25.8       14.7        0.0        0.0        0.0       0.00      136.1       0.92       0.56       85.8
21:36             234       16.1         91       16.2      424.2       14.7       19.4       14.8     1014.6       25.8       14.7        0.0        0.0        0.0       0.00      136.4       0.92       0.56       85.8
21:38             238       19.3         91       16.3      424.2       11.6       19.5       14.8     1014.7       25.8       14.7        0.0        0.0        0.0       0.00      136.9       0.92       0.56       85.8
21:40             232       19.3         91       16.3      424.2       12.0       19.5       14.8     1014.8       25.8       14.7        0.0        0.0        0.0       0.00      137.3       0.92       0.56       85.8
21:42             215       27.4         91       16.3      424.2       11.6       19.5       14.8     1015.0       25.8       14.7        0.0        0.0        0.0       0.00      137.9       0.92       0.56       85.8
21:44             228       16.1         91       16.3      424.2       12.9       19.5       14.8     1015.3       25.8       14.7        0.0        0.0        0.0       0.00      138.4       0.92       0.56       85.8
21:46             223        8.0         91       16.3      424.2       15.4       19.5       14.8     1015.5       25.8       14.7        0.0        0.0        0.0       0.00      138.7       0.94       0.56       85.8
21:48             215        9.7         91       16.3      424.2       14.7       19.5       14.8     1015.6       25.8       14.7        0.0        0.0        0.0       0.00      139.0       0.94       0.56       85.8
21:50             215       11.3         91       16.3      424.2       14.1       19.5       14.8     1015.7       25.8       14.7        0.0        0.0        0.0       0.00      139.3       0.94       0.56       85.8
21:52             225       12.9         91       16.3      424.2       13.5       19.5       14.8     1015.8       25.8       14.7        0.0        0.0        0.0       0.00      139.6       0.94       0.56       85.8
21:54             213       19.3         91       16.3      424.2       15.4       19.5       14.8     1015.8       25.8       14.7        0.0        0.0        0.0       0.00      140.0       0.94       0.56       85.8
21:56             211        8.0         91       16.3      424.2       16.3       19.5       14.9     1015.9       25.8       14.7        0.0        0.0        0.0       0.00      140.2       0.94       0.56       85.8
21:58             211        6.4         91       16.3      424.2       16.3       19.5       14.9     1016.0       25.8       14.7        0.0        0.0        0.0       0.00      140.4       0.94       0.56       85.8
22:00             211        1.6         91       16.3      424.2       16.3       19.5       14.9     1016.2       25.8       14.7        0.0        0.0        0.0       0.00      140.5       0.94       0.56       85.8
22:02             211       12.9         91       16.3      424.2       16.3       19.5       14.9     1016.8       25.8       14.7        0.0        0.0        0.0       0.00      140.6       0.96       0.56       85.8
22:04              38       24.1         91       16.4      424.2       11.8       19.6       14.9     1017.4       25.8       14.7        0.0        0.0        0.0       0.00      141.1       0.96       0.56       85.8
22:06              37       29.0         91       16.5      424.2       14.4       19.7       15.0     1019.4       25.8       14.7        0.0        0.0        0.0       0.00      141.9       0.96       0.56       85.8
22:08              42       33.8         91       16.6      424.2       11.7       19.8       15.1     1019.9       25.8       14.7        0.0        0.0        0.0       0.00      142.7       0.96       0.56       85.8
22:10             126       11.3         91       16.7      424.4       16.7       19.9       15.2     1019.8       25.8       14.7        0.2        0.2        0.2       0.00      143.3       0.96       0.56       86.0
22:12             145       19.3         91       16.7      425.4       15.2       19.9       15.2     1018.0       25.8       14.7        1.2        1.2        1.2      21.40      143.5       0.96       0.56       87.0
22:14             221       12.9         91       16.7      425.8       16.7       19.9       15.2     1017.4       25.8       14.7        1.6        1.6        1.6       9.80      143.9       0.96       0.56       87.4
22:16             246        6.4         91       16.7      426.2       16.7       19.9       15.2     1017.4       25.8       14.7        2.0        2.0        2.0       8.00      144.1       0.97       0.56       87.8
22:18             246        8.0         91       16.7      426.4       16.7       19.9       15.2     1017.5       25.8       14.7        2.2        2.2        2.2       6.20      144.3       0.97       0.56       88.0
22:20             246        0.0         90       16.7      426.6       16.7       19.9       15.1     1017.8       25.8       14.7        2.4        2.4        2.4       9.60      144.3       0.97       0.56       88.2
22:22             246        0.0         91       16.7      426.8       16.7       19.9       15.2     1017.7       25.8       14.7        2.6        2.6        2.6       5.80      144.3       0.97       0.56       88.4
22:24             246        0.0         91       16.7      427.0       16.7       19.9       15.2     1017.3       25.8       14.7        2.8        2.8        2.8       5.60      144.3       0.97       0.56       88.6
22:26             246        0.0         91       16.7      427.0       16.7       19.9       15.2     1017.2       25.8       14.7        2.8        2.8        2.8       4.40      144.3       0.97       0.56       88.6
22:28             245       11.3         91       16.6      427.0       15.7       19.8       15.1     1016.9       25.8       14.7        2.8        2.8        2.8       2.60      144.6       0.97       0.56       88.6
22:30             241       14.5         91       16.6      427.2       15.0       19.8       15.1     1016.8       25.8       14.7        3.0        3.0        3.0       2.40      144.9       0.97       0.56       88.8
22:32             237       11.3         91       16.6      427.2       16.6       19.8       15.1     1016.7       25.8       14.7        3.0        3.0        3.0       2.40      145.2       0.98       0.56       88.8
22:34             230       11.3         91       16.6      427.2       14.4       19.8       15.1     1016.7       25.8       14.7        3.0        3.0        3.0       2.00      145.5       0.98       0.56       88.8
22:36             217       16.1         91       16.6      427.4       13.2       19.8       15.1     1016.7       25.8       14.7        3.2        3.2        3.2       2.00      145.7       0.98       0.56       89.0
22:38             215       19.3         91       16.6      427.4       15.0       19.8       15.1     1016.5       25.8       14.7        3.2        3.2        3.2       2.00      146.1       0.98       0.56       89.0
22:40             201       14.5         91       16.5      427.4       13.8       19.7       15.0     1016.2       25.8       14.7        3.2        3.2        3.2       2.00      146.5       0.98       0.56       89.0
22:42             176       25.7         92       16.5      427.4       10.9       19.8       15.2     1016.1       25.8       14.7        3.2        3.2        3.2       1.40      147.2       0.98       0.56       89.0
22:44             173       25.7         92       16.5      427.4       10.6       19.8       15.2     1016.0       25.8       14.7        3.2        3.2        3.2       1.20      147.9       0.98       0.56       89.0
22:46             165       25.7         92       16.5      427.4       12.2       19.8       15.2     1016.0       25.8       14.7        3.2        3.2        3.2       1.00      148.6       1.00       0.56       89.0
22:48             166       19.3         92       16.6      427.4       14.4       19.9       15.3     1015.9       25.8       14.7        3.2        3.2        3.2       0.80      149.1       1.00       0.56       89.0
22:50             167       19.3         92       16.6      427.4       13.2       19.9       15.3     1015.8       25.8       14.7        3.2        3.2        3.2       0.80      149.6       1.00       0.56       89.0
22:52             178       20.9         92       16.6      427.6       12.3       19.9       15.3     1015.6       25.8       14.7        3.4        3.4        3.4       0.80      150.0       1.00       0.56       89.2
22:54             187       16.1         92       16.6      427.6       15.0       19.9       15.3     1015.5       25.8       14.7        3.4        3.4        3.4       0.80      150.5       1.00       0.56       89.2
22:56             196       14.5         92       16.5      427.6       16.5       19.8       15.2     1015.5       25.8       14.7        3.4        3.4        3.4       0.80      150.9       1.00       0.56       89.2
22:58             239       19.3         92       16.5      427.6       15.0       19.8       15.2     1015.6       25.8       14.7        3.4        3.4        3.4       0.80      151.1       1.00       0.56       89.2
23:00             253       19.3         92       16.5      427.8       13.1       19.8       15.2     1015.5       25.8       14.7        3.6        3.6        3.6       1.20      151.5       1.00       0.56       89.4
23:02             264       19.3         92       16.5      427.8       11.9       19.8       15.2     1015.4       25.8       14.7        3.6        3.6        3.6       1.20      151.9       1.01       0.56       89.4
23:04             249       19.3         92       16.4      427.8       11.8       19.7       15.1     1015.3       25.8       14.7        3.6        3.6        3.6       1.20      152.5       1.01       0.56       89.4
23:06             244       16.1         92       16.4      427.8       13.7       19.7       15.1     1015.3       25.8       14.7        3.6        3.6        3.6       1.20      152.8       1.01       0.56       89.4
23:08             227       14.5         92       16.4      427.8       15.5       19.7       15.1     1015.1       25.8       14.7        3.6        3.6        3.6       1.20      153.2       1.01       0.56       89.4
23:10             233       16.1         92       16.5      427.8       14.4       19.8       15.2     1015.0       25.8       14.7        3.6        3.6        3.6       1.20      153.6       1.01       0.56       89.4
23:12             235       19.3         92       16.4      427.8       12.5       19.7       15.1     1015.0       25.8       14.7        3.6        3.6        3.6       1.00      154.0       1.01       0.56       89.4
23:14             251       11.3         92       16.4      427.8       15.5       19.7       15.1     1015.0       25.8       14.7        3.6        3.6        3.6       0.80      154.4       1.01       0.56       89.4
23:16             257       16.1         92       16.4      427.8       12.4       19.7       15.1     1015.3       25.8       14.7        3.6        1.8        3.6       0.80      154.7       1.03       0.56       89.4
23:18             253       14.5         92       16.3      428.0       15.4       19.6       15.0     1015.5       25.8       14.7        3.8        2.0        3.8       0.80      155.1       1.03       0.56       89.6
23:20             261       16.1         92       16.3      428.0       12.9       19.6       15.0     1015.4       25.8       14.7        3.8        2.0        3.8       0.80      155.4       1.03       0.56       89.6
23:22             258       19.3         92       16.3      428.0       14.1       19.6       15.0     1015.2       25.8       14.7        3.8        2.0        3.8       0.80      155.8       1.03       0.56       89.6
23:24             232       11.3         93       16.2      428.0       16.2       19.6       15.1     1014.9       25.8       14.7        3.8        2.0        3.8       0.80      156.1       1.03       0.56       89.6
23:26             247       16.1         93       16.2      428.0       15.3       19.6       15.1     1014.8       25.8       14.7        3.8        2.0        3.8       0.80      156.5       1.03       0.56       89.6
23:28             273       11.3         93       16.2      428.2       16.2       19.6       15.1     1014.8       25.8       14.7        4.0        2.2        4.0       1.20      156.9       1.03       0.56       89.8
23:30             242       20.9         93       16.2      428.2       12.7       19.5       15.0     1014.6       25.8       14.7        4.0        2.2        4.0       1.20      157.3       1.03       0.56       89.8
23:32             242       19.3         92       16.1      428.2       11.4       19.4       14.8     1014.7       25.8       14.7        4.0        1.0        4.0       1.20      157.8       1.05       0.56       89.8
23:34             248       12.9         93       16.1      428.2       13.3       19.5       15.0     1014.6       25.8       14.7        4.0        1.0        4.0       1.20      158.2       1.05       0.56       89.8
23:36             263       17.7         93       16.1      428.2       13.9       19.5       15.0     1014.6       25.8       14.7        4.0        1.0        4.0       1.20      158.6       1.05       0.56       89.8
23:38             246       14.5         93       16.1      428.2       12.7       19.5       15.0     1014.5       25.8       14.7        4.0        1.0        4.0       1.00      159.1       1.05       0.56       89.8
23:40             276       20.9         93       16.1      428.2       11.4       19.5       15.0     1014.4       25.8       14.7        4.0        1.0        4.0       1.00      159.5       1.05       0.56       89.8
23:42             259       24.1         93       16.1      428.2       13.2       19.4       14.9     1014.4       25.8       14.7        4.0        1.0        4.0       0.80      159.9       1.05       0.56       89.8
23:44             265       17.7         93       16.0      428.2       14.4       19.4       14.9     1014.4       25.8       14.7        4.0        1.0        4.0       0.00      160.4       1.05       0.56       89.8
23:46             258       22.5         93       16.0      428.2       12.5       19.4       14.9     1014.3       25.8       14.7        4.0        0.8        4.0       0.00      161.0       1.07       0.56       89.8
23:48             256       16.1         93       16.0      428.2       13.2       19.4       14.9     1014.3       25.8       14.7        4.0        0.8        4.0       0.00      161.4       1.07       0.56       89.8
23:50             257       16.1         93       16.0      428.2       12.5       19.4       14.9     1014.3       25.8       14.7        4.0        0.8        4.0       0.00      161.7       1.07       0.56       89.8
23:52             258       17.7         93       16.0      428.2       13.8       19.4       14.9     1014.2       25.8       14.7        4.0        0.8        4.0       0.00      162.1       1.07       0.56       89.8
23:54             277       12.9         93       16.0      428.2       16.0       19.4       14.9     1014.3       25.8       14.7        4.0        0.8        4.0       0.00      162.6       1.07       0.56       89.8
23:56             267       19.3         93       16.0      428.2       13.2       19.4       14.9     1014.3       25.8       14.7        4.0        0.8        4.0       0.00      163.1       1.07       0.56       89.8
23:58             258       16.1         93       16.0      428.2       13.2       19.4       14.9     1014.2       25.8       14.7        4.0        0.8        4.0       0.00      163.5       1.07       0.56       89.8


Detalle de hace 2 das:

24/4/18
Time         Wind Dir  Wind Gust   Humidity       Temp   Tot Rain Wind Chill Heat Index  Dew Point   Barom SL Temp Out H Temp Out L  DailyRain   HourRain   24HrRain   RainRate   Wind Run   Deg Heat   Deg Cool  MonthRain
                          km/hr          %         C         mm         C         C         C         mb         C         C         mm         mm         mm      mm/hr         km         C         C         mm
0:00              229       12.9         83       17.2      423.6       15.8       19.8       14.3     1011.1       17.2       17.2        3.8        0.0        4.6       0.00      226.1       0.55       1.89       85.2
0:02              229       20.9         83       17.2      423.6       15.8       19.8       14.3     1011.0       17.2       17.2        0.0        0.0        3.8       0.00        0.3       0.01       0.00       85.2
0:04              229        9.7         83       17.2      423.6       17.2       19.8       14.3     1011.0       17.2       17.2        0.0        0.0        3.8       0.00        0.7       0.01       0.00       85.2
0:06              229       14.5         83       17.2      423.6       14.0       19.7       14.3     1010.9       17.2       17.2        0.0        0.0        3.8       0.00        0.8       0.01       0.00       85.2
0:08              229        0.0         83       17.2      423.6       17.2       19.7       14.3     1011.0       17.2       17.2        0.0        0.0        3.8       0.00        1.1       0.01       0.00       85.2
0:10              229        0.0         83       17.2      423.6       17.2       19.7       14.3     1011.1       17.2       17.2        0.0        0.0        3.8       0.00        1.1       0.01       0.00       85.2
0:12              229        0.0         83       17.2      423.6       17.2       19.7       14.3     1011.0       17.2       17.2        0.0        0.0        3.8       0.00        1.1       0.01       0.00       85.2
0:13              229        0.0         83       17.2      423.6       17.2       19.7       14.3     1011.1       17.2       17.2        0.0        0.0        3.8       0.00        1.1       0.01       0.00       85.2
0:16              229        0.0         83       17.2      423.6       17.2       19.7       14.3     1011.0       17.2       17.2        0.0        0.0        3.8       0.00        1.1       0.02       0.00       85.2
0:18              229        0.0         83       17.2      423.6       17.2       19.7       14.3     1011.0       17.2       17.2        0.0        0.0        3.8       0.00        1.1       0.02       0.00       85.2
0:20              229        0.0         83       17.2      423.6       17.2       19.7       14.3     1011.0       17.2       17.2        0.0        0.0        3.8       0.00        1.1       0.02       0.00       85.2
0:22              229        0.0         84       17.2      423.6       17.2       19.8       14.4     1010.9       17.2       17.2        0.0        0.0        3.8       0.00        1.1       0.02       0.00       85.2
0:24              229        0.0         84       17.2      423.6       17.2       19.8       14.4     1011.0       17.2       17.2        0.0        0.0        3.8       0.00        1.1       0.02       0.00       85.2
0:26              229        0.0         84       17.2      423.6       17.2       19.8       14.4     1010.9       17.2       17.2        0.0        0.0        3.8       0.00        1.1       0.02       0.00       85.2
0:28              229        0.0         83       17.2      423.6       17.2       19.7       14.3     1010.8       17.2       17.2        0.0        0.0        3.8       0.00        1.1       0.02       0.00       85.2
0:30              229        0.0         83       17.2      423.6       17.2       19.7       14.3     1010.9       17.2       17.2        0.0        0.0        3.8       0.00        1.1       0.02       0.00       85.2
0:32              229        0.0         83       17.1      423.6       17.1       19.7       14.2     1010.9       17.2       17.1        0.0        0.0        3.6       0.00        1.1       0.03       0.00       85.2
0:33              229        0.0         83       17.1      423.6       17.1       19.7       14.2     1010.9       17.2       17.1        0.0        0.0        3.6       0.00        1.1       0.03       0.00       85.2
0:36              229       17.7         83       17.1      423.6       13.9       19.7       14.2     1010.8       17.2       17.1        0.0        0.0        3.6       0.00        1.3       0.03       0.00       85.2
0:38              229       12.9         83       17.1      423.6       17.1       19.7       14.2     1010.8       17.2       17.1        0.0        0.0        3.6       0.00        1.7       0.03       0.00       85.2
0:39              229        8.0         83       17.1      423.6       17.1       19.7       14.2     1010.9       17.2       17.1        0.0        0.0        3.6       0.00        1.8       0.03       0.00       85.2
0:42              229        8.0         83       17.1      423.6       17.1       19.7       14.2     1010.7       17.2       17.1        0.0        0.0        3.6       0.00        2.1       0.03       0.00       85.2
0:44              229       11.3         84       17.1      423.6       15.1       19.8       14.4     1010.7       17.2       17.1        0.0        0.0        3.6       0.00        2.4       0.03       0.00       85.2
0:46              230       24.1         83       17.2      423.6       13.1       19.7       14.3     1010.6       17.2       17.1        0.0        0.0        3.4       0.00        2.8       0.03       0.00       85.2
0:48              230       12.9         83       17.2      423.6       14.5       19.7       14.3     1010.6       17.2       17.1        0.0        0.0        3.4       0.00        3.2       0.03       0.00       85.2
0:50              230       14.5         83       17.2      423.6       15.1       19.7       14.3     1010.5       17.2       17.1        0.0        0.0        3.4       0.00        3.6       0.03       0.00       85.2
0:52              231       22.5         83       17.2      423.6       13.1       19.7       14.3     1010.4       17.2       17.1        0.0        0.0        3.4       0.00        4.0       0.03       0.00       85.2
0:54              234       24.1         83       17.2      423.6       12.5       19.8       14.3     1010.4       17.2       17.1        0.0        0.0        3.4       0.00        4.6       0.03       0.00       85.2
0:56              234       14.5         83       17.2      423.6       17.2       19.8       14.3     1010.4       17.2       17.1        0.0        0.0        3.4       0.00        5.0       0.03       0.00       85.2
0:58              238       22.5         83       17.2      423.6       13.1       19.8       14.3     1010.3       17.2       17.1        0.0        0.0        3.4       0.00        5.5       0.03       0.00       85.2
1:00              239       19.3         83       17.2      423.6       15.8       19.8       14.3     1010.2       17.2       17.1        0.0        0.0        3.4       0.00        5.9       0.03       0.00       85.2
1:02              241       20.9         82       17.3      423.6       15.8       19.8       14.2     1010.2       17.3       17.1        0.0        0.0        3.0       0.00        6.4       0.04       0.00       85.2
1:04              259       24.1         82       17.3      423.6       13.2       19.8       14.2     1010.2       17.3       17.1        0.0        0.0        3.0       0.00        7.1       0.04       0.00       85.2
1:06              269       24.1         82       17.3      423.6       14.2       19.8       14.2     1010.2       17.3       17.1        0.0        0.0        3.0       0.00        7.7       0.04       0.00       85.2
1:08              270       17.7         82       17.3      423.6       13.3       19.8       14.2     1010.2       17.3       17.1        0.0        0.0        3.0       0.00        8.3       0.04       0.00       85.2
1:10              271       16.1         82       17.4      423.6       16.0       19.9       14.3     1010.1       17.4       17.1        0.0        0.0        3.0       0.00        8.7       0.04       0.00       85.2
1:11              271       22.5         82       17.4      423.6       13.4       19.9       14.3     1010.1       17.4       17.1        0.0        0.0        3.0       0.00        9.1       0.04       0.00       85.2
1:14              271       19.3         82       17.4      423.6       16.0       19.9       14.3     1010.0       17.4       17.1        0.0        0.0        3.0       0.00        9.5       0.04       0.00       85.2
1:16              273       17.7         81       17.4      423.6       17.4       19.8       14.1     1010.0       17.4       17.1        0.0        0.0        3.0       0.00       10.1       0.05       0.00       85.2
1:17              275       19.3         81       17.4      423.6       15.4       19.8       14.1     1010.0       17.4       17.1        0.0        0.0        3.0       0.00       10.6       0.05       0.00       85.2
1:20              283       17.7         81       17.4      423.6       14.9       19.9       14.2     1009.9       17.4       17.1        0.0        0.0        3.0       0.00       11.1       0.05       0.00       85.2
1:21              294       20.9         80       17.4      423.6       14.3       19.8       14.0     1009.9       17.4       17.1        0.0        0.0        3.0       0.00       11.6       0.05       0.00       85.2
1:23              292       20.9         80       17.4      423.6       13.1       19.8       14.0     1009.7       17.4       17.1        0.0        0.0        3.0       0.00       12.4       0.05       0.00       85.2
1:26              298       20.9         80       17.4      423.6       14.3       19.8       14.0     1009.9       17.4       17.1        0.0        0.0        3.0       0.00       12.9       0.05       0.00       85.2
1:28              297       35.4         79       17.4      423.6       12.8       19.7       13.8     1009.8       17.4       17.1        0.0        0.0        3.0       0.00       13.7       0.05       0.00       85.2
1:30              304       20.9         79       17.4      423.6       14.3       19.7       13.8     1009.9       17.4       17.1        0.0        0.0        3.0       0.00       14.3       0.05       0.00       85.2
1:32              307       17.7         79       17.4      423.6       17.4       19.7       13.8     1009.9       17.4       17.1        0.0        0.0        1.8       0.00       14.9       0.05       0.00       85.2
1:34              313       35.4         79       17.5      423.6       12.2       19.8       13.8     1010.0       17.5       17.1        0.0        0.0        1.8       0.00       15.5       0.05       0.00       85.2
1:36              311       12.9         79       17.5      423.6       17.5       19.8       13.8     1010.3       17.5       17.1        0.0        0.0        1.8       0.00       16.0       0.05       0.00       85.2
1:38              311        6.4         79       17.6      423.6       17.6       19.8       13.9     1010.4       17.6       17.1        0.0        0.0        1.8       0.00       16.3       0.05       0.00       85.2
1:40              310        6.4         78       17.6      423.6       17.6       19.8       13.7     1010.7       17.6       17.1        0.0        0.0        1.8       0.00       16.5       0.05       0.00       85.2
1:42              283       11.3         78       17.6      423.6       17.6       19.8       13.7     1010.7       17.6       17.1        0.0        0.0        1.8       0.00       16.7       0.05       0.00       85.2
1:44              148       12.9         78       17.6      423.6       16.1       19.8       13.7     1011.1       17.6       17.1        0.0        0.0        1.8       0.00       17.1       0.05       0.00       85.2
1:46              145        9.7         78       17.6      423.6       17.6       19.8       13.7     1011.2       17.6       17.1        0.0        0.0        1.6       0.00       17.3       0.06       0.00       85.2
1:48              145        3.2         78       17.6      423.6       17.6       19.8       13.7     1011.0       17.6       17.1        0.0        0.0        1.6       0.00       17.4       0.06       0.00       85.2
1:50              145        9.7         78       17.6      423.6       17.6       19.8       13.7     1011.2       17.6       17.1        0.0        0.0        1.6       0.00       17.5       0.06       0.00       85.2
1:52              145       19.3         78       17.6      423.6       16.8       19.8       13.7     1011.5       17.6       17.1        0.0        0.0        1.6       0.00       17.9       0.06       0.00       85.2
1:54              142        8.0         78       17.7      423.6       17.7       19.9       13.8     1011.3       17.7       17.1        0.0        0.0        1.6       0.00       18.1       0.06       0.00       85.2
1:55              143        9.7         79       17.7      423.6       17.7       19.9       14.0     1011.3       17.7       17.1        0.0        0.0        1.6       0.00       18.3       0.06       0.00       85.2
1:58              149       17.7         79       17.7      423.6       15.1       19.9       14.0     1011.2       17.7       17.1        0.0        0.0        1.6       0.00       18.7       0.06       0.00       85.2
2:00              153       12.9         79       17.7      423.6       15.1       19.9       14.0     1011.0       17.7       17.1        0.0        0.0        1.6       0.00       19.1       0.06       0.00       85.2
2:02              159        6.4         79       17.7      423.6       17.7       19.9       14.0     1010.8       17.7       17.1        0.0        0.0        1.4       0.00       19.4       0.06       0.00       85.2
2:04              159       12.9         79       17.6      423.6       16.8       19.9       13.9     1010.9       17.7       17.1        0.0        0.0        1.4       0.00       19.7       0.06       0.00       85.2
2:06              160       12.9         79       17.6      423.6       15.6       19.9       13.9     1011.2       17.7       17.1        0.0        0.0        1.4       0.00       20.0       0.06       0.00       85.2
2:08              160        9.7         79       17.6      423.6       17.6       19.9       13.9     1011.2       17.7       17.1        0.0        0.0        1.4       0.00       20.3       0.06       0.00       85.2
2:10              161        0.0         79       17.6      423.6       17.6       19.8       13.9     1011.0       17.7       17.1        0.0        0.0        1.4       0.00       20.5       0.06       0.00       85.2
2:12              160        0.0         79       17.5      423.6       17.5       19.8       13.8     1010.9       17.7       17.1        0.0        0.0        1.4       0.00       20.5       0.06       0.00       85.2
2:14              160        0.0         80       17.5      423.6       17.5       19.8       14.0     1010.8       17.7       17.1        0.0        0.0        1.4       0.00       20.5       0.06       0.00       85.2
2:16              160        0.0         80       17.4      423.6       17.4       19.8       14.0     1010.8       17.7       17.1        0.0        0.0        1.0       0.00       20.5       0.07       0.00       85.2
2:18              160        0.0         80       17.4      423.6       17.4       19.7       13.9     1010.8       17.7       17.1        0.0        0.0        1.0       0.00       20.5       0.07       0.00       85.2
2:20              161        0.0         81       17.3      423.6       17.3       19.8       14.0     1010.7       17.7       17.1        0.0        0.0        1.0       0.00       20.5       0.07       0.00       85.2
2:22              161        0.0         81       17.3      423.6       17.3       19.7       14.0     1010.6       17.7       17.1        0.0        0.0        1.0       0.00       20.5       0.07       0.00       85.2
2:24              161        0.0         81       17.3      423.6       17.3       19.7       14.0     1010.5       17.7       17.1        0.0        0.0        1.0       0.00       20.5       0.07       0.00       85.2
2:26              160        0.0         81       17.2      423.6       17.2       19.6       13.9     1010.5       17.7       17.1        0.0        0.0        1.0       0.00       20.5       0.07       0.00       85.2
2:28              161        0.0         81       17.2      423.6       17.2       19.6       13.9     1010.4       17.7       17.1        0.0        0.0        1.0       0.00       20.5       0.07       0.00       85.2
2:30              160        0.0         81       17.2      423.6       17.2       19.6       13.9     1010.4       17.7       17.1        0.0        0.0        1.0       0.00       20.5       0.07       0.00       85.2
2:32              161        0.0         81       17.2      423.6       17.2       19.6       13.9     1010.4       17.7       17.1        0.0        0.0        0.6       0.00       20.5       0.08       0.00       85.2
2:34              161        0.0         81       17.2      423.6       17.2       19.6       13.9     1010.4       17.7       17.1        0.0        0.0        0.6       0.00       20.5       0.08       0.00       85.2
2:36              165       19.3         81       17.2      423.6       14.0       19.6       13.9     1010.4       17.7       17.1        0.0        0.0        0.6       0.00       20.7       0.08       0.00       85.2
2:38              171       11.3         82       17.2      423.6       15.7       19.7       14.1     1010.3       17.7       17.1        0.0        0.0        0.6       0.00       21.1       0.08       0.00       85.2
2:40              173       14.5         82       17.1      423.6       14.5       19.6       14.0     1010.2       17.7       17.1        0.0        0.0        0.6       0.00       21.4       0.08       0.00       85.2
2:42              174        9.7         82       17.1      423.6       16.2       19.6       14.0     1010.2       17.7       17.1        0.0        0.0        0.6       0.00       21.6       0.08       0.00       85.2
2:44              174        8.0         82       17.1      423.6       17.1       19.6       14.0     1010.2       17.7       17.1        0.0        0.0        0.6       0.00       21.8       0.08       0.00       85.2
2:45              174        8.0         82       17.2      423.6       17.2       19.7       14.1     1010.2       17.7       17.1        0.0        0.0        0.2       0.00       22.0       0.09       0.00       85.2
2:48              174        3.2         82       17.2      423.6       17.2       19.7       14.1     1010.5       17.7       17.1        0.0        0.0        0.2       0.00       22.2       0.09       0.00       85.2
2:50              174        4.8         81       17.2      423.6       17.2       19.6       13.9     1010.6       17.7       17.1        0.0        0.0        0.2       0.00       22.4       0.09       0.00       85.2
2:51              174       19.3         82       17.2      423.6       13.4       19.7       14.1     1010.5       17.7       17.1        0.0        0.0        0.2       0.00       22.7       0.09       0.00       85.2
2:54              178       11.3         82       17.2      423.6       17.2       19.7       14.1     1010.4       17.7       17.1        0.0        0.0        0.2       0.00       23.1       0.09       0.00       85.2
2:56              214       22.5         82       17.2      423.6       14.5       19.7       14.1     1010.3       17.7       17.1        0.0        0.0        0.2       0.00       23.5       0.09       0.00       85.2
2:58              221       17.7         82       17.2      423.6       15.7       19.7       14.1     1010.4       17.7       17.1        0.0        0.0        0.2       0.00       23.9       0.09       0.00       85.2
3:00              223       11.3         82       17.1      423.6       17.1       19.6       14.0     1010.4       17.7       17.1        0.0        0.0        0.2       0.00       24.3       0.09       0.00       85.2
3:02              223        9.7         82       17.1      423.6       17.1       19.6       14.0     1010.3       17.7       17.1        0.0        0.0        0.0       0.00       24.6       0.09       0.00       85.2
3:03              236       22.5         82       17.1      423.6       12.4       19.6       14.0     1010.2       17.7       17.1        0.0        0.0        0.0       0.00       25.0       0.09       0.00       85.2
3:06              245       22.5         82       17.1      423.6       14.4       19.6       14.0     1010.1       17.7       17.1        0.0        0.0        0.0       0.00       25.5       0.09       0.00       85.2
3:08              248       16.1         82       17.0      423.6       13.8       19.5       13.9     1010.3       17.7       17.0        0.0        0.0        0.0       0.00       26.0       0.09       0.00       85.2
3:10              249       20.9         82       17.0      423.6       13.2       19.5       13.9     1010.4       17.7       17.0        0.0        0.0        0.0       0.00       26.5       0.09       0.00       85.2
3:12              250       16.1         82       17.0      423.6       14.3       19.5       13.9     1010.5       17.7       17.0        0.0        0.0        0.0       0.00       27.1       0.09       0.00       85.2
3:14              250       12.9         82       17.0      423.6       14.3       19.5       13.9     1010.6       17.7       17.0        0.0        0.0        0.0       0.00       27.5       0.09       0.00       85.2
3:16              251       17.7         82       17.0      423.6       14.9       19.5       13.9     1010.7       17.7       17.0        0.0        0.0        0.0       0.00       28.0       0.10       0.00       85.2
3:18              251        4.8         82       17.0      423.6       17.0       19.5       13.9     1010.7       17.7       17.0        0.0        0.0        0.0       0.00       28.3       0.10       0.00       85.2
3:20              250       17.7         82       17.0      423.6       12.9       19.5       13.9     1010.7       17.7       17.0        0.0        0.0        0.0       0.00       28.6       0.10       0.00       85.2
3:21              246       27.4         82       17.0      423.6       11.9       19.5       13.9     1010.6       17.7       17.0        0.0        0.0        0.0       0.00       29.1       0.10       0.00       85.2
3:24              242       17.7         82       17.1      423.6       16.2       19.6       14.0     1010.6       17.7       17.0        0.0        0.0        0.0       0.00       29.6       0.10       0.00       85.2
3:26              242       12.9         82       17.1      423.6       15.6       19.6       14.0     1010.6       17.7       17.0        0.0        0.0        0.0       0.00       29.9       0.10       0.00       85.2
3:28              242       14.5         82       17.0      423.6       15.5       19.5       13.9     1010.6       17.7       17.0        0.0        0.0        0.0       0.00       30.3       0.10       0.00       85.2
3:30              242        9.7         82       17.0      423.6       17.0       19.5       13.9     1010.6       17.7       17.0        0.0        0.0        0.0       0.00       30.8       0.10       0.00       85.2
3:32              243        9.7         82       17.0      423.6       17.0       19.5       13.9     1010.5       17.7       17.0        0.0        0.0        0.0       0.00       31.1       0.12       0.00       85.2
3:34              243       16.1         82       17.0      423.6       14.3       19.5       13.9     1010.5       17.7       17.0        0.0        0.0        0.0       0.00       31.4       0.12       0.00       85.2
3:36              245       29.0         82       17.0      423.6       12.9       19.5       13.9     1010.5       17.7       17.0        0.0        0.0        0.0       0.00       31.9       0.12       0.00       85.2
3:38              248       17.7         82       17.1      423.6       16.2       19.6       14.0     1010.4       17.7       17.0        0.0        0.0        0.0       0.00       32.5       0.12       0.00       85.2
3:40              250       14.5         82       17.1      423.6       17.1       19.6       14.0     1010.5       17.7       17.0        0.0        0.0        0.0       0.00       32.9       0.12       0.00       85.2
3:41              248       25.7         82       17.1      423.6       12.9       19.6       14.0     1010.4       17.7       17.0        0.0        0.0        0.0       0.00       33.3       0.12       0.00       85.2
3:44              246       30.6         81       17.1      423.6       13.3       19.5       13.8     1010.2       17.7       17.0        0.0        0.0        0.0       0.00       33.8       0.12       0.00       85.2
3:46              242       24.1         81       17.1      423.6       12.7       19.5       13.8     1009.8       17.7       17.0        0.0        0.0        0.0       0.00       34.5       0.12       0.00       85.2
3:48              249       20.9         81       17.1      423.6       13.0       19.5       13.8     1009.9       17.7       17.0        0.0        0.0        0.0       0.00       35.1       0.12       0.00       85.2
3:50              294       32.2         81       17.2      423.6       10.4       19.6       13.9     1010.2       17.7       17.0        0.0        0.0        0.0       0.00       35.8       0.12       0.00       85.2
3:52              304       24.1         81       17.2      423.6       12.2       19.6       13.9     1010.4       17.7       17.0        0.0        0.0        0.0       0.00       36.4       0.12       0.00       85.2
3:54              293       29.0         81       17.3      423.6       12.3       19.7       14.0     1010.1       17.7       17.0        0.0        0.0        0.0       0.00       37.2       0.12       0.00       85.2
3:56              286       16.1         80       17.3      423.6       13.6       19.7       13.9     1009.8       17.7       17.0        0.0        0.0        0.0       0.00       37.7       0.12       0.00       85.2
3:58              230       32.2         80       17.4      423.6       12.4       19.7       13.9     1009.6       17.7       17.0        0.0        0.0        0.0       0.00       38.4       0.12       0.00       85.2
4:00              240       29.0         80       17.4      423.6       11.5       19.7       13.9     1009.5       17.7       17.0        0.0        0.0        0.0       0.00       39.2       0.12       0.00       85.2
4:01              244       11.3         80       17.4      423.6       17.4       19.7       13.9     1009.7       17.7       17.0        0.0        0.0        0.0       0.00       39.8       0.13       0.00       85.2
4:04              223       16.1         80       17.4      423.6       13.7       19.7       13.9     1010.2       17.7       17.0        0.0        0.0        0.0       0.00       40.2       0.13       0.00       85.2
4:06              179       27.4         81       17.4      423.6       11.8       19.8       14.1     1010.4       17.7       17.0        0.0        0.0        0.0       0.00       40.8       0.13       0.00       85.2
4:07              196       14.5         81       17.3      423.6       16.5       19.8       14.0     1010.5       17.7       17.0        0.0        0.0        0.0       0.00       41.4       0.13       0.00       85.2
4:10              197       29.0         81       17.3      423.6       14.2       19.8       14.0     1010.4       17.7       17.0        0.0        0.0        0.0       0.00       41.9       0.13       0.00       85.2
4:12              219       35.4         81       17.3      423.6       14.2       19.8       14.0     1010.3       17.7       17.0        0.0        0.0        0.0       0.00       42.6       0.13       0.00       85.2
4:13              232       24.1         81       17.3      423.6       15.3       19.7       14.0     1010.4       17.7       17.0        0.0        0.0        0.0       0.00       43.0       0.13       0.00       85.2
4:16              232       16.1         81       17.3      423.6       14.7       19.7       14.0     1010.5       17.7       17.0        0.0        0.0        0.0       0.00       43.3       0.14       0.00       85.2
4:18              232        6.4         81       17.2      423.6       17.2       19.6       13.9     1010.8       17.7       17.0        0.0        0.0        0.0       0.00       43.5       0.14       0.00       85.2
4:20              233        9.7         81       17.2      423.6       15.8       19.6       13.9     1010.9       17.7       17.0        0.0        0.0        0.0       0.00       43.5       0.14       0.00       85.2
4:22              227       19.3         81       17.2      423.6       14.6       19.6       13.9     1010.8       17.7       17.0        0.0        0.0        0.0       0.00       43.9       0.14       0.00       85.2
4:24              220       22.5         81       17.2      423.6       14.6       19.6       13.9     1010.6       17.7       17.0        0.0        0.0        0.0       0.00       44.3       0.14       0.00       85.2
4:25              220        6.4         81       17.2      423.6       17.2       19.6       13.9     1010.6       17.7       17.0        0.0        0.0        0.0       0.00       44.6       0.14       0.00       85.2
4:28              220        6.4         81       17.2      423.6       17.2       19.6       13.9     1010.8       17.7       17.0        0.0        0.0        0.0       0.00       44.8       0.14       0.00       85.2
4:30              220       14.5         81       17.2      423.6       15.1       19.6       13.9     1010.6       17.7       17.0        0.0        0.0        0.0       0.00       45.1       0.14       0.00       85.2
4:32              220       19.3         81       17.1      423.6       17.1       19.5       13.8     1010.5       17.7       17.0        0.0        0.0        0.0       0.00       45.6       0.15       0.00       85.2
4:34              220       11.3         82       17.1      423.6       16.2       19.6       14.0     1010.7       17.7       17.0        0.0        0.0        0.0       0.00       45.8       0.15       0.00       85.2
4:36              220        8.0         82       17.1      423.6       17.1       19.6       14.0     1010.8       17.7       17.0        0.0        0.0        0.0       0.00       46.1       0.15       0.00       85.2
4:37              220        4.8         82       17.0      423.6       17.0       19.5       13.9     1010.8       17.7       17.0        0.0        0.0        0.0       0.00       46.2       0.15       0.00       85.2
4:39              220        4.8         82       17.0      423.6       17.0       19.5       13.9     1010.8       17.7       17.0        0.0        0.0        0.0       0.00       46.4       0.15       0.00       85.2
4:42              220        8.0         82       17.0      423.6       17.0       19.5       13.9     1010.8       17.7       17.0        0.0        0.0        0.0       0.00       46.5       0.15       0.00       85.2
4:44              220        3.2         82       16.9      423.6       16.9       19.4       13.9     1010.8       17.7       16.9        0.0        0.0        0.0       0.00       46.7       0.15       0.00       85.2
4:46              220        4.8         82       16.9      423.6       16.9       19.4       13.9     1011.0       17.7       16.9        0.0        0.0        0.0       0.00       46.7       0.16       0.00       85.2
4:48              220        4.8         82       16.9      423.6       16.9       19.4       13.9     1011.0       17.7       16.9        0.0        0.0        0.0       0.00       46.8       0.16       0.00       85.2
4:50              220        4.8         82       16.9      423.6       16.9       19.4       13.8     1010.9       17.7       16.9        0.0        0.0        0.0       0.00       47.0       0.16       0.00       85.2
4:51              221        3.2         82       16.9      423.6       16.9       19.4       13.8     1010.9       17.7       16.9        0.0        0.0        0.0       0.00       47.1       0.16       0.00       85.2
4:54              220        0.0         82       16.9      423.6       16.9       19.4       13.8     1011.1       17.7       16.9        0.0        0.0        0.0       0.00       47.2       0.16       0.00       85.2
4:56              221        0.0         82       16.9      423.6       16.9       19.4       13.8     1011.3       17.7       16.9        0.0        0.0        0.0       0.00       47.2       0.16       0.00       85.2
4:57              221        0.0         82       16.9      423.6       16.9       19.4       13.8     1011.3       17.7       16.9        0.0        0.0        0.0       0.00       47.2       0.16       0.00       85.2
5:00              220        0.0         82       16.9      423.6       16.9       19.4       13.8     1011.3       17.7       16.8        0.0        0.0        0.0       0.00       47.2       0.16       0.00       85.2
5:02              221        0.0         82       16.8      423.6       16.8       19.3       13.7     1011.2       17.7       16.8        0.0        0.0        0.0       0.00       47.2       0.17       0.00       85.2
5:04              221       14.5         82       16.8      423.6       15.9       19.3       13.7     1011.0       17.7       16.8        0.0        0.0        0.0       0.00       47.4       0.17       0.00       85.2
5:06              221        9.7         82       16.8      423.6       16.8       19.3       13.7     1010.9       17.7       16.8        0.0        0.0        0.0       0.00       47.7       0.17       0.00       85.2
5:08              221        6.4         82       16.8      423.6       16.8       19.3       13.7     1011.0       17.7       16.8        0.0        0.0        0.0       0.00       47.9       0.17       0.00       85.2
5:10              221        6.4         83       16.8      423.6       16.8       19.4       13.9     1010.8       17.7       16.8        0.0        0.0        0.0       0.00       48.1       0.17       0.00       85.2
5:12              222        9.7         83       16.8      423.6       16.8       19.4       13.9     1010.9       17.7       16.7        0.0        0.0        0.0       0.00       48.3       0.17       0.00       85.2
5:14              222        4.8         83       16.7      423.6       16.7       19.3       13.8     1011.0       17.7       16.7        0.0        0.0        0.0       0.00       48.4       0.17       0.00       85.2
5:15              222       11.3         83       16.7      423.6       14.6       19.3       13.8     1011.0       17.7       16.7        0.0        0.0        0.0       0.00       48.6       0.18       0.00       85.2
5:18              225       11.3         83       16.7      423.6       14.6       19.3       13.8     1010.8       17.7       16.7        0.0        0.0        0.0       0.00       48.8       0.18       0.00       85.2
5:20              225        6.4         83       16.7      423.6       16.7       19.2       13.8     1010.8       17.7       16.7        0.0        0.0        0.0       0.00       49.0       0.18       0.00       85.2
5:22              225        1.6         83       16.7      423.6       16.7       19.3       13.8     1011.0       17.7       16.7        0.0        0.0        0.0       0.00       49.1       0.18       0.00       85.2
5:24              225        6.4         83       16.7      423.6       16.7       19.3       13.8     1011.1       17.7       16.7        0.0        0.0        0.0       0.00       49.2       0.18       0.00       85.2
5:26              225       14.5         83       16.7      423.6       14.6       19.2       13.8     1011.0       17.7       16.7        0.0        0.0        0.0       0.00       49.5       0.18       0.00       85.2
5:28              225       16.1         83       16.7      423.6       12.8       19.3       13.8     1010.9       17.7       16.7        0.0        0.0        0.0       0.00       49.8       0.18       0.00       85.2
5:30              226       17.7         83       16.7      423.6       14.0       19.3       13.8     1010.9       17.7       16.7        0.0        0.0        0.0       0.00       50.2       0.18       0.00       85.2
5:32              231       11.3         83       16.7      423.6       14.6       19.3       13.8     1010.9       17.7       16.7        0.0        0.0        0.0       0.00       50.6       0.20       0.00       85.2
5:34              232       11.3         83       16.7      423.6       14.6       19.3       13.8     1010.8       17.7       16.7        0.0        0.0        0.0       0.00       51.0       0.20       0.00       85.2
5:36              232        9.7         82       16.7      423.6       16.7       19.2       13.6     1011.0       17.7       16.7        0.0        0.0        0.0       0.00       51.3       0.20       0.00       85.2
5:38              232        8.0         83       16.7      423.6       16.7       19.3       13.8     1010.9       17.7       16.7        0.0        0.0        0.0       0.00       51.6       0.20       0.00       85.2
5:40              232        9.7         82       16.7      423.6       15.8       19.2       13.6     1011.0       17.7       16.7        0.0        0.0        0.0       0.00       51.8       0.20       0.00       85.2
5:41              233        9.7         82       16.7      423.6       15.8       19.2       13.6     1011.0       17.7       16.7        0.0        0.0        0.0       0.00       52.1       0.20       0.00       85.2
5:44              233        4.8         82       16.7      423.6       16.7       19.2       13.6     1010.9       17.7       16.7        0.0        0.0        0.0       0.00       52.3       0.20       0.00       85.2
5:46              233        8.0         82       16.7      423.6       16.7       19.2       13.6     1010.9       17.7       16.7        0.0        0.0        0.0       0.00       52.6       0.21       0.00       85.2
5:47              234       17.7         82       16.8      423.6       14.7       19.3       13.7     1010.9       17.7       16.7        0.0        0.0        0.0       0.00       52.9       0.21       0.00       85.2
5:50              234       16.1         82       16.8      423.6       12.9       19.3       13.7     1010.9       17.7       16.7        0.0        0.0        0.0       0.00       53.2       0.21       0.00       85.2
5:52              234       22.5         82       16.8      423.6       11.9       19.3       13.7     1010.8       17.7       16.7        0.0        0.0        0.0       0.00       53.6       0.21       0.00       85.2
5:54              234       20.9         81       16.7      423.6       11.9       19.1       13.4     1010.8       17.7       16.7        0.0        0.0        0.0       0.00       54.1       0.21       0.00       85.2
5:56              235       22.5         81       16.7      423.6       15.8       19.1       13.4     1010.8       17.7       16.7        0.0        0.0        0.0       0.00       54.5       0.21       0.00       85.2
5:58              236       20.9         81       16.8      423.6       15.3       19.2       13.5     1010.8       17.7       16.7        0.0        0.0        0.0       0.00       54.8       0.21       0.00       85.2
6:00              237       11.3         82       16.7      423.6       14.6       19.2       13.6     1010.7       17.7       16.7        0.0        0.0        0.0       0.00       55.1       0.21       0.00       85.2
6:02              240        8.0         82       16.7      423.6       15.8       19.2       13.6     1010.6       17.7       16.7        0.0        0.0        0.0       0.00       55.4       0.22       0.00       85.2
6:04              240        6.4         82       16.7      423.6       16.7       19.2       13.6     1010.8       17.7       16.7        0.0        0.0        0.0       0.00       55.6       0.22       0.00       85.2
6:06              238       12.9         82       16.7      423.6       15.2       19.2       13.6     1010.9       17.7       16.7        0.0        0.0        0.0       0.00       55.9       0.22       0.00       85.2
6:08              239        8.0         82       16.7      423.6       16.7       19.2       13.6     1010.9       17.7       16.7        0.0        0.0        0.0       0.00       56.1       0.22       0.00       85.2
6:10              239        9.7         82       16.7      423.6       15.8       19.2       13.6     1010.7       17.7       16.7        0.0        0.0        0.0       0.00       56.3       0.22       0.00       85.2
6:12              239        6.4         82       16.7      423.6       16.7       19.2       13.6     1010.9       17.7       16.7        0.0        0.0        0.0       0.00       56.5       0.22       0.00       85.2
6:14              237        6.4         82       16.7      423.6       16.7       19.2       13.6     1011.0       17.7       16.7        0.0        0.0        0.0       0.00       56.7       0.22       0.00       85.2
6:16              236        8.0         82       16.6      423.6       16.6       19.1       13.5     1011.0       17.7       16.6        0.0        0.0        0.0       0.00       56.9       0.24       0.00       85.2
6:18              236        9.7         82       16.6      423.6       15.7       19.1       13.5     1011.0       17.7       16.6        0.0        0.0        0.0       0.00       57.1       0.24       0.00       85.2
6:19              236        6.4         82       16.6      423.6       16.6       19.1       13.5     1010.9       17.7       16.6        0.0        0.0        0.0       0.00       57.3       0.24       0.00       85.2
6:22              236        6.4         82       16.6      423.6       16.6       19.1       13.5     1011.2       17.7       16.6        0.0        0.0        0.0       0.00       57.5       0.24       0.00       85.2
6:24              236        6.4         83       16.6      423.6       16.6       19.2       13.7     1011.1       17.7       16.6        0.0        0.0        0.0       0.00       57.6       0.24       0.00       85.2
6:25              236        4.8         83       16.6      423.6       16.6       19.2       13.7     1011.1       17.7       16.6        0.0        0.0        0.0       0.00       57.8       0.24       0.00       85.2
6:28              236        8.0         83       16.6      423.6       16.6       19.2       13.7     1011.2       17.7       16.6        0.0        0.0        0.0       0.00       57.9       0.24       0.00       85.2
6:30              236        8.0         83       16.6      423.6       16.6       19.2       13.7     1011.4       17.7       16.6        0.0        0.0        0.0       0.00       58.1       0.24       0.00       85.2
6:31              236        6.4         83       16.6      423.6       16.6       19.2       13.7     1011.3       17.7       16.6        0.0        0.0        0.0       0.00       58.3       0.25       0.00       85.2
6:34              236        0.0         83       16.6      423.6       16.6       19.2       13.7     1011.4       17.7       16.6        0.0        0.0        0.0       0.00       58.4       0.25       0.00       85.2
6:36              236        0.0         83       16.7      423.6       16.7       19.2       13.8     1011.4       17.7       16.6        0.0        0.0        0.0       0.00       58.4       0.25       0.00       85.2
6:38              236        0.0         83       16.7      423.6       16.7       19.2       13.8     1011.4       17.7       16.6        0.0        0.0        0.0       0.00       58.4       0.25       0.00       85.2
6:40              236        0.0         83       16.7      423.6       16.7       19.2       13.8     1011.4       17.7       16.6        0.0        0.0        0.0       0.00       58.4       0.25       0.00       85.2
6:42              236        0.0         83       16.7      423.6       16.7       19.3       13.8     1011.4       17.7       16.6        0.0        0.0        0.0       0.00       58.4       0.25       0.00       85.2
6:44              236        0.0         84       16.7      423.6       16.7       19.4       14.0     1011.6       17.7       16.6        0.0        0.0        0.0       0.00       58.4       0.25       0.00       85.2
6:46              236        0.0         84       16.8      423.6       16.8       19.4       14.1     1011.6       17.7       16.6        0.0        0.0        0.0       0.00       58.4       0.26       0.00       85.2
6:48              236        0.0         84       16.8      423.6       16.8       19.5       14.1     1011.7       17.7       16.6        0.0        0.0        0.0       0.00       58.4       0.26       0.00       85.2
6:49              236        0.0         84       16.9      423.6       16.9       19.5       14.2     1011.7       17.7       16.6        0.0        0.0        0.0       0.00       58.4       0.26       0.00       85.2
6:52              236        0.0         83       16.9      423.6       16.9       19.5       14.0     1011.5       17.7       16.6        0.0        0.0        0.0       0.00       58.4       0.26       0.00       85.2
6:54              236        0.0         83       16.9      423.6       16.9       19.5       14.0     1011.5       17.7       16.6        0.0        0.0        0.0       0.00       58.4       0.26       0.00       85.2
6:55              236        0.0         82       17.0      423.6       17.0       19.5       13.9     1011.4       17.7       16.6        0.0        0.0        0.0       0.00       58.4       0.26       0.00       85.2
6:58              236        0.0         82       17.1      423.6       17.1       19.6       14.0     1011.5       17.7       16.6        0.0        0.0        0.0       0.00       58.4       0.26       0.00       85.2
7:00              236        0.0         82       17.1      423.6       17.1       19.6       14.0     1011.5       17.7       16.6        0.0        0.0        0.0       0.00       58.4       0.26       0.00       85.2
7:02              236        0.0         82       17.1      423.6       17.1       19.6       14.0     1011.5       17.7       16.6        0.0        0.0        0.0       0.00       58.4       0.27       0.00       85.2
7:04              236        0.0         82       17.2      423.6       17.2       19.7       14.1     1011.5       17.7       16.6        0.0        0.0        0.0       0.00       58.4       0.27       0.00       85.2
7:06              236        0.0         82       17.2      423.6       17.2       19.7       14.1     1011.6       17.7       16.6        0.0        0.0        0.0       0.00       58.4       0.27       0.00       85.2
7:08              236        0.0         82       17.3      423.6       17.3       19.8       14.2     1011.6       17.7       16.6        0.0        0.0        0.0       0.00       58.4       0.27       0.00       85.2
7:10              236        0.0         82       17.3      423.6       17.3       19.8       14.2     1011.7       17.7       16.6        0.0        0.0        0.0       0.00       58.4       0.27       0.00       85.2
7:12              236        0.0         82       17.4      423.6       17.4       19.9       14.3     1011.8       17.7       16.6        0.0        0.0        0.0       0.00       58.4       0.27       0.00       85.2
7:13              236        0.0         82       17.4      423.6       17.4       19.9       14.3     1011.7       17.7       16.6        0.0        0.0        0.0       0.00       58.4       0.27       0.00       85.2
7:16              236        0.0         82       17.5      423.6       17.5       20.0       14.4     1011.7       17.7       16.6        0.0        0.0        0.0       0.00       58.4       0.28       0.00       85.2
7:18              236        0.0         82       17.6      423.6       17.6       20.1       14.5     1011.7       17.7       16.6        0.0        0.0        0.0       0.00       58.4       0.28       0.00       85.2
7:20              236        0.0         81       17.6      423.6       17.6       20.0       14.3     1011.8       17.7       16.6        0.0        0.0        0.0       0.00       58.4       0.28       0.00       85.2
7:21              236        0.0         81       17.7      423.6       17.7       20.1       14.4     1011.8       17.7       16.6        0.0        0.0        0.0       0.00       58.4       0.28       0.00       85.2
7:23              236        0.0         81       17.7      423.6       17.7       20.1       14.4     1011.8       17.7       16.6        0.0        0.0        0.0       0.00       58.4       0.28       0.00       85.2
7:26              236        0.0         81       17.8      423.6       17.8       20.3       14.5     1011.8       17.8       16.6        0.0        0.0        0.0       0.00       58.4       0.28       0.00       85.2
7:28              236        0.0         81       17.8      423.6       17.8       20.3       14.5     1011.8       17.8       16.6        0.0        0.0        0.0       0.00       58.4       0.28       0.00       85.2
7:30              236        0.0         80       17.9      423.6       17.9       20.2       14.4     1011.8       17.9       16.6        0.0        0.0        0.0       0.00       58.4       0.28       0.00       85.2
7:31              236        0.0         80       17.9      423.6       17.9       20.2       14.4     1011.8       17.9       16.6        0.0        0.0        0.0       0.00       58.4       0.28       0.00       85.2
7:34              236        0.0         80       17.9      423.6       17.9       20.3       14.4     1011.9       17.9       16.6        0.0        0.0        0.0       0.00       58.4       0.28       0.00       85.2
7:36              236        0.0         80       18.1      423.6       18.1       20.4       14.6     1011.9       18.1       16.6        0.0        0.0        0.0       0.00       58.4       0.28       0.00       85.2
7:38              236        0.0         80       18.1      423.6       18.1       20.5       14.6     1011.9       18.1       16.6        0.0        0.0        0.0       0.00       58.4       0.28       0.00       85.2
7:39              236        0.0         80       18.2      423.6       18.2       20.5       14.7     1011.9       18.2       16.6        0.0        0.0        0.0       0.00       58.4       0.28       0.00       85.2
7:42              236        4.8         79       18.2      423.6       18.2       20.5       14.5     1011.9       18.2       16.6        0.0        0.0        0.0       0.00       58.4       0.28       0.00       85.2
7:44              236        6.4         79       18.3      423.6       18.3       20.6       14.6     1011.9       18.3       16.6        0.0        0.0        0.0       0.00       58.6       0.28       0.00       85.2
7:46              236        0.0         78       18.3      423.6       18.3       20.5       14.4     1012.0       18.3       16.6        0.0        0.0        0.0       0.00       58.6       0.28       0.00       85.2
7:48              236        6.4         78       18.4      423.6       18.4       20.6       14.5     1012.0       18.4       16.6        0.0        0.0        0.0       0.00       58.8       0.28       0.00       85.2
7:50              236        0.0         78       18.5      423.6       18.5       20.7       14.6     1012.0       18.5       16.6        0.0        0.0        0.0       0.00       58.8       0.28       0.00       85.2
7:52              236        9.7         77       18.6      423.6       17.2       20.7       14.5     1012.1       18.6       16.6        0.0        0.0        0.0       0.00       59.0       0.28       0.00       85.2
7:54              236        0.0         76       18.7      423.6       18.7       20.7       14.4     1012.1       18.7       16.6        0.0        0.0        0.0       0.00       59.1       0.28       0.00       85.2
7:56              236        0.0         76       18.8      423.6       18.8       20.8       14.5     1012.1       18.8       16.6        0.0        0.0        0.0       0.00       59.2       0.28       0.00       85.2
7:58              236       11.3         76       18.8      423.6       18.8       20.9       14.5     1012.0       18.8       16.6        0.0        0.0        0.0       0.00       59.2       0.28       0.00       85.2
8:00              236        6.4         75       18.9      423.6       18.9       20.9       14.4     1012.0       18.9       16.6        0.0        0.0        0.0       0.00       59.3       0.28       0.00       85.2
8:02              236        0.0         75       19.0      423.6       19.0       21.0       14.5     1012.0       19.0       16.6        0.0        0.0        0.0       0.00       59.5       0.28       0.00       85.2
8:04              236       14.5         75       19.1      423.6       16.2       21.0       14.5     1012.1       19.1       16.6        0.0        0.0        0.0       0.00       59.7       0.28       0.00       85.2
8:05              236        4.8         75       19.1      423.6       19.1       21.1       14.6     1012.1       19.1       16.6        0.0        0.0        0.0       0.00       59.9       0.28       0.00       85.2
8:08              236        6.4         75       19.2      423.6       19.2       21.2       14.6     1012.1       19.2       16.6        0.0        0.0        0.0       0.00       60.1       0.28       0.00       85.2
8:10              236        3.2         75       19.2      423.6       19.2       21.2       14.7     1012.1       19.2       16.6        0.0        0.0        0.0       0.00       60.2       0.28       0.00       85.2
8:11              236        6.4         74       19.2      423.6       19.2       21.1       14.5     1012.1       19.2       16.6        0.0        0.0        0.0       0.00       60.4       0.28       0.00       85.2
8:14              234        9.7         75       19.2      423.6       17.9       21.2       14.6     1012.0       19.2       16.6        0.0        0.0        0.0       0.00       60.6       0.28       0.00       85.2
8:16              234        4.8         74       19.2      423.6       19.2       21.1       14.4     1012.0       19.2       16.6        0.0        0.0        0.0       0.00       60.8       0.28       0.00       85.2
8:18              234        6.4         75       19.2      423.6       19.2       21.2       14.6     1012.0       19.2       16.6        0.0        0.0        0.0       0.00       61.0       0.28       0.00       85.2
8:20              228       11.3         75       19.2      423.6       19.2       21.2       14.7     1012.1       19.2       16.6        0.0        0.0        0.0       0.00       61.2       0.28       0.00       85.2
8:22              226        8.0         75       19.2      423.6       18.5       21.2       14.7     1012.0       19.2       16.6        0.0        0.0        0.0       0.00       61.5       0.28       0.00       85.2
8:24              225        6.4         74       19.3      423.6       19.3       21.2       14.5     1012.1       19.3       16.6        0.0        0.0        0.0       0.00       61.6       0.28       0.00       85.2
8:26              224       17.7         75       19.3      423.6       18.0       21.3       14.7     1012.1       19.3       16.6        0.0        0.0        0.0       0.00       61.8       0.28       0.00       85.2
8:28              223        6.4         76       19.3      423.6       19.3       21.4       15.0     1012.0       19.3       16.6        0.0        0.0        0.0       0.00       62.0       0.28       0.00       85.2
8:30              223        6.4         76       19.4      423.6       19.4       21.4       15.1     1012.0       19.4       16.6        0.0        0.0        0.0       0.00       62.1       0.28       0.00       85.2
8:32              223        0.0         76       19.4      423.6       19.4       21.5       15.1     1012.1       19.4       16.6        0.0        0.0        0.0       0.00       62.2       0.28       0.00       85.2
8:34              223        0.0         75       19.5      423.6       19.5       21.5       15.0     1012.2       19.5       16.6        0.0        0.0        0.0       0.00       62.2       0.28       0.00       85.2
8:35              223        4.8         75       19.6      423.6       19.6       21.6       15.1     1012.2       19.6       16.6        0.0        0.0        0.0       0.00       62.2       0.28       0.00       85.2
8:38              223        6.4         75       19.7      423.6       19.7       21.7       15.2     1012.3       19.7       16.6        0.0        0.0        0.0       0.00       62.4       0.28       0.00       85.2
8:40              223        0.0         75       19.8      423.6       19.8       21.8       15.2     1012.3       19.8       16.6        0.0        0.0        0.0       0.00       62.4       0.28       0.00       85.2
8:42              223        0.0         74       19.8      423.6       19.8       21.7       15.1     1012.2       19.8       16.6        0.0        0.0        0.0       0.00       62.4       0.28       0.00       85.2
8:43              223       11.3         74       19.8      423.6       19.8       21.7       15.0     1012.2       19.8       16.6        0.0        0.0        0.0       0.00       62.7       0.28       0.00       85.2
8:46              223        8.0         74       19.8      423.6       19.8       21.7       15.0     1012.2       19.8       16.6        0.0        0.0        0.0       0.00       62.8       0.28       0.00       85.2
8:48              223        4.8         74       19.8      423.6       19.8       21.7       15.1     1012.3       19.8       16.6        0.0        0.0        0.0       0.00       63.0       0.28       0.00       85.2
8:50              223        0.0         74       19.8      423.6       19.8       21.7       15.1     1012.2       19.8       16.6        0.0        0.0        0.0       0.00       63.0       0.28       0.00       85.2
8:52              223        0.0         74       19.9      423.6       19.9       21.8       15.1     1012.2       19.9       16.6        0.0        0.0        0.0       0.00       63.0       0.28       0.00       85.2
8:54              223        8.0         74       19.9      423.6       19.9       21.8       15.1     1012.4       19.9       16.6        0.0        0.0        0.0       0.00       63.1       0.28       0.00       85.2
8:56              224        6.4         74       19.9      423.6       19.9       21.9       15.2     1012.3       19.9       16.6        0.0        0.0        0.0       0.00       63.4       0.28       0.00       85.2
8:58              225        6.4         74       19.9      423.6       19.9       21.9       15.2     1012.3       19.9       16.6        0.0        0.0        0.0       0.00       63.5       0.28       0.00       85.2
9:00              224        4.8         74       19.9      423.6       19.9       21.9       15.2     1012.3       19.9       16.6        0.0        0.0        0.0       0.00       63.6       0.28       0.00       85.2
9:01              224        3.2         74       20.0      423.6       20.0       21.9       15.2     1012.3       20.0       16.6        0.0        0.0        0.0       0.00       63.7       0.28       0.00       85.2
9:04              224        0.0         73       20.1      423.6       20.1       21.9       15.1     1012.2       20.1       16.6        0.0        0.0        0.0       0.00       63.8       0.28       0.00       85.2
9:06              224        0.0         73       20.1      423.6       20.1       22.0       15.1     1012.3       20.1       16.6        0.0        0.0        0.0       0.00       63.8       0.28       0.00       85.2
9:08              224        6.4         73       20.2      423.6       20.2       22.1       15.2     1012.3       20.2       16.6        0.0        0.0        0.0       0.00       64.0       0.28       0.00       85.2
9:10              225        6.4         72       20.3      423.6       20.3       22.1       15.1     1012.3       20.3       16.6        0.0        0.0        0.0       0.00       64.1       0.28       0.00       85.2
9:12              225        0.0         72       20.3      423.6       20.3       22.1       15.1     1012.4       20.3       16.6        0.0        0.0        0.0       0.00       64.2       0.28       0.00       85.2
9:14              225        6.4         72       20.3      423.6       20.3       22.1       15.1     1012.4       20.3       16.6        0.0        0.0        0.0       0.00       64.2       0.28       0.00       85.2
9:16              225        6.4         71       20.4      423.6       20.4       22.1       15.0     1012.4       20.4       16.6        0.0        0.0        0.0       0.00       64.3       0.28       0.00       85.2
9:18              225        4.8         72       20.5      423.6       20.5       22.3       15.3     1012.4       20.5       16.6        0.0        0.0        0.0       0.00       64.4       0.28       0.00       85.2
9:20              225        4.8         71       20.6      423.6       20.6       22.3       15.1     1012.3       20.6       16.6        0.0        0.0        0.0       0.00       64.5       0.28       0.00       85.2
9:22              225        4.8         70       20.7      423.6       20.7       22.3       15.0     1012.3       20.7       16.6        0.0        0.0        0.0       0.00       64.7       0.28       0.00       85.2
9:24              225        1.6         70       20.7      423.6       20.7       22.4       15.1     1012.5       20.7       16.6        0.0        0.0        0.0       0.00       64.8       0.28       0.00       85.2
9:26              218        6.4         71       20.8      423.6       20.8       22.5       15.3     1012.5       20.8       16.6        0.0        0.0        0.0       0.00       64.9       0.28       0.00       85.2
9:28              219        6.4         70       20.8      423.6       20.8       22.5       15.2     1012.6       20.8       16.6        0.0        0.0        0.0       0.00       65.1       0.28       0.00       85.2
9:30              218       11.3         70       20.9      423.6       20.2       22.5       15.2     1012.6       20.9       16.6        0.0        0.0        0.0       0.00       65.3       0.28       0.00       85.2
9:32              219        4.8         70       20.9      423.6       20.9       22.6       15.3     1012.7       20.9       16.6        0.0        0.0        0.0       0.00       65.5       0.28       0.00       85.2
9:34              219        9.7         70       21.1      423.6       20.0       22.7       15.4     1012.7       21.1       16.6        0.0        0.0        0.0       0.00       65.6       0.28       0.00       85.2
9:36              219        0.0         69       21.1      423.6       21.1       22.7       15.2     1012.7       21.1       16.6        0.0        0.0        0.0       0.00       65.7       0.28       0.00       85.2
9:38              219        0.0         70       21.2      423.6       21.2       22.9       15.5     1012.8       21.2       16.6        0.0        0.0        0.0       0.00       65.7       0.28       0.00       85.2
9:40              219        0.0         70       21.3      423.6       21.3       23.0       15.6     1012.7       21.3       16.6        0.0        0.0        0.0       0.00       65.7       0.28       0.00       85.2
9:42              218        4.8         70       21.5      423.6       21.5       23.1       15.8     1012.7       21.5       16.6        0.0        0.0        0.0       0.00       65.8       0.28       0.00       85.2
9:44              218        4.8         69       21.6      423.6       21.6       23.2       15.7     1012.7       21.6       16.6        0.0        0.0        0.0       0.00       65.9       0.28       0.00       85.2
9:46              214        6.4         69       21.7      423.6       21.7       23.3       15.8     1012.8       21.7       16.6        0.0        0.0        0.0       0.00       66.1       0.28       0.00       85.2
9:48              201        6.4         68       21.9      423.6       21.9       23.4       15.7     1012.8       21.9       16.6        0.0        0.0        0.0       0.00       66.4       0.28       0.00       85.2
9:50              199       11.3         67       22.0      423.6       22.0       23.4       15.6     1012.8       22.0       16.6        0.0        0.0        0.0       0.00       66.7       0.28       0.00       85.2
9:52              199        6.4         67       22.1      423.6       22.1       23.6       15.7     1012.7       22.1       16.6        0.0        0.0        0.0       0.00       66.9       0.28       0.00       85.2
9:54              198        9.7         67       22.2      423.6       22.2       23.7       15.8     1012.7       22.2       16.6        0.0        0.0        0.0       0.00       67.2       0.28       0.00       85.2
9:56              199        0.0         66       22.3      423.6       22.3       23.7       15.7     1012.8       22.3       16.6        0.0        0.0        0.0       0.00       67.3       0.28       0.00       85.2
9:58              198        9.7         65       22.4      423.6       22.4       23.7       15.5     1012.8       22.4       16.6        0.0        0.0        0.0       0.00       67.6       0.28       0.00       85.2
10:00             198        9.7         65       22.4      423.6       21.4       23.7       15.5     1012.8       22.4       16.6        0.0        0.0        0.0       0.00       67.8       0.28       0.00       85.2
10:02             200        9.7         65       22.4      423.6       21.4       23.7       15.5     1012.8       22.4       16.6        0.0        0.0        0.0       0.00       68.0       0.28       0.00       85.2
10:04             200        8.0         65       22.3      423.6       22.3       23.6       15.4     1012.8       22.4       16.6        0.0        0.0        0.0       0.00       68.2       0.28       0.00       85.2
10:06             200        8.0         65       22.3      423.6       22.3       23.6       15.4     1012.8       22.4       16.6        0.0        0.0        0.0       0.00       68.4       0.28       0.00       85.2
10:08             197       11.3         66       22.3      423.6       22.3       23.7       15.7     1012.7       22.4       16.6        0.0        0.0        0.0       0.00       68.6       0.28       0.00       85.2
10:10             207       16.1         65       22.3      423.6       21.0       23.6       15.4     1012.7       22.4       16.6        0.0        0.0        0.0       0.00       69.0       0.28       0.00       85.2
10:12             206       11.3         65       22.4      423.6       22.4       23.7       15.5     1012.7       22.4       16.6        0.0        0.0        0.0       0.00       69.2       0.28       0.00       85.2
10:14             207        8.0         64       22.3      423.6       21.7       23.6       15.2     1012.7       22.4       16.6        0.0        0.0        0.0       0.00       69.5       0.28       0.00       85.2
10:15             207        0.0         64       22.3      423.6       22.3       23.6       15.2     1012.7       22.4       16.6        0.0        0.0        0.0       0.00       69.6       0.28       0.01       85.2
10:18             207       17.7         65       22.3      423.6       21.4       23.6       15.4     1012.7       22.4       16.6        0.0        0.0        0.0       0.00       69.8       0.28       0.01       85.2
10:20             190       17.7         67       22.4      423.6       20.7       23.9       16.0     1012.5       22.4       16.6        0.0        0.0        0.0       0.00       70.2       0.28       0.01       85.2
10:22             205        9.7         66       22.6      423.6       22.6       23.9       15.9     1012.5       22.6       16.6        0.0        0.0        0.0       0.00       70.5       0.28       0.01       85.2
10:24             205        8.0         66       22.6      423.6       22.0       24.0       15.9     1012.4       22.6       16.6        0.0        0.0        0.0       0.00       70.7       0.28       0.01       85.2
10:26             205        9.7         66       22.7      423.6       22.2       24.1       16.0     1012.4       22.7       16.6        0.0        0.0        0.0       0.00       70.9       0.28       0.01       85.2
10:28             218       16.1         66       22.7      423.6       21.4       24.1       16.0     1012.5       22.7       16.6        0.0        0.0        0.0       0.00       71.2       0.28       0.01       85.2
10:30             220        8.0         65       22.7      423.6       22.7       24.0       15.8     1012.6       22.7       16.6        0.0        0.0        0.0       0.00       71.5       0.28       0.01       85.2
10:32             225       11.3         65       22.7      423.6       22.1       24.0       15.8     1012.5       22.7       16.6        0.0        0.0        0.0       0.00       71.8       0.28       0.02       85.2
10:34             209       12.9         66       22.7      423.6       21.3       24.0       16.0     1012.5       22.7       16.6        0.0        0.0        0.0       0.00       72.2       0.28       0.02       85.2
10:36             220       14.5         66       22.7      423.6       20.6       24.0       16.0     1012.4       22.7       16.6        0.0        0.0        0.0       0.00       72.6       0.28       0.02       85.2
10:38             221       16.1         66       22.7      423.6       20.3       24.1       16.0     1012.5       22.7       16.6        0.0        0.0        0.0       0.00       72.9       0.28       0.02       85.2
10:40             219       16.1         65       22.7      423.6       21.4       24.0       15.8     1012.4       22.7       16.6        0.0        0.0        0.0       0.00       73.3       0.28       0.02       85.2
10:42             215        6.4         66       22.7      423.6       22.7       24.1       16.0     1012.5       22.7       16.6        0.0        0.0        0.0       0.00       73.6       0.28       0.02       85.2
10:44             205       14.5         67       22.7      423.6       21.4       24.2       16.3     1012.4       22.7       16.6        0.0        0.0        0.0       0.00       73.9       0.28       0.02       85.2
10:46             202       20.9         66       22.8      423.6       22.8       24.2       16.1     1012.5       22.8       16.6        0.0        0.0        0.0       0.00       74.3       0.28       0.02       85.2
10:48             205       16.1         66       22.8      423.6       21.5       24.2       16.2     1012.6       22.8       16.6        0.0        0.0        0.0       0.00       74.8       0.28       0.02       85.2
10:50             206        9.7         67       22.9      423.6       22.9       24.3       16.4     1012.6       22.9       16.6        0.0        0.0        0.0       0.00       75.1       0.28       0.02       85.2
10:52             192       16.1         67       23.0      423.6       22.1       24.4       16.5     1012.7       23.0       16.6        0.0        0.0        0.0       0.00       75.4       0.28       0.02       85.2
10:54             191       17.7         66       23.0      423.6       21.7       24.4       16.3     1012.5       23.0       16.6        0.0        0.0        0.0       0.00       75.8       0.28       0.02       85.2
10:56             181       14.5         65       23.1      423.6       21.4       24.4       16.1     1012.6       23.1       16.6        0.0        0.0        0.0       0.00       76.2       0.28       0.02       85.2
10:58             191       19.3         64       23.1      423.6       20.8       24.4       15.9     1012.5       23.1       16.6        0.0        0.0        0.0       0.00       76.7       0.28       0.02       85.2
11:00             211       16.1         63       23.2      423.6       21.2       24.4       15.7     1012.4       23.2       16.6        0.0        0.0        0.0       0.00       77.2       0.28       0.02       85.2
11:02             196       14.5         63       23.2      423.6       21.2       24.4       15.7     1012.5       23.2       16.6        0.0        0.0        0.0       0.00       77.5       0.28       0.04       85.2
11:04             200        8.0         63       23.1      423.6       22.6       24.3       15.7     1012.4       23.2       16.6        0.0        0.0        0.0       0.00       77.9       0.28       0.04       85.2
11:06             193       19.3         63       23.2      423.6       20.8       24.4       15.7     1012.4       23.2       16.6        0.0        0.0        0.0       0.00       78.3       0.28       0.04       85.2
11:08             187       19.3         63       23.1      423.6       21.8       24.3       15.7     1012.5       23.2       16.6        0.0        0.0        0.0       0.00       78.7       0.28       0.04       85.2
11:10             186       16.1         62       23.1      423.6       22.2       24.2       15.4     1012.5       23.2       16.6        0.0        0.0        0.0       0.00       79.1       0.28       0.04       85.2
11:12             181       17.7         63       23.2      423.6       22.6       24.4       15.7     1012.5       23.2       16.6        0.0        0.0        0.0       0.00       79.7       0.28       0.04       85.2
11:14             212       19.3         63       23.2      423.6       20.8       24.4       15.7     1012.7       23.2       16.6        0.0        0.0        0.0       0.00       80.1       0.28       0.04       85.2
11:16             209       11.3         63       23.2      423.6       22.6       24.4       15.7     1012.5       23.2       16.6        0.0        0.0        0.0       0.00       80.4       0.28       0.05       85.2
11:18             233       11.3         63       23.2      423.6       23.2       24.4       15.7     1012.5       23.2       16.6        0.0        0.0        0.0       0.00       80.7       0.28       0.05       85.2
11:20             206       17.7         64       23.1      423.6       20.6       24.4       15.9     1012.5       23.2       16.6        0.0        0.0        0.0       0.00       81.1       0.28       0.05       85.2
11:22             187       16.1         63       23.1      423.6       21.8       24.3       15.7     1012.6       23.2       16.6        0.0        0.0        0.0       0.00       81.5       0.28       0.05       85.2
11:24             180        8.0         63       23.1      423.6       23.1       24.3       15.7     1012.5       23.2       16.6        0.0        0.0        0.0       0.00       81.8       0.28       0.05       85.2
11:26             205       17.7         63       23.2      423.6       22.3       24.4       15.7     1012.4       23.2       16.6        0.0        0.0        0.0       0.00       82.2       0.28       0.05       85.2
11:28             214        8.0         63       23.2      423.6       22.6       24.4       15.7     1012.6       23.2       16.6        0.0        0.0        0.0       0.00       82.5       0.28       0.05       85.2
11:30             219       11.3         63       23.2      423.6       23.2       24.4       15.7     1012.5       23.2       16.6        0.0        0.0        0.0       0.00       82.9       0.28       0.05       85.2
11:32             219        8.0         63       23.2      423.6       23.2       24.4       15.7     1012.4       23.2       16.6        0.0        0.0        0.0       0.00       83.0       0.28       0.06       85.2
11:34             215       11.3         64       23.2      423.6       23.2       24.5       16.0     1012.3       23.2       16.6        0.0        0.0        0.0       0.00       83.4       0.28       0.06       85.2
11:36             195       12.9         65       23.3      423.6       22.4       24.6       16.4     1012.4       23.3       16.6        0.0        0.0        0.0       0.00       83.7       0.28       0.06       85.2
11:38             181       14.5         64       23.4      423.6       23.4       24.7       16.3     1012.4       23.4       16.6        0.0        0.0        0.0       0.00       84.0       0.28       0.06       85.2
11:40             223       11.3         63       23.5      423.6       23.0       24.7       16.1     1012.4       23.5       16.6        0.0        0.0        0.0       0.00       84.3       0.28       0.06       85.2
11:42             200       12.9         63       23.5      423.6       21.9       24.7       16.1     1012.4       23.5       16.6        0.0        0.0        0.0       0.00       84.6       0.28       0.06       85.2
11:44             194       12.9         63       23.5      423.6       21.9       24.7       16.1     1012.3       23.5       16.6        0.0        0.0        0.0       0.00       84.9       0.28       0.06       85.2
11:46             187       14.5         63       23.5      423.6       22.6       24.7       16.1     1012.3       23.5       16.6        0.0        0.0        0.0       0.00       85.3       0.28       0.08       85.2
11:48             200       17.7         62       23.6      423.6       21.6       24.7       15.9     1012.3       23.6       16.6        0.0        0.0        0.0       0.00       85.7       0.28       0.08       85.2
11:50             207       14.5         62       23.6      423.6       21.7       24.7       15.9     1012.3       23.6       16.6        0.0        0.0        0.0       0.00       86.0       0.28       0.08       85.2
11:52             217       16.1         62       23.6      423.6       21.7       24.7       15.9     1012.3       23.6       16.6        0.0        0.0        0.0       0.00       86.5       0.28       0.08       85.2
11:54             209        9.7         62       23.6      423.6       23.6       24.7       15.9     1012.4       23.6       16.6        0.0        0.0        0.0       0.00       86.8       0.28       0.08       85.2
11:56             208       16.1         62       23.7      423.6       22.5       24.8       16.0     1012.3       23.7       16.6        0.0        0.0        0.0       0.00       87.1       0.28       0.08       85.2
11:58             209       11.3         61       23.7      423.6       22.9       24.8       15.8     1012.3       23.7       16.6        0.0        0.0        0.0       0.00       87.4       0.28       0.08       85.2
12:00             221        9.7         60       23.8      423.6       23.3       24.8       15.6     1012.3       23.8       16.6        0.0        0.0        0.0       0.00       87.8       0.28       0.08       85.2
12:02             227        8.0         61       23.7      423.6       23.7       24.8       15.8     1012.3       23.8       16.6        0.0        0.0        0.0       0.00       88.1       0.28       0.09       85.2
12:04             209       11.3         62       23.8      423.6       22.6       24.9       16.1     1012.3       23.8       16.6        0.0        0.0        0.0       0.00       88.3       0.28       0.09       85.2
12:06             209        9.7         62       23.8      423.6       23.3       25.0       16.1     1012.2       23.8       16.6        0.0        0.0        0.0       0.00       88.6       0.28       0.09       85.2
12:08             224        8.0         60       23.9      423.6       23.9       24.9       15.7     1012.3       23.9       16.6        0.0        0.0        0.0       0.00       88.9       0.28       0.09       85.2
12:10             202        9.7         60       23.9      423.6       23.9       24.9       15.7     1012.2       23.9       16.6        0.0        0.0        0.0       0.00       89.2       0.28       0.09       85.2
12:12             232       16.1         59       23.9      423.6       22.4       24.9       15.5     1012.2       23.9       16.6        0.0        0.0        0.0       0.00       89.5       0.28       0.09       85.2
12:14             192       12.9         59       24.0      423.6       23.5       24.9       15.5     1012.3       24.0       16.6        0.0        0.0        0.0       0.00       89.9       0.28       0.09       85.2
12:16             193       11.3         59       24.0      423.6       23.2       24.9       15.5     1012.2       24.0       16.6        0.0        0.0        0.0       0.00       90.2       0.28       0.11       85.2
12:18             239        8.0         59       24.1      423.6       24.1       25.0       15.6     1012.2       24.1       16.6        0.0        0.0        0.0       0.00       90.5       0.28       0.11       85.2
12:20             235        6.4         59       24.0      423.6       24.0       24.9       15.5     1012.3       24.1       16.6        0.0        0.0        0.0       0.00       90.6       0.28       0.11       85.2
12:22             223       11.3         59       23.9      423.6       22.8       24.9       15.5     1012.2       24.1       16.6        0.0        0.0        0.0       0.00       90.9       0.28       0.11       85.2
12:24             222       11.3         59       23.9      423.6       23.1       24.8       15.4     1012.2       24.1       16.6        0.0        0.0        0.0       0.00       91.3       0.28       0.11       85.2
12:26             188       14.5         59       23.9      423.6       22.7       24.8       15.4     1012.2       24.1       16.6        0.0        0.0        0.0       0.00       91.6       0.28       0.11       85.2
12:28             198       11.3         59       23.9      423.6       23.1       24.9       15.5     1012.2       24.1       16.6        0.0        0.0        0.0       0.00       92.0       0.28       0.11       85.2
12:30             203        9.7         59       24.0      423.6       24.0       24.9       15.5     1012.1       24.1       16.6        0.0        0.0        0.0       0.00       92.2       0.28       0.11       85.2
12:32             240        8.0         59       24.1      423.6       23.6       25.0       15.6     1012.2       24.1       16.6        0.0        0.0        0.0       0.00       92.5       0.28       0.14       85.2
12:34             201        9.7         60       24.1      423.6       24.1       25.1       15.9     1012.1       24.1       16.6        0.0        0.0        0.0       0.00       92.8       0.28       0.14       85.2
12:36             231       17.7         58       24.2      423.6       23.7       25.1       15.4     1012.1       24.2       16.6        0.0        0.0        0.0       0.00       93.1       0.28       0.14       85.2
12:38             235       11.3         57       24.3      423.6       23.5       25.2       15.3     1012.0       24.3       16.6        0.0        0.0        0.0       0.00       93.5       0.28       0.14       85.2
12:40             242        6.4         57       24.3      423.6       24.3       25.1       15.2     1012.1       24.3       16.6        0.0        0.0        0.0       0.00       93.8       0.28       0.14       85.2
12:42             242        4.8         56       24.2      423.6       24.2       25.0       14.9     1012.0       24.3       16.6        0.0        0.0        0.0       0.00       94.0       0.28       0.14       85.2
12:44             261        9.7         57       24.1      423.6       24.1       24.9       15.1     1012.0       24.3       16.6        0.0        0.0        0.0       0.00       94.3       0.28       0.14       85.2
12:46             265       14.5         56       24.2      423.6       23.4       24.9       14.8     1011.9       24.3       16.6        0.0        0.0        0.0       0.00       94.5       0.28       0.16       85.2
12:48             265        9.7         56       24.2      423.6       24.2       24.9       14.8     1011.9       24.3       16.6        0.0        0.0        0.0       0.00       94.7       0.28       0.16       85.2
12:50             265        9.7         55       24.2      423.6       24.2       24.9       14.6     1012.0       24.3       16.6        0.0        0.0        0.0       0.00       94.9       0.28       0.16       85.2
12:52             264       16.1         55       24.1      423.6       23.3       24.8       14.5     1011.9       24.3       16.6        0.0        0.0        0.0       0.00       95.0       0.28       0.16       85.2
12:54             260        9.7         57       24.1      423.6       23.3       24.9       15.1     1012.0       24.3       16.6        0.0        0.0        0.0       0.00       95.2       0.28       0.16       85.2
12:56             252        6.4         56       24.2      423.6       24.2       25.0       14.9     1012.0       24.3       16.6        0.0        0.0        0.0       0.00       95.5       0.28       0.16       85.2
12:58             253        0.0         55       24.3      423.6       24.3       25.0       14.7     1012.0       24.3       16.6        0.0        0.0        0.0       0.00       95.5       0.28       0.16       85.2
13:00             232       11.3         56       24.4      423.6       23.9       25.2       15.1     1012.0       24.4       16.6        0.0        0.0        0.0       0.00       95.7       0.28       0.16       85.2
13:02             198       11.3         55       24.5      423.6       24.5       25.2       14.9     1012.0       24.5       16.6        0.0        0.0        0.0       0.00       96.0       0.28       0.18       85.2
13:04             206       11.3         56       24.6      423.6       23.5       25.4       15.3     1011.9       24.6       16.6        0.0        0.0        0.0       0.00       96.3       0.28       0.18       85.2
13:06             191       14.5         55       24.8      423.6       23.7       25.5       15.1     1011.9       24.8       16.6        0.0        0.0        0.0       0.00       96.4       0.28       0.18       85.2
13:08             184       14.5         55       24.9      423.6       23.8       25.6       15.2     1011.9       24.9       16.6        0.0        0.0        0.0       0.00       96.8       0.28       0.18       85.2
13:10             184        9.7         55       25.1      423.6       25.1       25.8       15.4     1011.9       25.1       16.6        0.0        0.0        0.0       0.00       97.0       0.28       0.18       85.2
13:12             184        9.7         54       25.2      423.6       24.8       25.9       15.3     1011.9       25.2       16.6        0.0        0.0        0.0       0.00       97.3       0.28       0.18       85.2
13:14             184        0.0         53       25.4      423.6       25.4       26.0       15.1     1011.9       25.4       16.6        0.0        0.0        0.0       0.00       97.4       0.28       0.18       85.2
13:16             184        0.0         53       25.4      423.6       25.4       26.1       15.2     1012.0       25.4       16.6        0.0        0.0        0.0       0.00       97.4       0.28       0.22       85.2
13:18             191        4.8         52       25.4      423.6       25.4       26.0       14.9     1011.9       25.4       16.6        0.0        0.0        0.0       0.00       97.4       0.28       0.22       85.2
13:20             198        1.6         52       25.5      423.6       25.5       26.1       14.9     1011.8       25.6       16.6        0.0        0.0        0.0       0.00       97.6       0.28       0.22       85.2
13:22             198        4.8         52       25.4      423.6       25.4       26.0       14.9     1011.8       25.6       16.6        0.0        0.0        0.0       0.00       97.6       0.28       0.22       85.2
13:24             198        4.8         52       25.3      423.6       25.3       25.9       14.8     1011.8       25.6       16.6        0.0        0.0        0.0       0.00       97.7       0.28       0.22       85.2
13:26             224       11.3         54       25.2      423.6       24.8       25.9       15.3     1011.9       25.6       16.6        0.0        0.0        0.0       0.00       98.0       0.28       0.22       85.2
13:28             240       16.1         56       25.1      423.6       24.6       25.8       15.7     1011.8       25.6       16.6        0.0        0.0        0.0       0.00       98.4       0.28       0.22       85.2
13:30             239        9.7         56       24.9      423.6       24.1       25.7       15.5     1011.8       25.6       16.6        0.0        0.0        0.0       0.00       98.6       0.28       0.22       85.2
13:32             240        8.0         56       24.8      423.6       24.8       25.6       15.4     1011.8       25.6       16.6        0.0        0.0        0.0       0.00       98.9       0.28       0.25       85.2
13:34             248       16.1         57       24.7      423.6       23.3       25.6       15.6     1011.8       25.6       16.6        0.0        0.0        0.0       0.00       99.2       0.28       0.25       85.2
13:36             253       12.9         58       24.7      423.6       23.6       25.6       15.9     1011.9       25.6       16.6        0.0        0.0        0.0       0.00       99.5       0.28       0.25       85.2
13:38             250        8.0         57       24.6      423.6       24.6       25.4       15.5     1011.9       25.6       16.6        0.0        0.0        0.0       0.00       99.8       0.28       0.25       85.2
13:40             250        4.8         58       24.6      423.6       24.6       25.4       15.8     1011.8       25.6       16.6        0.0        0.0        0.0       0.00      100.0       0.28       0.25       85.2
13:42             250        8.0         57       24.5      423.6       24.0       25.3       15.4     1011.8       25.6       16.6        0.0        0.0        0.0       0.00      100.2       0.28       0.25       85.2
13:44             250        8.0         58       24.5      423.6       24.0       25.4       15.7     1011.7       25.6       16.6        0.0        0.0        0.0       0.00      100.4       0.28       0.25       85.2
13:46             250        4.8         57       24.4      423.6       24.4       25.3       15.4     1011.7       25.6       16.6        0.0        0.0        0.0       0.00      100.6       0.28       0.27       85.2
13:48             250        3.2         58       24.4      423.6       24.4       25.3       15.6     1011.7       25.6       16.6        0.0        0.0        0.0       0.00      100.8       0.28       0.27       85.2
13:50             252       11.3         58       24.4      423.6       23.9       25.3       15.6     1011.7       25.6       16.6        0.0        0.0        0.0       0.00      101.0       0.28       0.27       85.2
13:52             252        6.4         58       24.4      423.6       24.4       25.3       15.7     1011.6       25.6       16.6        0.0        0.0        0.0       0.00      101.2       0.28       0.27       85.2
13:54             252       11.3         57       24.5      423.6       24.5       25.3       15.4     1011.6       25.6       16.6        0.0        0.0        0.0       0.00      101.4       0.28       0.27       85.2
13:56             253        3.2         57       24.5      423.6       24.5       25.3       15.4     1011.6       25.6       16.6        0.0        0.0        0.0       0.00      101.5       0.28       0.27       85.2
13:58             248       11.3         58       24.6      423.6       24.1       25.4       15.8     1011.6       25.6       16.6        0.0        0.0        0.0       0.00      101.7       0.28       0.27       85.2
14:00             247        6.4         58       24.7      423.6       24.7       25.6       15.9     1011.6       25.6       16.6        0.0        0.0        0.0       0.00      101.9       0.28       0.27       85.2
14:02             277       20.9         57       24.7      423.6       23.0       25.6       15.6     1011.6       25.6       16.6        0.0        0.0        0.0       0.00      102.3       0.28       0.30       85.2
14:04             256       20.9         57       24.7      423.6       22.2       25.5       15.6     1011.6       25.6       16.6        0.0        0.0        0.0       0.00      102.7       0.28       0.30       85.2
14:06             246        3.2         57       24.6      423.6       24.6       25.4       15.5     1011.7       25.6       16.6        0.0        0.0        0.0       0.00      103.0       0.28       0.30       85.2
14:08             246       12.9         57       24.5      423.6       24.5       25.3       15.4     1011.6       25.6       16.6        0.0        0.0        0.0       0.00      103.2       0.28       0.30       85.2
14:10             248        8.0         57       24.5      423.6       24.0       25.3       15.4     1011.7       25.6       16.6        0.0        0.0        0.0       0.00      103.6       0.28       0.30       85.2
14:12             250       11.3         57       24.5      423.6       23.4       25.3       15.4     1011.6       25.6       16.6        0.0        0.0        0.0       0.00      103.8       0.28       0.30       85.2
14:14             231        9.7         56       24.6      423.6       24.1       25.3       15.2     1011.6       25.6       16.6        0.0        0.0        0.0       0.00      104.1       0.28       0.30       85.2
14:16             225       11.3         56       24.6      423.6       24.6       25.4       15.3     1011.6       25.6       16.6        0.0        0.0        0.0       0.00      104.4       0.28       0.33       85.2
14:18             225        9.7         57       24.7      423.6       24.0       25.6       15.6     1011.7       25.6       16.6        0.0        0.0        0.0       0.00      104.7       0.28       0.33       85.2
14:20             232       11.3         55       24.8      423.6       24.1       25.5       15.2     1011.7       25.6       16.6        0.0        0.0        0.0       0.00      105.0       0.28       0.33       85.2
14:22             232       12.9         55       24.9      423.6       23.8       25.6       15.2     1011.6       25.6       16.6        0.0        0.0        0.0       0.00      105.2       0.28       0.33       85.2
14:24             240       16.1         56       24.9      423.6       23.0       25.7       15.5     1011.6       25.6       16.6        0.0        0.0        0.0       0.00      105.5       0.28       0.33       85.2
14:26             248        8.0         55       24.9      423.6       24.5       25.7       15.3     1011.6       25.6       16.6        0.0        0.0        0.0       0.00      105.8       0.28       0.33       85.2
14:27             241       19.3         55       24.9      423.6       24.2       25.7       15.3     1011.6       25.6       16.6        0.0        0.0        0.0       0.00      106.2       0.28       0.33       85.2
14:30             211       17.7         55       24.9      423.6       23.2       25.6       15.2     1011.5       25.6       16.6        0.0        0.0        0.0       0.00      106.6       0.28       0.33       85.2
14:32             214        8.0         54       24.9      423.6       24.9       25.5       15.0     1011.6       25.6       16.6        0.0        0.0        0.0       0.00      106.9       0.28       0.36       85.2
14:34             223        8.0         54       24.9      423.6       24.9       25.5       15.0     1011.6       25.6       16.6        0.0        0.0        0.0       0.00      107.2       0.28       0.36       85.2
14:36             246       14.5         54       24.9      423.6       23.8       25.5       15.0     1011.5       25.6       16.6        0.0        0.0        0.0       0.00      107.6       0.28       0.36       85.2
14:38             266       22.5         53       24.9      423.6       23.2       25.5       14.7     1011.6       25.6       16.6        0.0        0.0        0.0       0.00      108.0       0.28       0.36       85.2
14:40             259       20.9         53       24.7      423.6       23.3       25.3       14.5     1011.6       25.6       16.6        0.0        0.0        0.0       0.00      108.5       0.28       0.36       85.2
14:42             277       19.3         53       24.6      423.6       22.2       25.2       14.4     1011.6       25.6       16.6        0.0        0.0        0.0       0.00      108.9       0.28       0.36       85.2
14:44             279        6.4         54       24.5      423.6       24.5       25.2       14.6     1011.5       25.6       16.6        0.0        0.0        0.0       0.00      109.1       0.28       0.36       85.2
14:46             265       17.7         55       24.5      423.6       22.8       25.2       14.9     1011.5       25.6       16.6        0.0        0.0        0.0       0.00      109.5       0.28       0.39       85.2
14:48             265       16.1         53       24.4      423.6       23.3       25.1       14.3     1011.5       25.6       16.6        0.0        0.0        0.0       0.00      110.0       0.28       0.39       85.2
14:50             266       12.9         54       24.4      423.6       23.0       25.0       14.5     1011.5       25.6       16.6        0.0        0.0        0.0       0.00      110.3       0.28       0.39       85.2
14:52             265       16.1         54       24.3      423.6       22.6       25.0       14.4     1011.4       25.6       16.6        0.0        0.0        0.0       0.00      110.7       0.28       0.39       85.2
14:54             257       14.5         55       24.4      423.6       22.6       25.1       14.8     1011.5       25.6       16.6        0.0        0.0        0.0       0.00      111.0       0.28       0.39       85.2
14:56             266       14.5         54       24.4      423.6       23.3       25.1       14.5     1011.4       25.6       16.6        0.0        0.0        0.0       0.00      111.5       0.28       0.39       85.2
14:58             266       16.1         53       24.4      423.6       23.7       25.1       14.3     1011.3       25.6       16.6        0.0        0.0        0.0       0.00      111.9       0.28       0.39       85.2
15:00             265       12.9         54       24.4      423.6       24.4       25.1       14.5     1011.3       25.6       16.6        0.0        0.0        0.0       0.00      112.2       0.28       0.39       85.2
15:02             264       14.5         55       24.5      423.6       22.8       25.2       14.9     1011.2       25.6       16.6        0.0        0.0        0.0       0.00      112.5       0.28       0.41       85.2
15:04             271       19.3         54       24.6      423.6       22.8       25.2       14.6     1011.3       25.6       16.6        0.0        0.0        0.0       0.00      112.9       0.28       0.41       85.2
15:06             261       20.9         53       24.5      423.6       22.1       25.1       14.3     1011.3       25.6       16.6        0.0        0.0        0.0       0.00      113.3       0.28       0.41       85.2
15:08             248       14.5         53       24.4      423.6       24.4       25.0       14.2     1011.3       25.6       16.6        0.0        0.0        0.0       0.00      113.8       0.28       0.41       85.2
15:10             258        6.4         54       24.4      423.6       24.4       25.1       14.5     1011.3       25.6       16.6        0.0        0.0        0.0       0.00      114.1       0.28       0.41       85.2
15:12             248       16.1         54       24.5      423.6       22.5       25.2       14.6     1011.3       25.6       16.6        0.0        0.0        0.0       0.00      114.5       0.28       0.41       85.2
15:14             254       14.5         54       24.5      423.6       22.8       25.2       14.6     1011.4       25.6       16.6        0.0        0.0        0.0       0.00      115.0       0.28       0.41       85.2
15:16             259       11.3         53       24.5      423.6       24.5       25.1       14.3     1011.3       25.6       16.6        0.0        0.0        0.0       0.00      115.5       0.28       0.44       85.2
15:18             249       12.9         54       24.5      423.6       24.5       25.2       14.6     1011.3       25.6       16.6        0.0        0.0        0.0       0.00      116.0       0.28       0.44       85.2
15:20             262       19.3         54       24.5      423.6       22.5       25.2       14.6     1011.4       25.6       16.6        0.0        0.0        0.0       0.00      116.4       0.28       0.44       85.2
15:22             292        8.0         53       24.5      423.6       24.0       25.1       14.3     1011.4       25.6       16.6        0.0        0.0        0.0       0.00      116.8       0.28       0.44       85.2
15:24             292        8.0         53       24.5      423.6       24.0       25.1       14.3     1011.4       25.6       16.6        0.0        0.0        0.0       0.00      117.1       0.28       0.44       85.2
15:26             267       11.3         53       24.5      423.6       23.4       25.1       14.3     1011.3       25.6       16.6        0.0        0.0        0.0       0.00      117.4       0.28       0.44       85.2
15:28             272        4.8         53       24.6      423.6       24.6       25.2       14.4     1011.3       25.6       16.6        0.0        0.0        0.0       0.00      117.6       0.28       0.44       85.2
15:30             239        6.4         53       24.6      423.6       24.6       25.2       14.4     1011.3       25.6       16.6        0.0        0.0        0.0       0.00      117.9       0.28       0.44       85.2
15:32             264       16.1         54       24.7      423.6       24.7       25.4       14.8     1011.2       25.6       16.6        0.0        0.0        0.0       0.00      118.3       0.28       0.46       85.2
15:34             259       17.7         53       24.8      423.6       22.9       25.4       14.6     1011.3       25.6       16.6        0.0        0.0        0.0       0.00      118.7       0.28       0.46       85.2
15:36             271       17.7         52       24.8      423.6       23.8       25.4       14.3     1011.3       25.6       16.6        0.0        0.0        0.0       0.00      119.2       0.28       0.46       85.2
15:38             269       19.3         52       24.8      423.6       22.6       25.4       14.3     1011.3       25.6       16.6        0.0        0.0        0.0       0.00      119.6       0.28       0.46       85.2
15:40             263       16.1         52       24.8      423.6       22.9       25.4       14.3     1011.2       25.6       16.6        0.0        0.0        0.0       0.00      120.0       0.28       0.46       85.2
15:42             265        9.7         52       24.7      423.6       23.9       25.2       14.2     1011.3       25.6       16.6        0.0        0.0        0.0       0.00      120.5       0.28       0.46       85.2
15:44             265        4.8         52       24.6      423.6       24.6       25.2       14.1     1011.3       25.6       16.6        0.0        0.0        0.0       0.00      120.8       0.28       0.46       85.2
15:46             264       11.3         52       24.7      423.6       23.6       25.2       14.2     1011.3       25.6       16.6        0.0        0.0        0.0       0.00      121.3       0.28       0.49       85.2
15:48             267       19.3         52       24.7      423.6       24.7       25.2       14.2     1011.3       25.6       16.6        0.0        0.0        0.0       0.00      121.7       0.28       0.49       85.2
15:50             267        9.7         53       24.7      423.6       23.9       25.3       14.5     1011.3       25.6       16.6        0.0        0.0        0.0       0.00      121.9       0.28       0.49       85.2
15:52             276       25.7         52       24.8      423.6       22.7       25.3       14.3     1011.4       25.6       16.6        0.0        0.0        0.0       0.00      122.4       0.28       0.49       85.2
15:54             274       19.3         51       24.8      423.6       23.1       25.3       14.0     1011.4       25.6       16.6        0.0        0.0        0.0       0.00      122.9       0.28       0.49       85.2
15:56             257       17.7         52       24.7      423.6       22.6       25.3       14.2     1011.4       25.6       16.6        0.0        0.0        0.0       0.00      123.3       0.28       0.49       85.2
15:58             268       29.0         52       24.7      423.6       21.6       25.3       14.2     1011.4       25.6       16.6        0.0        0.0        0.0       0.00      123.8       0.28       0.49       85.2
16:00             260       16.1         52       24.8      423.6       23.4       25.3       14.3     1011.4       25.6       16.6        0.0        0.0        0.0       0.00      124.2       0.28       0.49       85.2
16:02             270       20.9         52       24.9      423.6       22.5       25.4       14.4     1011.3       25.6       16.6        0.0        0.0        0.0       0.00      124.6       0.28       0.52       85.2
16:04             267       17.7         51       24.9      423.6       24.9       25.4       14.1     1011.4       25.6       16.6        0.0        0.0        0.0       0.00      125.1       0.28       0.52       85.2
16:06             263       14.5         51       24.8      423.6       23.8       25.3       14.0     1011.3       25.6       16.6        0.0        0.0        0.0       0.00      125.6       0.28       0.52       85.2
16:08             279       24.1         52       24.8      423.6       22.0       25.3       14.3     1011.4       25.6       16.6        0.0        0.0        0.0       0.00      126.1       0.28       0.52       85.2
16:10             259       17.7         51       24.8      423.6       23.7       25.3       14.0     1011.2       25.6       16.6        0.0        0.0        0.0       0.00      126.5       0.28       0.52       85.2
16:12             278       22.5         52       24.8      423.6       23.4       25.3       14.3     1011.4       25.6       16.6        0.0        0.0        0.0       0.00      127.1       0.28       0.52       85.2
16:14             271       24.1         52       24.7      423.6       22.6       25.3       14.2     1011.4       25.6       16.6        0.0        0.0        0.0       0.00      127.6       0.28       0.52       85.2
16:16             273       11.3         51       24.6      423.6       24.6       25.1       13.8     1011.4       25.6       16.6        0.0        0.0        0.0       0.00      128.0       0.28       0.55       85.2
16:18             265       12.9         52       24.6      423.6       24.6       25.2       14.1     1011.5       25.6       16.6        0.0        0.0        0.0       0.00      128.4       0.28       0.55       85.2
16:20             268       19.3         52       24.7      423.6       23.3       25.3       14.2     1011.5       25.6       16.6        0.0        0.0        0.0       0.00      128.9       0.28       0.55       85.2
16:22             259       17.7         51       24.7      423.6       22.6       25.2       13.9     1011.5       25.6       16.6        0.0        0.0        0.0       0.00      129.4       0.28       0.55       85.2
16:24             272       20.9         52       24.7      423.6       22.6       25.3       14.2     1011.5       25.6       16.6        0.0        0.0        0.0       0.00      129.9       0.28       0.55       85.2
16:26             228       19.3         52       24.7      423.6       23.3       25.2       14.2     1011.5       25.6       16.6        0.0        0.0        0.0       0.00      130.3       0.28       0.55       85.2
16:28             215       16.1         52       24.7      423.6       23.6       25.2       14.2     1011.4       25.6       16.6        0.0        0.0        0.0       0.00      130.9       0.28       0.55       85.2
16:30             266       12.9         52       24.7      423.6       24.7       25.2       14.2     1011.4       25.6       16.6        0.0        0.0        0.0       0.00      131.3       0.28       0.55       85.2
16:32             230       30.6         52       24.7      423.6       21.5       25.2       14.2     1011.4       25.6       16.6        0.0        0.0        0.0       0.00      131.9       0.28       0.58       85.2
16:34             247       14.5         52       24.6      423.6       24.2       25.2       14.1     1011.5       25.6       16.6        0.0        0.0        0.0       0.00      132.4       0.28       0.58       85.2
16:36             254       16.1         52       24.7      423.6       23.3       25.2       14.2     1011.4       25.6       16.6        0.0        0.0        0.0       0.00      132.9       0.28       0.58       85.2
16:38             265       22.5         51       24.7      423.6       23.0       25.2       13.9     1011.5       25.6       16.6        0.0        0.0        0.0       0.00      133.5       0.28       0.58       85.2
16:40             261       19.3         52       24.6      423.6       22.2       25.1       14.1     1011.4       25.6       16.6        0.0        0.0        0.0       0.00      134.0       0.28       0.58       85.2
16:42             275       35.4         52       24.5      423.6       22.3       25.1       14.0     1011.4       25.6       16.6        0.0        0.0        0.0       0.00      134.5       0.28       0.58       85.2
16:44             242       24.1         52       24.4      423.6       22.1       25.0       14.0     1011.3       25.6       16.6        0.0        0.0        0.0       0.00      135.1       0.28       0.58       85.2
16:46             256       20.9         53       24.4      423.6       23.3       25.0       14.2     1011.3       25.6       16.6        0.0        0.0        0.0       0.00      135.5       0.28       0.60       85.2
16:48             260       14.5         53       24.4      423.6       24.4       25.1       14.3     1011.2       25.6       16.6        0.0        0.0        0.0       0.00      135.9       0.28       0.60       85.2
16:50             306       22.5         53       24.5      423.6       22.0       25.1       14.3     1011.3       25.6       16.6        0.0        0.0        0.0       0.00      136.4       0.28       0.60       85.2
16:52             274       22.5         53       24.6      423.6       21.9       25.2       14.4     1011.3       25.6       16.6        0.0        0.0        0.0       0.00      137.0       0.28       0.60       85.2
16:54             271       22.5         52       24.4      423.6       22.2       25.0       14.0     1011.3       25.6       16.6        0.0        0.0        0.0       0.00      137.7       0.28       0.60       85.2
16:56             242       16.1         53       24.3      423.6       22.2       24.9       14.1     1011.2       25.6       16.6        0.0        0.0        0.0       0.00      138.3       0.28       0.60       85.2
16:58             283       14.5         53       24.2      423.6       22.4       24.8       14.0     1011.3       25.6       16.6        0.0        0.0        0.0       0.00      138.8       0.28       0.60       85.2
17:00             271       17.7         53       24.1      423.6       24.1       24.7       13.9     1011.2       25.6       16.6        0.0        0.0        0.0       0.00      139.3       0.28       0.60       85.2
17:02             279       20.9         54       24.1      423.6       22.6       24.8       14.2     1011.3       25.6       16.6        0.0        0.0        0.0       0.00      139.8       0.28       0.62       85.2
17:04             283       27.4         54       24.1      423.6       21.5       24.8       14.2     1011.2       25.6       16.6        0.0        0.0        0.0       0.00      140.3       0.28       0.62       85.2
17:06             275       27.4         54       24.1      423.6       20.7       24.7       14.2     1011.2       25.6       16.6        0.0        0.0        0.0       0.00      140.9       0.28       0.62       85.2
17:08             266       14.5         54       24.1      423.6       22.6       24.7       14.2     1011.1       25.6       16.6        0.0        0.0        0.0       0.00      141.4       0.28       0.62       85.2
17:10             261       20.9         55       24.1      423.6       23.0       24.8       14.5     1011.1       25.6       16.6        0.0        0.0        0.0       0.00      141.9       0.28       0.62       85.2
17:12             234       20.9         54       24.1      423.6       21.5       24.8       14.2     1011.1       25.6       16.6        0.0        0.0        0.0       0.00      142.5       0.28       0.62       85.2
17:14             246       16.1         55       24.1      423.6       22.6       24.8       14.5     1011.2       25.6       16.6        0.0        0.0        0.0       0.00      143.0       0.28       0.62       85.2
17:16             258       25.7         55       24.1      423.6       21.4       24.8       14.5     1011.1       25.6       16.6        0.0        0.0        0.0       0.00      143.4       0.28       0.64       85.2
17:18             248       16.1         55       24.0      423.6       22.5       24.7       14.4     1011.2       25.6       16.6        0.0        0.0        0.0       0.00      144.0       0.28       0.64       85.2
17:20             241       25.7         55       23.9      423.6       21.7       24.6       14.3     1011.1       25.6       16.6        0.0        0.0        0.0       0.00      144.5       0.28       0.64       85.2
17:22             278       25.7         55       23.8      423.6       21.5       24.5       14.3     1011.0       25.6       16.6        0.0        0.0        0.0       0.00      145.3       0.28       0.64       85.2
17:24             264       20.9         55       23.7      423.6       21.1       24.4       14.2     1011.0       25.6       16.6        0.0        0.0        0.0       0.00      145.9       0.28       0.64       85.2
17:26             254       16.1         55       23.6      423.6       23.1       24.3       14.1     1011.1       25.6       16.6        0.0        0.0        0.0       0.00      146.4       0.28       0.64       85.2
17:28             263       14.5         56       23.6      423.6       22.4       24.4       14.3     1011.1       25.6       16.6        0.0        0.0        0.0       0.00      146.9       0.28       0.64       85.2
17:30             271       24.1         56       23.6      423.6       21.1       24.3       14.3     1011.1       25.6       16.6        0.0        0.0        0.0       0.00      147.5       0.28       0.64       85.2
17:32             243       19.3         56       23.5      423.6       21.0       24.3       14.2     1011.1       25.6       16.6        0.0        0.0        0.0       0.00      148.1       0.28       0.66       85.2
17:34             275       22.5         56       23.4      423.6       21.5       24.2       14.2     1011.2       25.6       16.6        0.0        0.0        0.0       0.00      148.7       0.28       0.66       85.2
17:36             258       19.3         56       23.4      423.6       20.9       24.2       14.1     1011.1       25.6       16.6        0.0        0.0        0.0       0.00      149.2       0.28       0.66       85.2
17:38             251       14.5         56       23.4      423.6       21.4       24.2       14.1     1011.1       25.6       16.6        0.0        0.0        0.0       0.00      149.6       0.28       0.66       85.2
17:40             251       14.5         56       23.4      423.6       21.4       24.2       14.1     1011.0       25.6       16.6        0.0        0.0        0.0       0.00      150.1       0.28       0.66       85.2
17:42             244       22.5         57       23.3      423.6       20.4       24.1       14.3     1011.1       25.6       16.6        0.0        0.0        0.0       0.00      150.6       0.28       0.66       85.2
17:44             236       19.3         57       23.2      423.6       20.7       24.1       14.2     1011.2       25.6       16.6        0.0        0.0        0.0       0.00      151.1       0.28       0.66       85.2
17:46             264       19.3         57       23.2      423.6       21.2       24.0       14.2     1011.2       25.6       16.6        0.0        0.0        0.0       0.00      151.7       0.28       0.67       85.2
17:48             268       25.7         57       23.1      423.6       21.8       23.9       14.1     1011.2       25.6       16.6        0.0        0.0        0.0       0.00      152.3       0.28       0.67       85.2
17:50             256       20.9         57       23.1      423.6       22.6       23.9       14.1     1011.2       25.6       16.6        0.0        0.0        0.0       0.00      152.7       0.28       0.67       85.2
17:52             274       16.1         57       23.1      423.6       21.4       23.9       14.1     1011.3       25.6       16.6        0.0        0.0        0.0       0.00      153.2       0.28       0.67       85.2
17:54             257       14.5         58       23.1      423.6       21.0       23.9       14.4     1011.3       25.6       16.6        0.0        0.0        0.0       0.00      153.6       0.28       0.67       85.2
17:56             261       19.3         57       23.0      423.6       20.6       23.8       14.0     1011.3       25.6       16.6        0.0        0.0        0.0       0.00      154.0       0.28       0.67       85.2
17:58             262       17.7         58       22.9      423.6       20.9       23.8       14.2     1011.3       25.6       16.6        0.0        0.0        0.0       0.00      154.4       0.28       0.67       85.2
18:00             263       20.9         58       22.9      423.6       20.5       23.8       14.2     1011.2       25.6       16.6        0.0        0.0        0.0       0.00      154.9       0.28       0.67       85.2
18:02             244        9.7         58       22.9      423.6       22.3       23.8       14.2     1011.3       25.6       16.6        0.0        0.0        0.0       0.00      155.3       0.28       0.68       85.2
18:04             261       19.3         58       22.8      423.6       20.0       23.7       14.1     1011.2       25.6       16.6        0.0        0.0        0.0       0.00      155.7       0.28       0.68       85.2
18:06             260       24.1         58       22.8      423.6       19.4       23.7       14.1     1011.2       25.6       16.6        0.0        0.0        0.0       0.00      156.2       0.28       0.68       85.2
18:08             252       30.6         59       22.8      423.6       21.5       23.8       14.4     1011.3       25.6       16.6        0.0        0.0        0.0       0.00      156.5       0.28       0.68       85.2
18:10             258       19.3         59       22.8      423.6       20.0       23.8       14.4     1011.2       25.6       16.6        0.0        0.0        0.0       0.00      156.9       0.28       0.68       85.2
18:12             269       17.7         59       22.8      423.6       20.2       23.8       14.4     1011.2       25.6       16.6        0.0        0.0        0.0       0.00      157.4       0.28       0.68       85.2
18:14             267       17.7         59       22.8      423.6       21.1       23.7       14.4     1011.2       25.6       16.6        0.0        0.0        0.0       0.00      157.9       0.28       0.68       85.2
18:16             264       22.5         59       22.8      423.6       19.5       23.7       14.4     1011.2       25.6       16.6        0.0        0.0        0.0       0.00      158.4       0.28       0.69       85.2
18:18             263       11.3         59       22.7      423.6       22.7       23.7       14.3     1011.2       25.6       16.6        0.0        0.0        0.0       0.00      158.9       0.28       0.69       85.2
18:20             276       14.5         59       22.7      423.6       21.4       23.7       14.3     1011.2       25.6       16.6        0.0        0.0        0.0       0.00      159.3       0.28       0.69       85.2
18:22             242       22.5         59       22.7      423.6       19.4       23.6       14.3     1011.3       25.6       16.6        0.0        0.0        0.0       0.00      159.8       0.28       0.69       85.2
18:24             262       17.7         58       22.6      423.6       19.9       23.5       13.9     1011.3       25.6       16.6        0.0        0.0        0.0       0.00      160.3       0.28       0.69       85.2
18:26             263       19.3         58       22.6      423.6       19.6       23.4       13.9     1011.2       25.6       16.6        0.0        0.0        0.0       0.00      160.8       0.28       0.69       85.2
18:28             267       24.1         58       22.5      423.6       21.1       23.4       13.8     1011.2       25.6       16.6        0.0        0.0        0.0       0.00      161.4       0.28       0.69       85.2
18:30             271       17.7         58       22.5      423.6       19.8       23.4       13.8     1011.2       25.6       16.6        0.0        0.0        0.0       0.00      161.8       0.28       0.69       85.2
18:32             284       19.3         59       22.4      423.6       22.4       23.4       14.0     1011.2       25.6       16.6        0.0        0.0        0.0       0.00      162.3       0.28       0.70       85.2
18:34             262       14.5         59       22.4      423.6       22.4       23.3       14.0     1011.0       25.6       16.6        0.0        0.0        0.0       0.00      162.7       0.28       0.70       85.2
18:36             270       24.1         59       22.4      423.6       19.9       23.3       14.0     1011.1       25.6       16.6        0.0        0.0        0.0       0.00      163.1       0.28       0.70       85.2
18:38             268       17.7         59       22.3      423.6       19.8       23.3       13.9     1011.2       25.6       16.6        0.0        0.0        0.0       0.00      163.6       0.28       0.70       85.2
18:40             287       24.1         59       22.3      423.6       19.5       23.2       13.9     1011.2       25.6       16.6        0.0        0.0        0.0       0.00      164.1       0.28       0.70       85.2
18:42             272       12.9         59       22.3      423.6       22.3       23.2       13.9     1011.1       25.6       16.6        0.0        0.0        0.0       0.00      164.5       0.28       0.70       85.2
18:44             271       16.1         59       22.2      423.6       20.4       23.2       13.8     1011.0       25.6       16.6        0.0        0.0        0.0       0.00      164.9       0.28       0.70       85.2
18:46             273       22.5         60       22.2      423.6       19.4       23.2       14.1     1011.1       25.6       16.6        0.0        0.0        0.0       0.00      165.3       0.28       0.70       85.2
18:48             273       14.5         60       22.2      423.6       20.8       23.2       14.0     1011.2       25.6       16.6        0.0        0.0        0.0       0.00      165.8       0.28       0.70       85.2
18:50             278       17.7         60       22.1      423.6       21.1       23.1       14.0     1011.2       25.6       16.6        0.0        0.0        0.0       0.00      166.2       0.28       0.70       85.2
18:52             280       24.1         60       22.1      423.6       20.6       23.1       13.9     1011.2       25.6       16.6        0.0        0.0        0.0       0.00      166.8       0.28       0.70       85.2
18:54             261       19.3         60       22.0      423.6       20.2       23.0       13.9     1011.2       25.6       16.6        0.0        0.0        0.0       0.00      167.4       0.28       0.70       85.2
18:56             268        6.4         60       21.9      423.6       21.9       22.9       13.8     1011.3       25.6       16.6        0.0        0.0        0.0       0.00      167.7       0.28       0.70       85.2
18:58             269       19.3         60       21.9      423.6       18.8       22.9       13.8     1011.3       25.6       16.6        0.0        0.0        0.0       0.00      168.2       0.28       0.70       85.2
19:00             275       19.3         59       21.8      423.6       18.9       22.8       13.5     1011.4       25.6       16.6        0.0        0.0        0.0       0.00      168.7       0.28       0.70       85.2
19:02             274       29.0         58       21.8      423.6       18.9       22.7       13.2     1011.4       25.6       16.6        0.0        0.0        0.0       0.00      169.3       0.28       0.70       85.2
19:04             279       19.3         59       21.7      423.6       19.8       22.7       13.4     1011.5       25.6       16.6        0.0        0.0        0.0       0.00      169.7       0.28       0.70       85.2
19:06             269       24.1         59       21.7      423.6       19.0       22.6       13.3     1011.7       25.6       16.6        0.0        0.0        0.0       0.00      170.2       0.28       0.70       85.2
19:08             270       17.7         59       21.6      423.6       18.7       22.6       13.3     1011.6       25.6       16.6        0.0        0.0        0.0       0.00      170.7       0.28       0.70       85.2
19:10             268       14.5         59       21.6      423.6       19.3       22.6       13.3     1011.6       25.6       16.6        0.0        0.0        0.0       0.00      171.2       0.28       0.70       85.2
19:12             265       20.9         59       21.6      423.6       19.7       22.6       13.3     1011.7       25.6       16.6        0.0        0.0        0.0       0.00      171.5       0.28       0.70       85.2
19:14             261       11.3         59       21.6      423.6       21.6       22.6       13.3     1011.7       25.6       16.6        0.0        0.0        0.0       0.00      171.8       0.28       0.70       85.2
19:16             279       14.5         59       21.6      423.6       19.7       22.5       13.2     1011.6       25.6       16.6        0.0        0.0        0.0       0.00      172.2       0.28       0.70       85.2
19:18             267       19.3         58       21.5      423.6       18.8       22.4       12.9     1011.6       25.6       16.6        0.0        0.0        0.0       0.00      172.7       0.28       0.70       85.2
19:20             259       25.7         58       21.5      423.6       18.8       22.4       12.9     1011.7       25.6       16.6        0.0        0.0        0.0       0.00      173.2       0.28       0.70       85.2
19:22             257       19.3         58       21.4      423.6       20.0       22.3       12.8     1011.7       25.6       16.6        0.0        0.0        0.0       0.00      173.6       0.28       0.70       85.2
19:24             259       17.7         59       21.4      423.6       19.5       22.4       13.1     1011.7       25.6       16.6        0.0        0.0        0.0       0.00      174.0       0.28       0.70       85.2
19:26             269       16.1         59       21.4      423.6       19.9       22.3       13.1     1011.7       25.6       16.6        0.0        0.0        0.0       0.00      174.3       0.28       0.70       85.2
19:28             269       11.3         59       21.4      423.6       19.9       22.3       13.1     1011.6       25.6       16.6        0.0        0.0        0.0       0.00      174.7       0.28       0.70       85.2
19:30             273       17.7         58       21.3      423.6       20.3       22.2       12.7     1011.7       25.6       16.6        0.0        0.0        0.0       0.00      175.1       0.28       0.70       85.2
19:32             264       17.7         59       21.3      423.6       19.8       22.2       13.0     1011.7       25.6       16.6        0.0        0.0        0.0       0.00      175.4       0.28       0.70       85.2
19:34             265       17.7         58       21.3      423.6       20.2       22.2       12.7     1011.8       25.6       16.6        0.0        0.0        0.0       0.00      175.8       0.28       0.70       85.2
19:36             264       19.3         58       21.2      423.6       18.4       22.1       12.6     1011.8       25.6       16.6        0.0        0.0        0.0       0.00      176.3       0.28       0.70       85.2
19:38             261       22.5         58       21.2      423.6       18.8       22.1       12.6     1011.8       25.6       16.6        0.0        0.0        0.0       0.00      176.8       0.28       0.70       85.2
19:40             264       11.3         58       21.2      423.6       21.2       22.1       12.6     1011.9       25.6       16.6        0.0        0.0        0.0       0.00      177.1       0.28       0.70       85.2
19:42             263       12.9         58       21.2      423.6       20.1       22.1       12.6     1011.9       25.6       16.6        0.0        0.0        0.0       0.00      177.4       0.28       0.70       85.2
19:44             260       20.9         58       21.2      423.6       20.1       22.1       12.6     1011.9       25.6       16.6        0.0        0.0        0.0       0.00      177.7       0.28       0.70       85.2
19:46             257       14.5         58       21.1      423.6       20.5       22.0       12.5     1012.1       25.6       16.6        0.0        0.0        0.0       0.00      178.1       0.28       0.70       85.2
19:48             238        9.7         58       21.1      423.6       20.0       22.0       12.5     1012.3       25.6       16.6        0.0        0.0        0.0       0.00      178.3       0.28       0.70       85.2
19:50             219       14.5         59       21.1      423.6       19.1       22.0       12.7     1012.4       25.6       16.6        0.0        0.0        0.0       0.00      178.7       0.28       0.70       85.2
19:52             209        9.7         59       21.1      423.6       21.1       22.0       12.7     1012.4       25.6       16.6        0.0        0.0        0.0       0.00      179.0       0.28       0.70       85.2
19:54             196        8.0         60       21.0      423.6       20.3       22.0       12.9     1012.5       25.6       16.6        0.0        0.0        0.0       0.00      179.4       0.28       0.70       85.2
19:56             195        6.4         60       20.9      423.6       20.9       21.9       12.9     1012.6       25.6       16.6        0.0        0.0        0.0       0.00      179.6       0.28       0.70       85.2
19:58             195       12.9         60       20.9      423.6       19.8       21.9       12.8     1012.6       25.6       16.6        0.0        0.0        0.0       0.00      179.9       0.28       0.70       85.2
20:00             195        8.0         61       20.8      423.6       20.8       21.9       13.0     1012.6       25.6       16.6        0.0        0.0        0.0       0.00      180.1       0.28       0.70       85.2
20:02             195        0.0         61       20.8      423.6       20.8       21.9       13.0     1012.7       25.6       16.6        0.0        0.0        0.0       0.00      180.2       0.28       0.70       85.2
20:04             195        0.0         61       20.8      423.6       20.8       21.8       13.0     1012.8       25.6       16.6        0.0        0.0        0.0       0.00      180.2       0.28       0.70       85.2
20:06             195        0.0         61       20.7      423.6       20.7       21.8       12.9     1012.9       25.6       16.6        0.0        0.0        0.0       0.00      180.2       0.28       0.70       85.2
20:08             195        0.0         61       20.7      423.6       20.7       21.8       12.9     1013.1       25.6       16.6        0.0        0.0        0.0       0.00      180.2       0.28       0.70       85.2
20:10             195        9.7         61       20.7      423.6       20.7       21.8       12.9     1013.4       25.6       16.6        0.0        0.0        0.0       0.00      180.3       0.28       0.70       85.2
20:11             163       16.1         61       20.7      423.6       19.1       21.8       12.9     1013.6       25.6       16.6        0.0        0.0        0.0       0.00      180.6       0.28       0.70       85.2
20:14             124       17.7         61       20.8      423.6       19.2       21.8       13.0     1013.9       25.6       16.6        0.0        0.0        0.0       0.00      181.0       0.28       0.70       85.2
20:16             123       22.5         62       20.8      423.6       19.3       22.0       13.3     1014.1       25.6       16.6        0.0        0.0        0.0       0.00      181.5       0.28       0.70       85.2
20:18             154       14.5         62       20.9      423.6       18.4       22.0       13.3     1014.3       25.6       16.6        0.0        0.0        0.0       0.00      181.9       0.28       0.70       85.2
20:20             133       20.9         63       21.0      423.6       21.0       22.2       13.7     1014.2       25.6       16.6        0.0        0.0        0.0       0.00      182.4       0.28       0.70       85.2
20:22             136        8.0         64       21.0      423.6       21.0       22.3       13.9     1014.0       25.6       16.6        0.0        0.0        0.0       0.00      182.6       0.28       0.70       85.2
20:24             157       11.3         65       21.1      423.6       20.4       22.4       14.2     1013.7       25.6       16.6        0.0        0.0        0.0       0.00      182.9       0.28       0.70       85.2
20:26             158        8.0         66       21.1      423.6       21.1       22.5       14.5     1013.7       25.6       16.6        0.0        0.0        0.0       0.00      183.2       0.28       0.70       85.2
20:28             159        8.0         67       21.1      423.8       21.1       22.5       14.7     1013.7       25.6       16.6        0.2        0.2        0.2       0.00      183.4       0.28       0.70       85.4
20:30             159        0.0         68       21.0      423.8       21.0       22.5       14.9     1013.7       25.6       16.6        0.2        0.2        0.2       0.00      183.5       0.28       0.70       85.4
20:32             159        0.0         70       20.9      423.8       20.9       22.6       15.3     1013.5       25.6       16.6        0.2        0.2        0.2       0.00      183.5       0.28       0.70       85.4
20:34             159        0.0         70       20.8      423.8       20.8       22.4       15.1     1013.4       25.6       16.6        0.2        0.2        0.2       0.00      183.5       0.28       0.70       85.4
20:36             178       11.3         70       20.5      424.2       20.5       22.1       14.8     1013.1       25.6       16.6        0.6        0.6        0.6       9.00      183.7       0.28       0.70       85.8
20:38             235        6.4         70       20.3      424.2       20.3       21.9       14.6     1012.9       25.6       16.6        0.6        0.6        0.6       5.00      183.9       0.28       0.70       85.8
20:40             236        6.4         71       20.1      424.2       20.1       21.8       14.7     1012.9       25.6       16.6        0.6        0.6        0.6       2.60      184.0       0.28       0.70       85.8
20:42             271       16.1         73       19.9      424.2       17.3       21.8       15.0     1012.8       25.6       16.6        0.6        0.6        0.6       1.80      184.4       0.28       0.70       85.8
20:44             265       12.9         72       19.8      424.2       18.1       21.6       14.6     1012.5       25.6       16.6        0.6        0.6        0.6       1.40      184.8       0.28       0.70       85.8
20:46             269       17.7         73       19.7      424.2       17.5       21.6       14.8     1012.3       25.6       16.6        0.6        0.6        0.6       1.20      185.2       0.28       0.70       85.8
20:48             279       19.3         72       19.6      424.2       17.4       21.4       14.4     1012.1       25.6       16.6        0.6        0.6        0.6       1.00      185.7       0.28       0.70       85.8
20:50             292       11.3         73       19.6      424.2       17.9       21.5       14.6     1011.9       25.6       16.6        0.6        0.6        0.6       0.80      186.1       0.28       0.70       85.8
20:52             283       14.5         73       19.6      424.2       17.4       21.5       14.6     1011.9       25.6       16.6        0.6        0.6        0.6       0.80      186.4       0.28       0.70       85.8
20:54             271       14.5         71       19.6      424.2       17.8       21.3       14.2     1011.9       25.6       16.6        0.6        0.6        0.6       0.00      186.8       0.28       0.70       85.8
20:56             268       16.1         71       19.6      424.2       17.4       21.3       14.2     1011.9       25.6       16.6        0.6        0.6        0.6       0.00      187.2       0.28       0.70       85.8
20:58             270       11.3         70       19.7      424.2       17.9       21.3       14.0     1011.9       25.6       16.6        0.6        0.6        0.6       0.00      187.5       0.28       0.70       85.8
21:00             271       16.1         70       19.7      424.2       18.5       21.4       14.1     1012.0       25.6       16.6        0.6        0.6        0.6       0.00      187.9       0.28       0.70       85.8
21:02             263       19.3         70       19.7      424.2       18.0       21.4       14.1     1011.8       25.6       16.6        0.6        0.6        0.6       0.00      188.2       0.28       0.70       85.8
21:04             262       16.1         70       19.7      424.2       18.5       21.4       14.1     1011.9       25.6       16.6        0.6        0.6        0.6       0.00      188.6       0.28       0.70       85.8
21:06             262       11.3         70       19.7      424.2       18.5       21.4       14.1     1011.9       25.6       16.6        0.6        0.6        0.6       0.00      188.9       0.28       0.70       85.8
21:08             263        9.7         70       19.7      424.2       18.5       21.4       14.1     1011.9       25.6       16.6        0.6        0.6        0.6       0.00      189.1       0.28       0.70       85.8
21:10             263        9.7         70       19.7      424.2       19.7       21.4       14.1     1011.9       25.6       16.6        0.6        0.6        0.6       0.00      189.4       0.28       0.70       85.8
21:12             264       14.5         70       19.7      424.2       18.4       21.3       14.0     1011.9       25.6       16.6        0.6        0.6        0.6       0.00      189.7       0.28       0.70       85.8
21:14             265       11.3         70       19.7      424.2       18.5       21.4       14.1     1012.0       25.6       16.6        0.6        0.6        0.6       0.00      190.0       0.28       0.70       85.8
21:16             271       12.9         70       19.8      424.2       17.6       21.4       14.2     1011.9       25.6       16.6        0.6        0.6        0.6       0.00      190.3       0.28       0.70       85.8
21:18             282       16.1         68       19.8      424.2       16.6       21.3       13.7     1012.0       25.6       16.6        0.6        0.6        0.6       0.00      190.7       0.28       0.70       85.8
21:20             290       14.5         68       19.8      424.2       19.1       21.3       13.8     1011.9       25.6       16.6        0.6        0.6        0.6       0.00      191.0       0.28       0.70       85.8
21:22             292       14.5         67       19.9      424.2       19.2       21.3       13.6     1011.8       25.6       16.6        0.6        0.6        0.6       0.00      191.3       0.28       0.70       85.8
21:24             292       12.9         67       19.9      424.2       19.9       21.4       13.6     1011.8       25.6       16.6        0.6        0.6        0.6       0.00      191.6       0.28       0.70       85.8
21:26             291       12.9         67       19.9      424.2       19.2       21.4       13.6     1011.7       25.6       16.6        0.6        0.6        0.6       0.00      191.9       0.28       0.70       85.8
21:28             293       14.5         66       20.0      424.2       20.0       21.4       13.5     1011.8       25.6       16.6        0.6        0.6        0.6       0.00      192.3       0.28       0.70       85.8
21:30             292       11.3         66       20.1      424.2       18.4       21.4       13.5     1011.8       25.6       16.6        0.6        0.6        0.6       0.00      192.6       0.28       0.70       85.8
21:32             292        8.0         66       20.1      424.2       19.4       21.5       13.6     1011.8       25.6       16.6        0.6        0.4        0.6       0.00      192.9       0.28       0.70       85.8
21:34             290       11.3         66       20.2      424.2       19.5       21.6       13.7     1011.8       25.6       16.6        0.6        0.4        0.6       0.00      193.2       0.28       0.70       85.8
21:36             290       11.3         66       20.3      424.2       18.6       21.7       13.7     1011.9       25.6       16.6        0.6        0.4        0.6       0.00      193.5       0.28       0.70       85.8
21:38             292       19.3         66       20.3      424.2       17.7       21.7       13.7     1011.8       25.6       16.6        0.6        0.4        0.6       0.00      193.8       0.28       0.70       85.8
21:40             292       12.9         67       20.3      424.2       19.6       21.8       14.0     1011.8       25.6       16.6        0.6        0.4        0.6       0.00      194.3       0.28       0.70       85.8
21:42             295       14.5         67       20.4      424.2       18.8       21.8       14.1     1011.8       25.6       16.6        0.6        0.4        0.6       0.00      194.6       0.28       0.70       85.8
21:44             303       14.5         67       20.4      424.2       18.3       21.8       14.1     1011.8       25.6       16.6        0.6        0.4        0.6       0.00      195.0       0.28       0.70       85.8
21:45             304       12.9         67       20.4      424.2       18.3       21.8       14.1     1011.7       25.6       16.6        0.6        0.4        0.6       0.00      195.4       0.28       0.70       85.8
21:48             297       16.1         67       20.4      424.2       17.8       21.8       14.1     1011.8       25.6       16.6        0.6        0.0        0.6       0.00      195.8       0.28       0.70       85.8
21:50             299       16.1         68       20.4      424.2       18.8       21.9       14.3     1011.6       25.6       16.6        0.6        0.0        0.6       0.00      196.2       0.28       0.70       85.8
21:52             295       17.7         68       20.4      424.2       18.3       21.9       14.3     1011.7       25.6       16.6        0.6        0.0        0.6       0.00      196.5       0.28       0.70       85.8
21:54             292       14.5         68       20.4      424.2       18.8       22.0       14.3     1011.8       25.6       16.6        0.6        0.0        0.6       0.00      196.9       0.28       0.70       85.8
21:56             294       16.1         67       20.5      424.2       18.0       21.9       14.2     1011.8       25.6       16.6        0.6        0.0        0.6       0.00      197.3       0.28       0.70       85.8
21:58             294       14.5         67       20.5      424.2       19.8       21.9       14.2     1011.8       25.6       16.6        0.6        0.0        0.6       0.00      197.7       0.28       0.70       85.8
22:00             296       17.7         67       20.5      424.2       18.0       21.9       14.2     1011.9       25.6       16.6        0.6        0.0        0.6       0.00      198.0       0.28       0.70       85.8
22:02             295       17.7         67       20.5      424.2       18.4       21.9       14.2     1011.9       25.6       16.6        0.6        0.0        0.6       0.00      198.4       0.28       0.70       85.8
22:04             304       16.1         67       20.5      424.2       19.8       21.9       14.2     1011.9       25.6       16.6        0.6        0.0        0.6       0.00      198.9       0.28       0.70       85.8
22:06             292       19.3         67       20.5      424.2       17.5       21.9       14.2     1011.9       25.6       16.6        0.6        0.0        0.6       0.00      199.3       0.28       0.70       85.8
22:08             308       22.5         67       20.4      424.2       16.9       21.9       14.1     1011.9       25.6       16.6        0.6        0.0        0.6       0.00      199.7       0.28       0.70       85.8
22:10             304       32.2         67       20.5      424.2       15.1       21.9       14.2     1011.9       25.6       16.6        0.6        0.0        0.6       0.00      200.2       0.28       0.70       85.8
22:12             295       17.7         67       20.5      424.2       18.0       21.9       14.2     1011.9       25.6       16.6        0.6        0.0        0.6       0.00      200.8       0.28       0.70       85.8
22:14             294       19.3         67       20.4      424.2       17.5       21.9       14.1     1011.9       25.6       16.6        0.6        0.0        0.6       0.00      201.3       0.28       0.70       85.8
22:16             299       22.5         67       20.4      424.2       18.4       21.9       14.1     1011.8       25.6       16.6        0.6        0.0        0.6       0.00      201.8       0.28       0.70       85.8
22:18             297       25.7         67       20.4      424.2       17.1       21.8       14.1     1011.9       25.6       16.6        0.6        0.0        0.6       0.00      202.2       0.28       0.70       85.8
22:20             296       22.5         67       20.4      424.2       17.1       21.8       14.1     1011.8       25.6       16.6        0.6        0.0        0.6       0.00      202.7       0.28       0.70       85.8
22:22             300       22.5         67       20.3      424.2       16.3       21.8       14.0     1011.9       25.6       16.6        0.6        0.0        0.6       0.00      203.1       0.28       0.70       85.8
22:24             308       17.7         67       20.3      424.2       17.1       21.8       14.0     1011.9       25.6       16.6        0.6        0.0        0.6       0.00      203.6       0.28       0.70       85.8
22:26             298       14.5         67       20.3      424.2       18.7       21.8       14.0     1011.9       25.6       16.6        0.6        0.0        0.6       0.00      204.0       0.28       0.70       85.8
22:28             292       16.1         67       20.3      424.2       17.7       21.7       14.0     1011.9       25.6       16.6        0.6        0.0        0.6       0.00      204.4       0.28       0.70       85.8
22:30             301       16.1         67       20.3      424.2       20.3       21.7       14.0     1012.0       25.6       16.6        0.6        0.0        0.6       0.00      204.8       0.28       0.70       85.8
22:32             311        9.7         67       20.2      424.2       20.2       21.7       13.9     1012.0       25.6       16.6        0.6        0.0        0.6       0.00      205.2       0.28       0.70       85.8
22:34             311        8.0         67       20.2      424.2       20.2       21.7       13.9     1012.2       25.6       16.6        0.6        0.0        0.6       0.00      205.4       0.28       0.70       85.8
22:36             306        0.0         67       20.2      424.2       20.2       21.6       13.9     1012.3       25.6       16.6        0.6        0.0        0.6       0.00      205.5       0.28       0.70       85.8
22:38             225       11.3         68       20.1      424.2       20.1       21.6       14.0     1012.4       25.6       16.6        0.6        0.0        0.6       0.00      205.7       0.28       0.70       85.8
22:40             219        6.4         68       20.1      424.2       20.1       21.6       14.0     1012.6       25.6       16.6        0.6        0.0        0.6       0.00      205.9       0.28       0.70       85.8
22:42             174       11.3         69       20.1      424.2       18.9       21.6       14.2     1012.6       25.6       16.6        0.6        0.0        0.6       0.00      206.1       0.28       0.70       85.8
22:44             172        9.7         69       20.0      424.2       20.0       21.6       14.1     1012.8       25.6       16.6        0.6        0.0        0.6       0.00      206.4       0.28       0.70       85.8
22:46             244        4.8         68       19.9      424.2       19.9       21.4       13.8     1012.7       25.6       16.6        0.6        0.0        0.6       0.00      206.6       0.28       0.70       85.8
22:48             242        6.4         68       19.8      424.2       19.8       21.3       13.8     1012.7       25.6       16.6        0.6        0.0        0.6       0.00      206.8       0.28       0.70       85.8
22:50             175       17.7         69       19.8      424.2       18.1       21.4       14.0     1012.7       25.6       16.6        0.6        0.0        0.6       0.00      207.1       0.28       0.70       85.8
22:52             173       17.7         70       19.8      424.2       18.1       21.4       14.2     1012.8       25.6       16.6        0.6        0.0        0.6       0.00      207.6       0.28       0.70       85.8
22:54             179        9.7         71       19.6      424.2       18.9       21.3       14.2     1012.8       25.6       16.6        0.6        0.0        0.6       0.00      208.0       0.28       0.70       85.8
22:56             181        9.7         71       19.4      424.2       19.4       21.2       14.1     1012.8       25.6       16.6        0.6        0.0        0.6       0.00      208.3       0.28       0.70       85.8
22:58             180       17.7         72       19.3      424.2       15.7       21.1       14.1     1012.8       25.6       16.6        0.6        0.0        0.6       0.00      208.6       0.28       0.70       85.8
23:00             182       24.1         72       19.1      424.2       14.9       20.8       13.9     1012.9       25.6       16.6        0.6        0.0        0.6       0.00      209.1       0.28       0.70       85.8
23:02             180       12.9         73       18.8      424.2       18.1       20.7       13.9     1012.9       25.6       16.6        0.6        0.0        0.6       0.00      209.4       0.28       0.70       85.8
23:04             178       11.3         73       18.6      424.2       17.3       20.5       13.7     1012.9       25.6       16.6        0.6        0.0        0.6       0.00      209.7       0.28       0.70       85.8
23:06             178        6.4         74       18.4      424.2       18.4       20.3       13.7     1013.0       25.6       16.6        0.6        0.0        0.6       0.00      210.1       0.28       0.70       85.8
23:08             178       14.5         74       18.2      424.2       15.8       20.1       13.5     1013.1       25.6       16.6        0.6        0.0        0.6       0.00      210.4       0.28       0.70       85.8
23:10             179       11.3         75       18.1      424.2       16.7       20.0       13.6     1013.1       25.6       16.6        0.6        0.0        0.6       0.00      210.8       0.28       0.70       85.8
23:12             180       12.9         75       17.9      424.2       17.1       19.9       13.4     1013.2       25.6       16.6        0.6        0.0        0.6       0.00      211.1       0.28       0.70       85.8
23:14             187       16.1         76       17.7      424.2       16.9       19.8       13.4     1013.2       25.6       16.6        0.6        0.0        0.6       0.00      211.6       0.28       0.70       85.8
23:16             192        9.7         76       17.6      424.2       16.8       19.7       13.3     1013.1       25.6       16.6        0.6        0.0        0.6       0.00      211.9       0.28       0.70       85.8
23:18             194       16.1         76       17.5      424.2       14.9       19.6       13.2     1013.1       25.6       16.6        0.6        0.0        0.6       0.00      212.2       0.28       0.70       85.8
23:20             209       17.7         76       17.4      424.2       14.2       19.4       13.1     1013.0       25.6       16.6        0.6        0.0        0.6       0.00      212.5       0.28       0.70       85.8
23:22             204       12.9         76       17.3      424.2       15.3       19.3       13.0     1013.0       25.6       16.6        0.6        0.0        0.6       0.00      212.8       0.28       0.70       85.8
23:24             197        9.7         76       17.3      424.2       15.8       19.3       13.0     1013.0       25.6       16.6        0.6        0.0        0.6       0.00      213.1       0.28       0.70       85.8
23:26             206       20.9         76       17.2      424.2       15.8       19.3       13.0     1013.0       25.6       16.6        0.6        0.0        0.6       0.00      213.5       0.28       0.70       85.8
23:28             200        8.0         76       17.2      424.2       17.2       19.2       12.9     1013.1       25.6       16.6        0.6        0.0        0.6       0.00      213.8       0.28       0.70       85.8
23:30             192       14.5         77       17.1      424.2       15.1       19.2       13.1     1013.2       25.6       16.6        0.6        0.0        0.6       0.00      214.1       0.28       0.70       85.8
23:32             194        9.7         77       17.1      424.2       16.2       19.2       13.0     1013.2       25.6       16.6        0.6        0.0        0.6       0.00      214.4       0.29       0.70       85.8
23:34             195       14.5         77       17.1      424.2       13.8       19.2       13.0     1013.2       25.6       16.6        0.6        0.0        0.6       0.00      214.7       0.29       0.70       85.8
23:36             198       16.1         77       17.0      424.2       15.5       19.1       12.9     1013.2       25.6       16.6        0.6        0.0        0.6       0.00      215.1       0.29       0.70       85.8
23:38             200        9.7         77       17.0      424.2       15.5       19.1       12.9     1013.1       25.6       16.6        0.6        0.0        0.6       0.00      215.4       0.29       0.70       85.8
23:40             200        6.4         78       17.0      424.2       17.0       19.2       13.1     1013.2       25.6       16.6        0.6        0.0        0.6       0.00      215.7       0.29       0.70       85.8
23:42             202        9.7         78       16.9      424.2       16.1       19.1       13.1     1013.2       25.6       16.6        0.6        0.0        0.6       0.00      215.9       0.29       0.70       85.8
23:44             203       12.9         78       16.9      424.2       15.5       19.1       13.1     1013.4       25.6       16.6        0.6        0.0        0.6       0.00      216.2       0.29       0.70       85.8
23:46             207        8.0         78       16.9      424.2       16.9       19.1       13.1     1013.2       25.6       16.6        0.6        0.0        0.6       0.00      216.5       0.30       0.70       85.8
23:48             207       11.3         78       16.9      424.2       16.9       19.1       13.0     1013.2       25.6       16.6        0.6        0.0        0.6       0.00      216.8       0.30       0.70       85.8
23:50             209       12.9         78       16.9      424.2       16.9       19.1       13.0     1013.1       25.6       16.6        0.6        0.0        0.6       0.00      217.1       0.30       0.70       85.8
23:52             209       11.3         78       16.9      424.2       16.9       19.1       13.0     1013.1       25.6       16.6        0.6        0.0        0.6       0.00      217.4       0.30       0.70       85.8
23:54             210        9.7         78       16.9      424.2       16.0       19.1       13.0     1013.1       25.6       16.6        0.6        0.0        0.6       0.00      217.7       0.30       0.70       85.8
23:56             211        6.4         78       16.8      424.2       16.8       19.0       13.0     1013.0       25.6       16.6        0.6        0.0        0.6       0.00      217.9       0.30       0.70       85.8
23:57             213       16.1         79       16.8      424.2       14.7       19.1       13.2     1013.0       25.6       16.6        0.6        0.0        0.6       0.00      218.2       0.30       0.70       85.8